Date StartTime U_cm/s V_cm/s W_cm/s Ustd_cm/s Vstd_cm/s Wstd_cm/s Uvar_(cm/s)^2 Vvar_(cm/s)^2 Wvar_(cm/s)^2 KE_(m/s)^2 TurbulentKE_(m/s)^2 HorizWindSpeed_cm/s FrictionSpeec_cm/s DragCoef SpeedOfSound_m/s SonicTemperature_C Pressure_mb 
07/14/2014  00:00:00     -219.102       -7.490      -24.136       67.625       70.677       37.619     4573.137     4995.287     1415.160        2.981        0.549      219.229       30.290        0.019      348.385       28.041      863.184
07/14/2014  00:01:00     -204.221      -34.025      -23.703       76.441       81.624       42.982     5843.265     6662.446     1847.446        2.889        0.718      207.036       44.494        0.046      348.430       28.116      863.151
07/14/2014  00:02:00     -179.478       86.677      -29.870       59.803       84.526       42.985     3576.369     7144.637     1847.690        2.659        0.628      199.312       36.349        0.033      348.367       28.010      863.126
07/14/2014  00:03:00     -165.644      -60.988       -7.145       74.169       69.635       35.643     5500.997     4849.034     1270.426        2.141        0.581      176.515       37.182        0.044      348.303       27.897      863.134
07/14/2014  00:04:00     -275.246      -78.204      -22.600       75.045       71.228       47.732     5631.703     5073.449     2278.308        4.768        0.649      286.140       43.107        0.023      348.371       28.013      863.149
07/14/2014  00:05:00     -232.330      -11.520      -27.620      110.541      116.161       58.300    12219.273    13493.298     3398.832        4.199        1.456      232.615       62.799        0.073      348.356       27.988      863.134
07/14/2014  00:06:00     -137.829      224.186      -23.676      100.810      148.071       64.017    10162.599    21925.156     4098.184        5.299        1.809      263.166       74.220        0.080      348.412       28.088      863.077
07/14/2014  00:07:00     -149.423      241.369      -32.708      103.542      144.146       54.152    10720.907    20777.982     2932.441        5.804        1.722      283.878       69.403        0.060      348.545       28.315      863.019
07/14/2014  00:08:00     -243.962      234.488      -62.085       77.381       93.155       49.729     5987.826     8677.888     2472.984        6.774        0.857      338.381       48.055        0.020      348.565       28.348      862.995
07/14/2014  00:09:00     -171.692       61.394      -14.870       78.949      123.913       57.102     6232.887    15354.318     3260.637        2.915        1.242      182.339       42.261        0.054      348.483       28.209      862.985
07/14/2014  00:10:00     -134.788       59.016      -29.157       69.275       73.882       45.782     4799.080     5458.607     2096.027        1.742        0.618      147.142       25.136        0.029      348.485       28.214      862.973
07/14/2014  00:11:00     -153.422       39.337      -23.927       79.321       92.351       38.443     6291.798     8528.788     1477.849        2.098        0.815      158.385       40.272        0.065      348.425       28.112      862.934
07/14/2014  00:12:00     -226.456      100.819      -23.612      113.391       72.623       57.540    12857.423     5274.053     3310.907        4.172        1.072      247.884       59.433        0.057      348.456       28.162      862.883
07/14/2014  00:13:00     -312.168      -81.537      -18.506      142.814      122.599       49.489    20395.848    15030.507     2449.205        7.115        1.894      322.640       57.283        0.032      348.360       27.996      862.871
07/14/2014  00:14:00     -294.714      -56.929      -28.199      117.335       98.327       61.411    13767.617     9668.105     3771.365        5.904        1.360      300.162       47.329        0.025      348.314       27.915      862.885
07/14/2014  00:15:00     -201.417       10.344      -11.710       86.002       84.135       54.062     7396.425     7078.680     2922.714        2.910        0.870      201.682       41.727        0.043      348.298       27.889      862.890
07/14/2014  00:16:00     -259.323       -2.097      -32.011      108.238      147.535       59.755    11715.367    21766.569     3570.604        5.266        1.853      259.331       48.236        0.035      348.279       27.854      862.916
07/14/2014  00:17:00     -219.068      199.793      -34.687      137.838      118.223       64.260    18999.386    13976.689     4129.374        6.310        1.855      296.493       54.356        0.034      348.322       27.930      862.923
07/14/2014  00:18:00     -234.143      238.986      -44.789      106.442      126.275       75.215    11329.979    15945.391     5657.288        7.343        1.647      334.571       73.261        0.048      348.349       27.976      862.915
07/14/2014  00:19:00     -142.614      210.000      -32.295       80.638       85.145       44.085     6502.513     7249.630     1943.458        4.059        0.785      253.848       36.366        0.021      348.325       27.936      862.939
07/14/2014  00:20:00     -122.434      170.509      -21.014       87.513       94.086       51.378     7658.539     8852.181     2639.709        3.182        0.958      209.913       48.960        0.054      348.351       27.983      862.961
07/14/2014  00:21:00     -206.374      -24.487      -22.059       51.699      104.565       32.689     2672.741    10933.742     1068.560        2.917        0.734      207.822       17.128        0.007      348.397       28.060      863.020
07/14/2014  00:22:00     -158.305      -61.602        6.306      103.837       83.889       42.264    10782.110     7037.373     1786.228        2.425        0.980      169.868       47.601        0.079      348.299       27.890      863.056
07/14/2014  00:23:00     -126.576        6.428      -10.480       60.023       49.400       35.373     3602.771     2440.343     1251.279        1.173        0.365      126.739       28.473        0.050      348.239       27.788      863.064
07/14/2014  00:24:00     -187.994       80.364      -25.005       83.493      121.577       56.808     6971.080    14781.057     3227.174        3.370        1.249      204.450       30.493        0.022      348.403       28.071      863.050
07/14/2014  00:25:00     -186.265      119.950      -39.987       80.758       88.070       41.873     6521.853     7756.265     1753.324        3.335        0.802      221.546       49.641        0.050      348.534       28.297      863.031
07/14/2014  00:26:00      -74.486      202.234      -21.760       53.266       62.793       44.721     2837.266     3943.013     1999.976        2.785        0.439      215.515       37.806        0.031      348.557       28.336      863.016
07/14/2014  00:27:00     -195.112       96.468      -40.686       73.843      107.056       50.718     5452.825    11460.932     2572.348        3.425        0.974      217.657       52.768        0.059      348.503       28.243      863.035
07/14/2014  00:28:00     -178.104        0.367      -16.618       50.780       72.011       33.842     2578.652     5185.616     1145.302        2.045        0.445      178.104       25.116        0.020      348.381       28.035      863.062
07/14/2014  00:29:00     -194.894      -81.305        8.519       93.758       65.053       56.685     8790.496     4231.858     3213.210        3.045        0.812      211.173       56.108        0.071      348.283       27.863      863.068
07/14/2014  00:30:00     -138.970       64.782       -5.652       90.242      104.354       52.674     8143.613    10889.681     2774.558        2.267        1.090      153.328       49.688        0.105      348.329       27.943      863.066
07/14/2014  00:31:00     -121.328      154.220      -12.042       77.008       75.961       49.087     5930.205     5770.057     2409.559        2.638        0.705      196.225       51.369        0.069      348.395       28.060      863.052
07/14/2014  00:32:00     -140.370      235.514      -28.000       83.439      128.119       59.452     6961.989    16414.505     3534.567        5.143        1.346      274.172       73.196        0.071      348.430       28.116      863.043
07/14/2014  00:33:00     -149.703      119.629      -25.696       60.399       83.330       40.688     3648.029     6943.923     1655.534        2.481        0.612      191.630       39.362        0.042      348.449       28.152      863.039
07/14/2014  00:34:00     -215.544      179.883      -49.481       88.437       95.850       54.669     7821.047     9187.143     2988.731        5.063        1.000      280.744       36.875        0.017      348.474       28.190      863.055
07/14/2014  00:35:00      -77.340       42.363       -0.850       80.701       47.679       37.620     6512.727     2273.249     1415.240        0.899        0.510       88.182       47.872        0.295      348.337       27.957      863.070
07/14/2014  00:36:00     -100.136      182.136      -16.532       75.022      132.213       47.112     5628.281    17480.227     2219.524        3.440        1.266      207.848       51.674        0.062      348.338       27.958      863.064
07/14/2014  00:37:00     -164.130      254.880      -33.433       95.328      108.761       58.172     9087.413    11829.021     3383.957        5.866        1.215      303.154       43.990        0.021      348.383       28.034      863.037
07/14/2014  00:38:00     -138.246      449.855      -41.960      109.358      132.751       78.551    11959.212    17622.760     6170.304       12.949        1.788      470.618       72.457        0.024      348.481       28.204      863.027
07/14/2014  00:39:00     -112.247      388.999      -45.879       99.542      156.945       61.779     9908.568    24631.816     3816.702       10.218        1.918      404.870       58.521        0.021      348.519       28.271      863.031
07/14/2014  00:40:00     -119.780      281.802      -40.341       88.001      163.582       56.250     7744.263    26758.937     3164.104        6.652        1.883      306.201       67.158        0.048      348.488       28.217      863.038
07/14/2014  00:41:00     -175.864      131.148      -25.577       88.509      131.744       64.042     7833.904    17356.496     4101.419        3.903        1.465      219.381       62.889        0.082      348.432       28.121      863.073
07/14/2014  00:42:00     -153.534      -17.104      -33.750       98.938       80.589       61.639     9788.700     6494.549     3799.367        2.254        1.004      154.484       60.594        0.154      348.446       28.145      863.124
07/14/2014  00:43:00      -87.592       10.625       10.658       67.633       62.980       39.018     4574.251     3966.436     1522.439        0.898        0.503       88.234       35.371        0.161      348.323       27.933      863.126
07/14/2014  00:44:00     -106.715       93.323      -17.200      122.770       81.274       50.224    15072.460     6605.491     2522.482        2.229        1.210      141.764       55.703        0.154      348.357       27.994      863.130
07/14/2014  00:45:00     -189.232      310.563      -46.383      107.802      120.213       71.354    11621.230    14451.276     5091.342        8.278        1.558      363.673       78.565        0.047      348.393       28.053      863.158
07/14/2014  00:46:00     -232.487      311.070      -60.887      110.509      122.622       69.524    12212.196    15036.230     4833.579        9.330        1.604      388.349       76.181        0.038      348.400       28.066      863.172
07/14/2014  00:47:00     -129.572      209.709      -20.125       94.087      127.305       59.778     8852.448    16206.545     3573.360        4.490        1.432      246.509       51.260        0.043      348.321       27.929      863.158
07/14/2014  00:48:00     -187.252      204.849      -44.565       80.232      100.088       48.668     6437.245    10017.705     2368.591        4.891        0.941      277.536       42.974        0.024      348.330       27.942      863.166
07/14/2014  00:49:00     -165.460      215.919      -32.835       98.599      105.745       61.723     9721.790    11181.951     3809.685        4.989        1.236      272.025       54.860        0.041      348.335       27.951      863.166
07/14/2014  00:50:00     -189.920      220.137      -54.186       85.816       98.196       52.321     7364.403     9642.374     2737.510        5.360        0.987      290.741       51.134        0.031      348.334       27.952      863.169
07/14/2014  00:51:00     -125.899      192.761      -30.855       92.783       98.663       53.397     8608.635     9734.393     2851.263        3.757        1.060      230.233       58.860        0.065      348.281       27.858      863.155
07/14/2014  00:52:00     -113.084      191.920      -18.528       73.451       77.666       56.847     5395.067     6032.011     3231.628        3.231        0.733      222.759       54.576        0.060      348.218       27.749      863.149
07/14/2014  00:53:00     -165.881      235.614      -45.170       81.834      114.210       47.791     6696.749    13044.012     2284.001        5.354        1.101      288.150       42.084        0.021      348.293       27.879      863.157
07/14/2014  00:54:00     -149.654      124.617      -33.176       94.193       91.793       55.451     8872.399     8425.876     3074.826        2.970        1.019      194.745       57.250        0.086      348.311       27.912      863.175
07/14/2014  00:55:00     -154.049      147.112      -28.288       88.113      101.828       51.518     7763.897    10368.985     2654.061        3.348        1.039      213.009       49.568        0.054      348.313       27.913      863.169
07/14/2014  00:56:00     -147.988      125.200       -4.401      103.147       65.857       62.611    10639.344     4337.080     3920.126        2.824        0.945      193.844       58.514        0.091      348.314       27.917      863.193
07/14/2014  00:57:00     -156.096      188.614      -34.337       92.683      101.430       64.221     8590.207    10288.032     4124.343        4.206        1.150      244.829       46.198        0.036      348.299       27.891      863.173
07/14/2014  00:58:00     -124.149      248.736      -32.519       97.130      115.566       53.984     9434.283    13355.600     2914.282        5.202        1.285      277.998       61.845        0.049      348.307       27.904      863.162
07/14/2014  00:59:00      -75.109      100.206       -2.101       68.248       96.569       50.849     4657.777     9325.589     2585.646        1.612        0.828      125.230       50.552        0.163      348.230       27.772      863.170
07/14/2014  01:00:00     -153.465      253.280      -46.820      162.793      132.950       62.815    26501.594    17675.736     3945.770        6.900        2.406      296.145       76.036        0.066      348.253       27.811      863.163
07/14/2014  01:01:00     -200.726      129.282      -22.488      128.693       82.720       54.494    16561.956     6842.580     2969.544        4.194        1.319      238.757       49.523        0.043      348.353       27.984      863.185
07/14/2014  01:02:00     -140.575       38.081      -17.124       85.262       89.655       46.144     7269.534     8038.058     2129.260        1.947        0.872      145.641       53.918        0.137      348.375       28.025      863.197
07/14/2014  01:03:00     -163.230       46.412      -36.183       88.506      104.030       57.337     7833.306    10822.210     3287.508        2.602        1.097      169.700       62.518        0.136      348.378       28.027      863.251
07/14/2014  01:04:00     -149.642        1.736        8.086       80.526       73.971       46.413     6484.387     5471.704     2154.198        1.828        0.706      149.652       51.027        0.116      348.325       27.937      863.273
07/14/2014  01:05:00       -4.859      -18.648       11.971       62.642       46.484       35.860     3924.077     2160.748     1285.964        0.394        0.369       19.270       27.572        2.047      348.275       27.852      863.255
07/14/2014  01:06:00      -41.766       29.732        1.853       55.838       71.142       38.324     3117.922     5061.254     1468.755        0.614        0.482       51.268       33.409        0.425      348.298       27.892      863.262
07/14/2014  01:07:00     -129.112      -63.458        3.974       59.246       46.745       29.656     3510.117     2185.108      879.451        1.364        0.329      143.864       28.516        0.039      348.300       27.895      863.286
07/14/2014  01:08:00      -85.933      -53.672        2.655       92.780       62.745       33.828     8608.209     3936.905     1144.312        1.198        0.684      101.318       40.826        0.162      348.290       27.877      863.303
07/14/2014  01:09:00     -115.658     -114.828        1.322       76.945       76.832       53.250     5920.489     5903.225     2835.559        2.061        0.733      162.979       28.386        0.030      348.151       27.634      863.316
07/14/2014  01:10:00     -132.378      -92.953      -13.021       58.761       56.825       32.240     3452.851     3229.137     1039.386        1.703        0.386      161.753       30.219        0.035      348.106       27.559      863.340
07/14/2014  01:11:00     -192.552      -29.561      -28.021       54.154       63.273       33.398     2932.671     4003.464     1115.426        2.339        0.403      194.808       18.269        0.009      348.143       27.625      863.344
07/14/2014  01:12:00     -227.954      -89.451       -9.344       69.186       59.368       35.451     4786.659     3524.520     1256.743        3.481        0.478      244.876       28.144        0.013      348.111       27.563      863.355
07/14/2014  01:13:00     -229.506      -73.068       -1.846       99.454       93.770       41.102     9891.003     8792.720     1689.385        3.919        1.019      240.857       46.587        0.037      348.442       28.138      863.349
07/14/2014  01:14:00     -153.625      -92.490       -6.982       93.994       68.917       42.050     8834.830     4749.487     1768.200        2.378        0.768      179.318       44.989        0.063      348.514       28.262      863.331
07/14/2014  01:15:00      -80.962      -95.267       11.002       86.891       62.418       42.622     7549.970     3896.053     1816.675        1.450        0.663      125.022       47.768        0.146      348.454       28.162      863.332
07/14/2014  01:16:00     -157.890      -76.518       -2.613       59.681       59.257       36.808     3561.848     3511.364     1354.817        1.961        0.421      175.454       35.388        0.041      348.521       28.277      863.336
07/14/2014  01:17:00     -198.420      -94.795      -17.137       46.057       32.457       28.051     2121.237     1053.449      786.877        2.631        0.198      219.902       23.152        0.011      348.360       27.996      863.366
07/14/2014  01:18:00      -81.803      -15.641        1.049       77.330       40.918       26.033     5979.975     1674.277      677.692        0.763        0.417       83.285       30.460        0.134      348.290       27.877      863.376
07/14/2014  01:19:00     -162.103      -24.482      -12.106       57.803       51.914       27.754     3341.183     2695.052      770.309        1.691        0.340      163.942       29.837        0.033      348.332       27.950      863.380
07/14/2014  01:20:00      -51.692       -4.077        1.675       31.123       28.392       13.277      968.637      806.105      176.276        0.232        0.098       51.852        9.848        0.036      348.197       27.718      863.375
07/14/2014  01:21:00     -115.931       17.081       -9.033       39.481       18.234       14.837     1558.784      332.469      220.123        0.796        0.106      117.182       18.864        0.026      348.312       27.915      863.374
07/14/2014  01:22:00     -115.106      -35.151       -5.397       36.831       27.864       19.492     1356.530      776.406      379.930        0.851        0.126      120.353       19.451        0.026      348.247       27.804      863.363
07/14/2014  01:23:00     -101.083       -9.021       -5.324       46.400       31.286       22.416     2152.961      978.799      502.495        0.698        0.182      101.485       22.213        0.048      348.247       27.803      863.364
07/14/2014  01:24:00     -149.290      -16.087       -0.442       52.360       35.424       26.889     2741.550     1254.831      723.029        1.363        0.236      150.154       28.456        0.036      348.223       27.762      863.382
07/14/2014  01:25:00     -156.973      -53.000       -1.310       46.694       31.806       24.010     2180.349     1011.620      576.486        1.561        0.188      165.679       24.041        0.021      348.250       27.809      863.386
07/14/2014  01:26:00      -65.642      -40.054        9.682       61.510       37.302       28.036     3783.430     1391.435      786.039        0.598        0.298       76.897       29.216        0.144      348.153       27.643      863.370
07/14/2014  01:27:00     -166.319      -63.935       -8.485       44.260       42.270       27.300     1958.956     1786.755      745.278        1.816        0.225      178.184       25.450        0.020      348.281       27.862      863.366
07/14/2014  01:28:00     -116.403      -44.473       -8.403       42.229       38.092       27.048     1783.290     1451.032      731.568        0.978        0.198      124.610       26.522        0.045      348.174       27.678      863.382
07/14/2014  01:29:00     -144.234      -29.060       -9.849       55.328       34.452       22.724     3061.205     1186.951      516.373        1.325        0.238      147.132       20.590        0.020      348.170       27.669      863.391
07/14/2014  01:30:00     -112.272      -43.576       -7.388       65.324       34.546       23.465     4267.199     1193.410      550.594        1.028        0.301      120.432       21.667        0.032      348.172       27.676      863.401
07/14/2014  01:31:00     -129.505      -56.152        4.031       72.979       50.360       38.204     5325.957     2536.170     1459.527        1.463        0.466      141.155       39.947        0.080      348.095       27.540      863.409
07/14/2014  01:32:00     -150.463      -53.582        1.264       61.520       61.006       38.964     3784.702     3721.752     1518.198        1.727        0.451      159.719       39.599        0.061      348.105       27.558      863.427
07/14/2014  01:33:00     -130.692      -29.228       -3.662       41.334       33.145       25.171     1708.514     1098.620      633.591        1.069        0.172      133.920       19.250        0.021      348.068       27.494      863.440
07/14/2014  01:34:00     -153.812       -7.568       -8.936       56.739       47.138       22.828     3219.318     2221.989      521.104        1.488        0.298      153.998       14.847        0.009      348.142       27.621      863.435
07/14/2014  01:35:00     -103.345      -14.527       -3.015       52.551       31.661       22.961     2761.600     1002.416      527.200        0.759        0.215      104.361       24.843        0.057      348.096       27.541      863.434
07/14/2014  01:36:00      -34.366        7.216        4.248       30.503       15.943       15.101      930.454      254.190      228.042        0.133        0.071       35.116       10.737        0.093      347.938       27.269      863.429
07/14/2014  01:37:00      -78.330       18.407       -5.821       30.084       18.362       13.331      905.062      337.162      177.722        0.396        0.071       80.464       11.717        0.021      347.902       27.208      863.419
07/14/2014  01:38:00      -49.812       -6.495       -6.323       21.967       32.187       13.332      482.557     1036.011      177.748        0.213        0.085       50.234       10.596        0.044      347.829       27.079      863.404
07/14/2014  01:39:00      -85.542       68.726      -12.707       24.294       30.788       14.097      590.196      947.894      198.712        0.697        0.087      109.730       10.312        0.009      347.759       26.962      863.405
07/14/2014  01:40:00      -77.556      100.991      -22.396       33.764       31.713       16.959     1139.997     1005.742      287.622        0.957        0.122      127.334       14.383        0.013      347.661       26.790      863.400
07/14/2014  01:41:00     -102.051       99.274      -18.736       30.501       38.299       22.427      930.331     1466.813      502.950        1.176        0.145      142.371       19.899        0.020      347.717       26.889      863.394
07/14/2014  01:42:00      -91.236       78.495      -14.832       28.741       47.875       19.811      826.029     2291.973      392.469        0.911        0.176      120.356       15.348        0.016      347.774       26.987      863.373
07/14/2014  01:43:00      -98.636      -23.561       -0.470       46.957       59.322       25.575     2204.913     3519.132      654.060        0.833        0.319      101.411       18.152        0.032      347.695       26.852      863.374
07/14/2014  01:44:00      -98.468       44.558       -9.378       48.375       36.209       26.870     2340.159     1311.086      721.981        0.807        0.219      108.081       18.877        0.031      347.712       26.881      863.387
07/14/2014  01:45:00      -63.614       -2.831      -10.352       19.142       17.273       13.682      366.415      298.363      187.188        0.251        0.043       63.677        7.391        0.013      347.595       26.679      863.383
07/14/2014  01:46:00     -108.109      -34.470      -16.250       27.203       22.687       15.130      740.026      514.678      228.916        0.731        0.074      113.471       12.079        0.011      347.618       26.718      863.379
07/14/2014  01:47:00      -88.265      -23.386       -2.931       28.077       21.200       19.431      788.331      449.424      377.559        0.498        0.081       91.311       17.136        0.035      347.521       26.551      863.378
07/14/2014  01:48:00      -97.105       -0.283       -6.061       31.222       29.507       20.312      974.831      870.671      412.562        0.586        0.113       97.105       17.631        0.033      347.488       26.493      863.379
07/14/2014  01:49:00     -124.788       44.436      -15.698       36.497       31.367       31.523     1332.059      983.893      993.725        1.055        0.165      132.464       22.738        0.029      347.707       26.871      863.392
07/14/2014  01:50:00      -98.069       15.948       -3.546       30.162       32.223       18.478      909.763     1038.352      341.438        0.609        0.114       99.357       14.005        0.020      347.645       26.763      863.392
07/14/2014  01:51:00     -146.001        9.353       -7.587       50.705       35.060       23.674     2570.980     1229.190      560.466        1.291        0.218      146.300       19.860        0.018      347.672       26.810      863.394
07/14/2014  01:52:00      -87.743      -22.117       -3.290       58.973       31.635       26.452     3477.858     1000.787      699.688        0.669        0.259       90.488       30.728        0.115      347.584       26.660      863.398
07/14/2014  01:53:00      -43.390        0.148        5.380       28.266       37.177       25.895      798.957     1382.108      670.530        0.238        0.143       43.390       17.993        0.172      347.496       26.507      863.387
07/14/2014  01:54:00      -42.303        3.803       -8.597       34.102       27.008       13.697     1162.934      729.420      187.595        0.198        0.104       42.474       11.250        0.070      347.589       26.666      863.376
07/14/2014  01:55:00      -67.752      -11.705       -1.180       33.795       38.204       21.963     1142.090     1459.538      482.384        0.391        0.154       68.756       22.213        0.104      347.631       26.740      863.387
07/14/2014  01:56:00      -71.547       31.882      -12.472       27.183       49.842       16.262      738.891     2484.224      264.453        0.489        0.174       78.329       19.970        0.065      347.657       26.784      863.399
07/14/2014  01:57:00     -112.635       61.261      -10.672       37.767       27.504       25.985     1426.365      756.469      675.223        0.971        0.143      128.217       18.239        0.020      347.623       26.727      863.409
07/14/2014  01:58:00      -68.614      101.209       -9.095       35.485       46.009       24.276     1259.179     2116.791      589.320        0.950        0.198      122.275       23.298        0.036      347.617       26.716      863.411
07/14/2014  01:59:00      -62.264       55.424       -9.909       36.206       54.210       23.107     1310.880     2938.695      533.942        0.591        0.239       83.359       22.246        0.071      347.628       26.736      863.413
07/14/2014  02:00:00      -82.324       -1.015       -8.849       21.945       33.339       14.807      481.593     1111.469      219.260        0.433        0.091       82.331        5.134        0.004      347.475       26.470      863.425
07/14/2014  02:01:00     -131.750      -11.115      -16.112       30.881       16.258       14.151      953.650      264.318      200.244        0.958        0.071      132.218       13.133        0.010      347.344       26.247      863.431
07/14/2014  02:02:00      -89.048       24.657      -14.853       27.334       32.608       15.406      747.157     1063.288      237.345        0.540        0.102       92.399       13.022        0.020      347.299       26.166      863.424
07/14/2014  02:03:00     -133.857       -7.429      -20.065       46.429       29.092       22.972     2155.677      846.339      527.719        1.095        0.176      134.063       26.618        0.039      347.288       26.150      863.422
07/14/2014  02:04:00     -139.362      -62.602      -16.836       32.340       34.995       23.774     1045.906     1224.651      565.204        1.323        0.142      152.777        9.778        0.004      347.265       26.109      863.405
07/14/2014  02:05:00      -61.188      -13.279       -3.594       39.297       30.817       16.704     1544.255      949.696      279.027        0.335        0.139       62.612       18.327        0.086      347.235       26.058      863.380
07/14/2014  02:06:00     -117.351      -12.564      -17.804       22.360       30.773       20.901      499.990      946.952      436.844        0.806        0.094      118.021       16.515        0.020      347.334       26.227      863.355
07/14/2014  02:07:00      -96.479       16.308       -3.224       27.557       28.905       15.091      759.370      835.495      227.734        0.570        0.091       97.848       11.869        0.015      347.365       26.282      863.357
07/14/2014  02:08:00      -69.316      -18.283       -6.176       21.633       27.909       14.808      467.980      778.934      219.286        0.332        0.073       71.686        7.111        0.010      347.248       26.080      863.349
07/14/2014  02:09:00      -93.054      -38.538       -0.063       38.244       24.810       20.016     1462.586      615.552      400.657        0.631        0.124      100.719       20.918        0.043      347.269       26.115      863.319
07/14/2014  02:10:00     -125.731      -13.724       -5.338       34.818       27.701       17.170     1212.269      767.341      294.794        0.915        0.114      126.478       17.847        0.020      347.330       26.221      863.300
07/14/2014  02:11:00     -129.067        4.935      -13.002       43.661       41.469       24.594     1906.242     1719.660      604.851        1.054        0.212      129.161       23.820        0.034      347.428       26.389      863.300
07/14/2014  02:12:00     -138.935      -15.107      -11.081       50.105       50.221       24.184     2510.553     2522.178      584.857        1.263        0.281      139.753       21.854        0.024      347.422       26.378      863.290
07/14/2014  02:13:00     -155.793      -14.542      -10.705       56.852       32.888       29.185     3232.095     1081.613      851.739        1.488        0.258      156.470       29.764        0.036      347.440       26.410      863.288
07/14/2014  02:14:00     -150.613      -35.138      -12.112       46.834       52.478       24.749     2193.441     2753.983      612.523        1.481        0.278      154.658       17.647        0.013      347.453       26.432      863.282
07/14/2014  02:15:00     -133.875      -49.202        1.075       46.032       45.823       23.719     2118.954     2099.782      562.570        1.256        0.239      142.630       24.505        0.030      347.351       26.257      863.291
07/14/2014  02:16:00     -155.654      -33.444      -21.230       32.260       26.511       25.754     1040.738      702.838      663.289        1.410        0.120      159.207       16.408        0.011      347.354       26.261      863.292
07/14/2014  02:17:00     -163.643      -33.811       -9.892       37.727       43.178       21.680     1423.335     1864.306      470.020        1.589        0.188      167.100       15.798        0.009      347.403       26.344      863.288
07/14/2014  02:18:00     -194.799      -23.768       -7.405       57.846       43.215       33.978     3346.126     1867.525     1154.504        2.247        0.318      196.244       31.830        0.026      347.437       26.403      863.282
07/14/2014  02:19:00     -145.451      -72.804       -1.455       79.042       53.172       31.712     6247.677     2827.294     1005.629        1.827        0.504      162.654       28.624        0.031      347.468       26.458      863.283
07/14/2014  02:20:00     -177.387      -89.236       -3.294       65.416       42.386       30.732     4279.193     1796.603      944.458        2.323        0.351      198.568       28.557        0.021      347.616       26.712      863.280
07/14/2014  02:21:00     -106.842      -53.263        4.953       58.020       52.199       33.615     3366.374     2724.777     1129.972        1.075        0.361      119.383       33.859        0.080      347.484       26.487      863.279
07/14/2014  02:22:00     -154.368      -98.375       -7.316       44.570       43.766       31.861     1986.504     1915.474     1015.137        1.924        0.246      183.050       22.385        0.015      347.496       26.507      863.274
07/14/2014  02:23:00     -118.553      -78.650        3.753       70.003       46.528       33.677     4900.468     2164.829     1134.124        1.423        0.410      142.270       34.988        0.060      347.412       26.361      863.280
07/14/2014  02:24:00      -77.989      -63.825        3.255       54.860       46.162       33.859     3009.575     2130.933     1146.404        0.823        0.314      100.777       34.234        0.115      347.396       26.334      863.290
07/14/2014  02:25:00      -73.678      -57.097        1.798       53.763       38.751       29.415     2890.489     1501.627      865.232        0.697        0.263       93.212       24.009        0.066      347.363       26.277      863.288
07/14/2014  02:26:00      -95.367      -70.892        2.563       37.953       43.270       27.257     1440.395     1872.331      742.938        0.909        0.203      118.830       20.162        0.029      347.465       26.452      863.274
07/14/2014  02:27:00      -48.852      -74.574        8.500       72.592       41.496       33.308     5269.625     1721.886     1109.443        0.806        0.405       89.150       29.205        0.107      347.462       26.450      863.276
07/14/2014  02:28:00      -82.888     -107.614       -0.519       45.712       40.637       33.154     2089.592     1651.398     1099.192        1.164        0.242      135.836       31.825        0.055      347.419       26.375      863.276
07/14/2014  02:29:00      -23.690      -66.657       16.313       45.041       34.070       23.959     2028.704     1160.766      574.012        0.452        0.188       70.741       23.862        0.114      347.403       26.346      863.291
07/14/2014  02:30:00      -20.759      -52.674       12.846       42.744       30.441       19.405     1827.071      926.673      376.563        0.325        0.157       56.617       18.014        0.101      347.386       26.316      863.293
07/14/2014  02:31:00      -95.018      -77.806       -7.799       48.205       38.615       25.716     2323.704     1491.155      661.325        0.981        0.224      122.809       27.629        0.051      347.325       26.211      863.296
07/14/2014  02:32:00      -55.196      -53.613        8.326       47.484       56.300       29.186     2254.710     3169.709      851.825        0.613        0.314       76.948       29.253        0.145      347.262       26.104      863.296
07/14/2014  02:33:00      -46.560      -79.864        5.383       66.022       53.823       31.593     4358.920     2896.961      998.090        0.841        0.413       92.445       32.918        0.127      347.185       25.970      863.288
07/14/2014  02:34:00      -77.529      -88.930      -13.668       52.736       49.300       29.860     2781.131     2430.449      891.600        1.010        0.305      117.980       29.649        0.063      347.195       25.987      863.287
07/14/2014  02:35:00     -108.442      -30.329        9.466       52.551       36.664       29.306     2761.589     1344.249      858.820        0.887        0.248      112.603       26.125        0.054      347.123       25.865      863.296
07/14/2014  02:36:00      -67.920      -24.579        6.980       64.162       56.782       26.484     4116.811     3224.226      701.393        0.665        0.402       72.230       31.275        0.187      347.050       25.737      863.297
07/14/2014  02:37:00      -76.790      -13.717       -7.711       28.389       31.083       19.530      805.911      966.161      381.405        0.415        0.108       78.006       12.544        0.026      346.813       25.331      863.292
07/14/2014  02:38:00      -45.062      -30.784        5.577       38.940       36.151       24.225     1516.323     1306.886      586.870        0.321        0.171       54.573       20.357        0.139      346.806       25.317      863.288
07/14/2014  02:39:00      -35.597      -33.007       10.066       52.499       39.137       23.209     2756.145     1531.743      538.659        0.364        0.241       48.545       18.595        0.147      346.798       25.306      863.298
07/14/2014  02:40:00     -119.594      -75.738        3.249       50.983       43.324       31.163     2599.272     1876.979      971.130        1.275        0.272      141.560       31.427        0.049      346.899       25.477      863.301
07/14/2014  02:41:00      -75.873     -106.923        8.266       55.252       52.527       28.685     3052.829     2759.127      822.801        1.194        0.332      131.108       31.478        0.058      346.976       25.610      863.293
07/14/2014  02:42:00     -103.550      -94.366       -2.541       58.325       59.844       32.174     3401.802     3581.334     1035.182        1.382        0.401      140.098       31.159        0.049      347.009       25.666      863.286
07/14/2014  02:43:00      -87.018      -88.264        2.939       42.098       48.592       29.165     1772.245     2361.205      850.595        1.018        0.249      123.946       20.696        0.028      347.013       25.675      863.281
07/14/2014  02:44:00      -73.359      -45.877        1.864       34.509       33.882       18.062     1190.848     1147.978      326.242        0.508        0.133       86.523       17.715        0.042      346.925       25.523      863.281
07/14/2014  02:45:00      -52.278      -27.488        2.912       27.682       42.331       14.835      766.308     1791.927      220.069        0.314        0.139       59.064       12.908        0.048      346.852       25.396      863.278
07/14/2014  02:46:00      -59.989       22.725        1.077       32.008       17.318       11.264     1024.499      299.899      126.870        0.278        0.073       64.149        4.510        0.005      346.570       24.913      863.276
07/14/2014  02:47:00     -112.271       65.670      -15.552       28.802       29.128       20.303      829.565      848.460      412.214        0.962        0.105      130.067       16.590        0.016      346.521       24.828      863.284
07/14/2014  02:48:00      -95.876       40.222       -3.943       29.353       20.070       16.035      861.616      402.793      257.127        0.617        0.076      103.971       12.255        0.014      346.586       24.941      863.292
07/14/2014  02:49:00      -73.648       27.679       -1.893       19.908       23.692       19.496      396.326      561.303      380.112        0.377        0.067       78.677       10.298        0.017      346.584       24.938      863.298
07/14/2014  02:50:00      -85.261      -30.017      -12.711       30.110       26.207       16.546      906.626      686.827      273.754        0.510        0.093       90.391       14.297        0.025      346.643       25.037      863.283
07/14/2014  02:51:00     -106.652      -48.655      -10.584       25.235       31.604       15.115      636.815      998.814      228.462        0.786        0.093      117.226        7.006        0.004      346.616       24.992      863.275
07/14/2014  02:52:00      -20.404      -40.962       11.622       48.674       34.395       24.890     2369.165     1183.030      619.522        0.320        0.209       45.763       28.051        0.376      346.523       24.833      863.273
07/14/2014  02:53:00       -6.392      -26.553        5.753       31.254       28.844       20.986      976.834      831.967      440.409        0.151        0.112       27.312       22.215        0.662      346.551       24.879      863.280
07/14/2014  02:54:00      -71.885      -63.706        0.052       44.985       32.329       25.561     2023.682     1045.156      653.388        0.647        0.186       96.052       24.913        0.067      346.533       24.849      863.287
07/14/2014  02:55:00      -72.432       -8.746        3.186       54.986       41.666       22.142     3023.473     1736.093      490.249        0.529        0.262       72.958       26.845        0.135      346.345       24.525      863.302
07/14/2014  02:56:00     -123.862      -24.116       -8.736       39.053       33.382       20.075     1525.098     1114.370      403.013        0.952        0.152      126.188       23.212        0.034      346.110       24.120      863.299
07/14/2014  02:57:00      -40.078      -49.334       -0.495       37.513       22.410       20.726     1407.224      502.210      429.571        0.319        0.117       63.562       13.587        0.046      346.272       24.401      863.293
07/14/2014  02:58:00      -41.347      -22.220       -0.945       50.191       19.129       13.445     2519.168      365.933      180.759        0.263        0.153       46.939       22.592        0.232      346.448       24.703      863.286
07/14/2014  02:59:00      -80.961      -17.981       -5.949       37.229       19.479       17.747     1385.996      379.422      314.959        0.450        0.104       82.933       17.203        0.043      346.344       24.522      863.283
07/14/2014  03:00:00      -60.270       -2.233       -4.673       17.843       15.701       14.472      318.377      246.514      209.452        0.222        0.039       60.312        9.110        0.023      346.265       24.387      863.276
07/14/2014  03:01:00      -50.087      -13.779        1.690       18.874       30.237       17.477      356.210      914.248      305.451        0.214        0.079       51.948       15.045        0.084      346.357       24.547      863.268
07/14/2014  03:02:00      -61.917      -65.641       -4.340       37.493       42.020       19.307     1405.753     1765.697      372.747        0.585        0.177       90.235       16.871        0.035      346.380       24.586      863.245
07/14/2014  03:03:00      -93.815      -88.158       -1.568       33.880       25.147       23.039     1147.880      632.384      530.810        0.944        0.116      128.737       23.162        0.032      346.497       24.787      863.239
07/14/2014  03:04:00      -82.219      -64.122       -1.591       41.748       32.447       26.122     1742.922     1052.816      682.352        0.718        0.174      104.267       26.145        0.063      346.457       24.718      863.252
07/14/2014  03:05:00      -90.222      -60.675        0.043       45.903       36.104       24.000     2107.046     1303.468      576.022        0.790        0.199      108.727       24.116        0.049      346.497       24.786      863.253
07/14/2014  03:06:00      -88.181       -3.852       -5.908       23.375       26.206       17.562      546.396      686.729      308.413        0.468        0.077       88.265       14.105        0.026      346.218       24.308      863.250
07/14/2014  03:07:00      -54.930      -34.210       -4.682       11.577       17.708        5.754      134.025      313.584       33.114        0.235        0.024       64.711        3.608        0.003      346.348       24.530      863.241
07/14/2014  03:08:00      -58.230      -33.037       -4.120       32.441       21.478       12.564     1052.399      461.325      157.863        0.309        0.084       66.949       12.667        0.036      346.313       24.471      863.237
07/14/2014  03:09:00      -67.969      -45.717        2.521       42.513       23.528       16.485     1807.364      553.584      271.760        0.467        0.132       81.913       18.771        0.053      346.315       24.474      863.232
07/14/2014  03:10:00      -84.820      -79.406       -0.592       26.248       23.338       18.481      688.983      544.665      341.541        0.754        0.079      116.189       15.380        0.018      346.599       24.961      863.224
07/14/2014  03:11:00     -123.031      -52.008       -2.217       37.485       23.648       15.063     1405.133      559.225      226.892        1.002        0.110      133.572       15.400        0.013      346.389       24.601      863.239
07/14/2014  03:12:00      -97.668      -52.543        1.427       64.230       38.704       24.224     4125.459     1498.007      586.789        0.925        0.311      110.904       14.562        0.017      346.129       24.153      863.246
07/14/2014  03:13:00      -65.584      -80.324        1.313       35.389       32.708       15.346     1252.413     1069.822      235.510        0.666        0.128      103.697       16.720        0.026      346.292       24.435      863.248
07/14/2014  03:14:00      -81.765      -81.145        9.874       56.124       44.353       27.112     3149.954     1967.178      735.053        0.961        0.293      115.195       28.772        0.062      346.460       24.724      863.250
07/14/2014  03:15:00     -109.091      -70.763        1.212       47.411       38.642       23.529     2247.778     1493.198      553.627        1.060        0.215      130.032       20.841        0.026      346.418       24.651      863.269
07/14/2014  03:16:00     -121.210      -78.684       -6.662       49.005       33.951       21.918     2401.470     1152.697      480.406        1.248        0.202      144.510       21.992        0.023      346.392       24.607      863.260
07/14/2014  03:17:00     -108.911      -39.236       -2.798       19.046       20.245       14.537      362.738      409.844      211.333        0.720        0.049      115.763        9.655        0.007      346.327       24.496      863.252
07/14/2014  03:18:00      -81.556      -40.446        2.094       41.501       32.809       23.071     1722.292     1076.417      532.273        0.581        0.167       91.035       25.134        0.076      346.362       24.556      863.253
07/14/2014  03:19:00      -94.299      -10.474       -2.934       31.172       21.658       17.765      971.691      469.059      315.602        0.538        0.088       94.879       13.960        0.022      346.132       24.160      863.256
07/14/2014  03:20:00      -73.345      -22.951        1.669       32.557       21.000       18.961     1059.967      441.005      359.533        0.388        0.093       76.852       18.349        0.057      345.941       23.833      863.258
07/14/2014  03:21:00      -88.745      -28.370        1.324       25.402       21.817       11.733      645.265      475.994      137.671        0.497        0.063       93.169       10.455        0.013      345.992       23.918      863.264
07/14/2014  03:22:00      -78.834      -10.964       -3.613       30.591       32.628       16.549      935.835     1064.581      273.860        0.431        0.114       79.593       13.949        0.031      345.952       23.850      863.278
07/14/2014  03:23:00     -128.117        9.635       -8.512       29.719       30.353       16.054      883.216      921.296      257.728        0.932        0.103      128.479        9.458        0.005      345.798       23.589      863.289
07/14/2014  03:24:00     -100.841      -52.152       -7.917       51.385       23.710       19.234     2640.414      562.156      369.960        0.826        0.179      113.529       22.111        0.038      345.796       23.584      863.304
07/14/2014  03:25:00     -108.435      -53.919       -2.659       34.348       27.432       13.346     1179.776      752.502      178.109        0.839        0.106      121.101        2.944        0.001      345.845       23.667      863.328
07/14/2014  03:26:00     -122.260       -8.668       -5.310       39.558       31.423       20.100     1564.812      987.378      404.019        0.900        0.148      122.567       19.540        0.025      345.779       23.554      863.328
07/14/2014  03:27:00      -81.108      -52.737        3.458       46.157       29.721       18.884     2130.435      883.340      356.597        0.637        0.169       96.745       17.499        0.033      345.739       23.483      863.334
07/14/2014  03:28:00      -45.331      -45.064        8.743       47.512       32.997       24.309     2257.369     1088.831      590.914        0.405        0.197       63.919       21.441        0.113      345.825       23.632      863.341
07/14/2014  03:29:00     -121.723      -71.496        4.385       50.806       29.016       22.472     2581.265      841.948      504.983        1.194        0.196      141.167       20.520        0.021      345.939       23.828      863.354
07/14/2014  03:30:00     -103.957      -27.046        2.103       38.132       28.206       17.752     1454.024      795.560      315.118        0.705        0.128      107.417       21.636        0.041      345.853       23.681      863.348
07/14/2014  03:31:00     -121.162        5.309       -6.416       33.417       28.328       14.347     1116.669      802.471      205.827        0.844        0.106      121.278       14.006        0.013      345.641       23.315      863.347
07/14/2014  03:32:00     -116.758       -5.420       -3.166       32.493       24.554       17.465     1055.775      602.915      305.019        0.782        0.098      116.884       16.153        0.019      345.619       23.278      863.358
07/14/2014  03:33:00     -107.386        4.374        1.602       49.988       29.874       24.333     2498.840      892.442      592.111        0.777        0.199      107.475       27.979        0.068      345.546       23.154      863.359
07/14/2014  03:34:00     -128.231        3.597      -13.027       29.383       30.856       14.142      863.379      952.097      200.007        0.932        0.101      128.282       10.622        0.007      345.588       23.226      863.352
07/14/2014  03:35:00      -92.112      -30.426       -1.146       38.244       38.600       19.634     1462.574     1489.994      385.494        0.637        0.167       97.007       18.074        0.035      345.584       23.218      863.353
07/14/2014  03:36:00     -109.943      -54.329       -6.322       41.158       43.823       22.133     1694.014     1920.454      489.886        0.959        0.205      122.635       14.735        0.014      345.612       23.266      863.361
07/14/2014  03:37:00      -69.234      -37.343        5.916       36.644       24.235       19.781     1342.800      587.321      391.269        0.427        0.116       78.663       16.854        0.046      345.529       23.124      863.366
07/14/2014  03:38:00      -77.017      -49.347       -0.445       23.793       27.913       18.111      566.109      779.118      328.017        0.502        0.084       91.469       10.599        0.013      345.405       22.912      863.373
07/14/2014  03:39:00      -55.433      -22.285       -1.495       41.480       26.403       15.064     1720.559      697.106      226.914        0.311        0.132       59.745       18.404        0.095      345.337       22.796      863.383
07/14/2014  03:40:00      -75.019      -12.170       -2.041       42.875       20.269       16.954     1838.270      410.850      287.445        0.416        0.127       76.000       22.412        0.087      345.312       22.754      863.379
07/14/2014  03:41:00      -98.237      -14.212       -4.815       44.240       23.034       14.613     1957.207      530.558      213.548        0.629        0.135       99.260       14.828        0.022      345.360       22.835      863.378
07/14/2014  03:42:00     -148.071        4.837      -11.510       42.092       27.843       23.167     1771.709      775.247      536.702        1.258        0.154      148.150       19.678        0.018      345.378       22.866      863.392
07/14/2014  03:43:00     -118.134       43.149      -18.926       45.488       30.072       22.979     2069.194      904.328      528.020        0.984        0.175      125.767       17.224        0.019      345.454       22.995      863.389
07/14/2014  03:44:00     -174.958       79.360      -11.130       61.517       27.378       26.323     3784.317      749.569      692.913        2.113        0.261      192.115       17.744        0.009      345.391       22.884      863.382
07/14/2014  03:45:00     -100.806       69.243       -4.326       50.914       42.924       32.026     2592.281     1842.465     1025.657        1.022        0.273      122.297       24.657        0.041      345.402       22.906      863.383
07/14/2014  03:46:00     -131.029       48.720      -13.310       54.699       33.907       25.095     2992.019     1149.693      629.748        1.224        0.239      139.794       23.666        0.029      345.594       23.235      863.377
07/14/2014  03:47:00     -148.276       57.912      -16.095       49.380       36.621       30.528     2438.414     1341.108      931.931        1.515        0.236      159.184       26.046        0.027      345.797       23.585      863.365
07/14/2014  03:48:00     -169.543       -0.833      -22.813       43.290       31.891       23.745     1874.048     1017.051      563.837        1.636        0.173      169.545       22.977        0.018      345.668       23.363      863.373
07/14/2014  03:49:00     -150.943      -16.788      -15.182       41.320       30.995       17.638     1707.345      960.694      311.095        1.314        0.149      151.873       16.842        0.012      345.461       23.008      863.365
07/14/2014  03:50:00     -178.843       37.597      -23.517       46.435       28.561       21.428     2156.185      815.703      459.172        1.869        0.172      182.752       11.069        0.004      345.712       23.438      863.371
07/14/2014  03:51:00     -167.231       38.038      -15.305       39.303       31.520       28.425     1544.725      993.527      807.996        1.650        0.167      171.503       23.095        0.018      345.676       23.377      863.380
07/14/2014  03:52:00     -170.523       39.475      -25.355       38.081       31.604       20.651     1450.197      998.828      426.458        1.708        0.144      175.032       12.361        0.005      345.568       23.191      863.383
07/14/2014  03:53:00     -198.427       56.363      -18.094       43.802       31.273       27.081     1918.644      977.990      733.376        2.325        0.182      206.277       18.188        0.008      345.578       23.205      863.391
07/14/2014  03:54:00     -219.423       62.472      -18.781       41.477       34.880       28.296     1720.311     1216.615      800.678        2.807        0.187      228.143       13.908        0.004      345.560       23.171      863.402
07/14/2014  03:55:00     -174.242       41.192      -23.599       41.692       43.628       29.982     1738.224     1903.377      898.912        1.858        0.227      179.044       24.518        0.019      345.424       22.943      863.398
07/14/2014  03:56:00     -179.532       75.188      -15.281       49.640       35.435       28.164     2464.118     1255.611      793.221        2.131        0.226      194.640       20.091        0.011      345.625       23.287      863.402
07/14/2014  03:57:00     -129.357       18.720      -12.195       47.473       54.207       29.186     2253.669     2938.370      851.828        1.164        0.302      130.704       25.411        0.038      345.738       23.483      863.412
07/14/2014  03:58:00     -136.595       -7.211       -9.339       32.544       37.375       24.900     1059.080     1396.854      620.014        1.094        0.154      136.785       17.466        0.016      345.660       23.349      863.412
07/14/2014  03:59:00      -68.113        9.431        4.024       56.676       32.984       22.092     3212.190     1087.921      488.055        0.477        0.239       68.763       22.785        0.110      345.583       23.216      863.427
07/14/2014  04:00:00      -97.274      -24.375       -9.682       44.280       29.949       18.259     1960.734      896.922      333.399        0.667        0.160      100.282       21.000        0.044      345.500       23.074      863.427
07/14/2014  04:01:00     -117.718      -11.623      -12.382       27.678       29.270       15.967      766.050      856.706      254.954        0.801        0.094      118.290       11.850        0.010      345.472       23.025      863.434
07/14/2014  04:02:00     -114.647       -5.346       -8.070       42.094       44.102       20.684     1771.914     1944.996      427.829        0.869        0.207      114.771       18.975        0.027      345.475       23.030      863.431
07/14/2014  04:03:00     -143.635       35.509      -14.390       37.798       24.244       15.026     1428.694      587.765      225.789        1.217        0.112      147.959       10.567        0.005      345.615       23.272      863.425
07/14/2014  04:04:00     -122.784       42.573      -14.856       49.164       27.830       23.447     2417.138      774.524      549.783        1.042        0.187      129.955       14.323        0.012      345.608       23.259      863.431
07/14/2014  04:05:00      -71.357       63.170       -4.503       47.034       47.376       27.882     2212.204     2244.442      777.393        0.717        0.262       95.301       30.450        0.102      345.766       23.531      863.422
07/14/2014  04:06:00     -106.666       67.117      -17.600       51.249       42.805       27.748     2626.461     1832.276      769.971        1.071        0.261      126.025       30.647        0.059      346.003       23.936      863.428
07/14/2014  04:07:00      -91.620       -4.633      -11.782       39.320       41.156       23.563     1546.071     1693.786      555.227        0.617        0.190       91.737       18.533        0.041      345.655       23.341      863.426
07/14/2014  04:08:00     -177.778      -47.154      -13.515       50.988       22.833       16.509     2599.811      521.326      272.556        1.870        0.170      183.926       14.853        0.007      345.325       22.774      863.424
07/14/2014  04:09:00     -149.340        6.729       -4.725       49.942       37.731       23.314     2494.168     1423.638      543.526        1.341        0.223      149.492       24.089        0.026      345.262       22.666      863.434
07/14/2014  04:10:00     -141.153       55.464      -10.250       42.923       26.084       21.949     1842.367      680.359      481.766        1.305        0.150      151.659       21.750        0.021      345.208       22.573      863.433
07/14/2014  04:11:00     -171.295       51.771      -16.821       37.732       31.167       15.288     1423.697      971.408      233.729        1.747        0.131      178.948       12.799        0.005      345.408       22.917      863.434
07/14/2014  04:12:00     -162.574       51.507      -18.329       42.684       27.181       25.997     1821.932      738.781      675.858        1.633        0.162      170.539       20.303        0.014      345.379       22.867      863.440
07/14/2014  04:13:00     -175.238       -6.830      -26.289       28.635       32.529       20.949      819.950     1058.139      438.876        1.688        0.116      175.371       10.415        0.004      345.381       22.870      863.433
07/14/2014  04:14:00     -158.703      -39.807      -22.376       42.728       28.380       24.724     1825.684      805.452      611.256        1.526        0.162      163.619       14.499        0.008      345.150       22.474      863.432
07/14/2014  04:15:00     -163.129      -11.536      -20.929       32.640       43.439       18.360     1065.350     1886.957      337.092        1.524        0.164      163.536       11.163        0.005      344.999       22.216      863.450
07/14/2014  04:16:00     -101.841      -24.310       -7.742       28.734       36.611       18.965      825.641     1340.366      359.671        0.677        0.126      104.702       10.905        0.011      345.045       22.296      863.452
07/14/2014  04:17:00     -114.920        5.820      -18.986       38.609       36.017       21.339     1490.622     1297.230      455.343        0.842        0.162      115.068       13.435        0.014      345.116       22.416      863.462
07/14/2014  04:18:00     -113.216       10.229      -11.541       28.063       41.068       23.692      787.537     1686.582      561.322        0.804        0.152      113.677       16.908        0.022      345.141       22.459      863.480
07/14/2014  04:19:00      -96.101        2.235       -6.445       29.022       27.957       18.193      842.284      781.570      330.979        0.562        0.098       96.127       16.085        0.028      345.187       22.539      863.481
07/14/2014  04:20:00      -68.981       -1.781       -4.782       33.133       26.786       17.210     1097.784      717.505      296.183        0.345        0.106       69.004       10.672        0.024      345.343       22.805      863.494
07/14/2014  04:21:00     -118.094      -41.188       -3.323       16.287       18.442       11.896      265.261      340.094      141.521        0.820        0.037      125.070        8.612        0.005      345.055       22.314      863.486
07/14/2014  04:22:00      -98.158      -28.269      -13.341       18.780       15.525       12.591      352.702      241.022      158.533        0.568        0.038      102.147        7.975        0.006      345.040       22.288      863.479
07/14/2014  04:23:00      -62.242      -11.695       -3.403       25.838       19.809       12.167      667.596      392.384      148.033        0.261        0.060       63.331       10.351        0.027      344.977       22.179      863.477
07/14/2014  04:24:00     -111.859      -33.212       -7.492       29.781       24.413       18.225      886.906      595.983      332.163        0.774        0.091      116.685       17.018        0.021      344.988       22.198      863.472
07/14/2014  04:25:00     -108.267      -62.481       -3.622       26.145       20.732       15.409      683.567      429.823      237.432        0.849        0.068      125.003       12.754        0.010      345.075       22.350      863.466
07/14/2014  04:26:00     -130.713      -71.855       -5.348       38.826       19.372       16.050     1507.463      375.270      257.608        1.221        0.107      149.161       11.469        0.006      345.099       22.388      863.474
07/14/2014  04:27:00     -135.565      -61.842        0.177       29.799       29.342       19.071      887.998      860.974      363.698        1.216        0.106      149.005       13.981        0.009      345.121       22.424      863.462
07/14/2014  04:28:00     -105.579      -37.923        8.442       44.815       32.335       17.635     2008.379     1045.564      311.002        0.801        0.168      112.184       20.098        0.032      345.086       22.365      863.461
07/14/2014  04:29:00     -103.844      -67.670       -0.019       50.228       40.244       24.442     2522.855     1619.551      597.402        1.005        0.237      123.947       28.341        0.052      345.014       22.243      863.473
07/14/2014  04:30:00      -88.791      -75.815        5.358       50.985       37.741       23.584     2599.488     1424.414      556.192        0.912        0.229      116.755       23.832        0.042      345.028       22.266      863.478
07/14/2014  04:31:00     -104.563      -76.016        3.811       37.542       34.234       26.435     1409.408     1171.974      698.818        1.000        0.164      129.274       22.854        0.031      345.023       22.259      863.485
07/14/2014  04:32:00     -105.336      -62.506       -3.763       31.242       26.774       21.704      976.033      716.841      471.064        0.859        0.108      122.486       16.265        0.018      344.954       22.141      863.491
07/14/2014  04:33:00     -109.351      -38.952       -7.252       28.367       23.620       14.402      804.708      557.905      207.418        0.755        0.079      116.082       12.475        0.012      344.811       21.895      863.498
07/14/2014  04:34:00     -140.828      -47.831       -1.673       40.857       33.378       19.251     1669.294     1114.113      370.614        1.264        0.158      148.729       16.006        0.012      344.821       21.912      863.490
07/14/2014  04:35:00     -111.617      -42.215        3.036       41.859       31.644       23.261     1752.139     1001.343      541.063        0.877        0.165      119.333       20.925        0.031      344.780       21.842      863.492
07/14/2014  04:36:00     -138.908      -34.047       -3.091       38.561       27.456       21.069     1486.940      753.819      443.893        1.157        0.134      143.019       19.536        0.019      344.807       21.890      863.492
07/14/2014  04:37:00     -142.153      -51.045        1.593       44.041       37.970       21.961     1939.594     1441.696      482.273        1.334        0.193      151.040       23.122        0.023      344.801       21.876      863.486
07/14/2014  04:38:00     -129.933      -63.648        3.414       39.819       35.440       24.276     1585.567     1255.974      589.321        1.219        0.172      144.684       22.330        0.024      344.726       21.750      863.473
07/14/2014  04:39:00      -91.422      -57.967        1.163       43.458       30.603       21.106     1888.600      936.546      445.459        0.749        0.164      108.251       22.232        0.042      344.796       21.870      863.462
07/14/2014  04:40:00     -111.106      -35.250        0.654       20.197       22.189       16.787      407.920      492.357      281.819        0.738        0.059      116.564       14.214        0.015      344.752       21.794      863.448
07/14/2014  04:41:00     -122.634      -34.519       -2.399       33.167       26.465       17.273     1100.026      700.417      298.370        0.917        0.105      127.400       17.183        0.018      344.706       21.715      863.426
07/14/2014  04:42:00     -131.521      -54.909        2.081       36.149       22.192       17.495     1306.762      492.489      306.060        1.121        0.105      142.523       18.899        0.018      344.613       21.555      863.430
07/14/2014  04:43:00      -77.541      -56.284        5.878       50.490       32.645       21.172     2549.199     1065.707      448.273        0.664        0.203       95.815       21.933        0.052      344.598       21.531      863.431
07/14/2014  04:44:00      -95.740      -73.411        4.518       31.476       30.397       20.752      990.746      923.976      430.633        0.846        0.117      120.646       15.143        0.016      344.651       21.622      863.427
07/14/2014  04:45:00     -113.485      -64.291       -3.254       35.218       24.983       14.583     1240.283      624.127      212.653        0.955        0.104      130.431       12.549        0.009      344.670       21.653      863.433
07/14/2014  04:46:00      -73.861      -64.954        6.612       39.264       33.736       20.796     1541.658     1138.130      432.458        0.641        0.156       98.359       18.809        0.037      344.660       21.636      863.442
07/14/2014  04:47:00     -128.095      -45.771       -2.815       22.070       22.191       15.418      487.066      492.460      237.706        0.986        0.061      136.027       10.348        0.006      344.694       21.695      863.455
07/14/2014  04:48:00      -98.434      -40.428        6.034       18.293       18.396       14.539      334.640      338.399      211.395        0.612        0.044      106.413        9.176        0.007      344.645       21.612      863.460
07/14/2014  04:49:00     -121.641      -27.352       -4.847       30.312       24.274       16.635      918.824      589.204      276.712        0.868        0.089      124.678       12.602        0.010      344.600       21.535      863.473
07/14/2014  04:50:00      -96.616      -20.276       -0.875       21.324       23.560       13.586      454.694      555.051      184.591        0.547        0.060       98.721       11.400        0.013      344.586       21.510      863.486
07/14/2014  04:51:00      -98.415      -52.149      -10.576       20.492       20.816       11.316      419.941      433.307      128.042        0.675        0.049      111.378       11.108        0.010      344.636       21.596      863.486
07/14/2014  04:52:00      -77.945      -65.358       -2.340       44.857       22.754       19.530     2012.107      517.737      381.427        0.663        0.146      101.721        8.061        0.006      344.619       21.568      863.483
07/14/2014  04:53:00      -50.021      -51.761        3.728       43.769       26.629       18.899     1915.724      709.130      357.159        0.409        0.149       71.981       20.072        0.078      344.621       21.569      863.480
07/14/2014  04:54:00      -77.275      -73.641       -1.426       41.109       29.198       26.088     1689.909      852.551      680.588        0.731        0.161      106.744       21.628        0.041      344.641       21.602      863.484
07/14/2014  04:55:00     -102.957      -58.502       -2.062       23.646       20.422       15.654      559.149      417.078      245.062        0.762        0.061      118.417       11.921        0.010      344.688       21.683      863.480
07/14/2014  04:56:00     -110.245      -60.224       -2.166       26.856       21.064       15.529      721.224      443.689      241.165        0.860        0.070      125.622       15.098        0.014      344.678       21.668      863.462
07/14/2014  04:57:00      -85.130      -55.695       -0.313       37.252       26.539       19.459     1387.728      704.331      378.671        0.641        0.124      101.731       14.646        0.021      344.652       21.622      863.456
07/14/2014  04:58:00      -48.979      -40.649        7.299       51.171       37.029       24.549     2618.481     1371.141      602.669        0.435        0.230       63.650       24.258        0.145      344.608       21.548      863.454
07/14/2014  04:59:00      -84.849      -63.890        4.350       46.454       27.021       24.255     2157.981      730.158      588.292        0.739        0.174      106.213       16.082        0.023      344.589       21.514      863.444
07/14/2014  05:00:00      -92.498      -90.489       -1.359       48.165       32.684       24.692     2319.867     1068.229      609.677        1.037        0.200      129.399       17.064        0.017      344.593       21.521      863.435
07/14/2014  05:01:00     -102.527      -61.858        8.188       54.717       29.868       28.479     2993.964      892.100      811.050        0.955        0.235      119.742       31.922        0.071      344.546       21.442      863.437
07/14/2014  05:02:00     -102.682      -56.806       -0.040       48.315       34.422       24.784     2334.293     1184.903      614.251        0.895        0.207      117.348       21.034        0.032      344.605       21.543      863.435
07/14/2014  05:03:00     -119.021      -66.301       -6.820       27.132       32.901       17.001      736.138     1082.462      289.050        1.036        0.105      136.241       14.173        0.011      344.614       21.559      863.426
07/14/2014  05:04:00     -119.679      -52.966       -9.644       54.938       38.897       19.337     3018.163     1512.957      373.936        1.106        0.245      130.876       15.067        0.013      344.534       21.421      863.427
07/14/2014  05:05:00     -140.034      -60.187       -2.789       41.462       34.789       23.325     1719.120     1210.250      544.068        1.336        0.174      152.421       22.119        0.021      344.431       21.245      863.424
07/14/2014  05:06:00     -139.224      -60.207        3.842       52.249       35.968       23.618     2729.942     1293.719      557.796        1.380        0.229      151.684       25.060        0.027      344.393       21.179      863.411
07/14/2014  05:07:00     -156.162      -68.379       -2.420       34.424       39.347       23.778     1185.044     1548.214      565.413        1.618        0.165      170.477       18.902        0.012      344.478       21.324      863.401
07/14/2014  05:08:00     -136.430      -79.578       -4.167       42.110       33.026       24.760     1773.234     1090.707      613.062        1.422        0.174      157.942       24.773        0.025      344.432       21.247      863.400
07/14/2014  05:09:00     -149.439      -24.161      -11.981       33.896       34.271       16.860     1148.946     1174.496      284.249        1.283        0.130      151.379       18.579        0.015      344.407       21.204      863.399
07/14/2014  05:10:00     -117.505      -60.765       -5.179       47.841       43.646       28.136     2288.772     1905.000      791.629        1.126        0.249      132.287       25.804        0.038      344.445       21.267      863.372
07/14/2014  05:11:00      -80.132      -58.445        2.814       53.185       39.819       25.456     2828.646     1585.579      647.991        0.745        0.253       99.182       21.433        0.047      344.438       21.257      863.354
07/14/2014  05:12:00     -135.516      -73.194       -0.863       44.604       35.960       25.744     1989.479     1293.107      662.758        1.383        0.197      154.019       21.443        0.019      344.496       21.357      863.346
07/14/2014  05:13:00     -112.885      -77.217       -0.874       62.366       33.651       26.701     3889.521     1132.365      712.921        1.222        0.287      136.768       27.445        0.040      344.524       21.403      863.331
07/14/2014  05:14:00     -138.131      -88.549      -10.496       32.139       31.629       23.100     1032.944     1000.414      533.595        1.480        0.128      164.077       18.827        0.013      344.529       21.411      863.329
07/14/2014  05:15:00     -131.100      -70.417       -5.497       37.380       23.061       20.562     1397.231      531.798      422.784        1.226        0.118      148.814       18.484        0.015      344.557       21.459      863.326
07/14/2014  05:16:00     -140.832      -48.882      -17.207       27.613       24.953       18.517      762.495      622.635      342.894        1.212        0.086      149.074        8.327        0.003      344.557       21.461      863.308
07/14/2014  05:17:00     -114.321      -47.932      -14.559       29.204       30.967       14.340      852.854      958.948      205.638        0.880        0.101      123.963        9.396        0.006      344.565       21.474      863.287
07/14/2014  05:18:00     -110.329      -44.516      -14.420       32.645       30.179       14.629     1065.686      910.764      214.003        0.828        0.110      118.971       10.220        0.007      344.593       21.522      863.278
07/14/2014  05:19:00     -111.399      -39.215       -2.884       32.040       23.890       18.465     1026.589      570.744      340.964        0.795        0.097      118.099       17.921        0.023      344.602       21.539      863.271
07/14/2014  05:20:00     -136.309      -47.328      -11.243       31.236       29.968       16.987      975.689      898.068      288.547        1.155        0.108      144.292       12.216        0.007      344.539       21.429      863.272
07/14/2014  05:21:00     -163.424      -72.788       -6.215       29.314       27.714       23.544      859.301      768.093      554.340        1.711        0.109      178.901       19.940        0.012      344.539       21.431      863.283
07/14/2014  05:22:00     -133.218      -69.704        0.244       49.226       33.578       23.977     2423.220     1127.475      574.873        1.336        0.206      150.351       21.828        0.021      344.531       21.417      863.299
07/14/2014  05:23:00     -105.030      -80.256        4.870       40.768       35.061       23.765     1662.047     1229.260      564.767        1.048        0.173      132.183       22.825        0.030      344.615       21.560      863.295
07/14/2014  05:24:00     -154.324      -42.508       -8.350       21.659       23.392       14.981      469.094      547.198      224.424        1.347        0.062      160.072        9.927        0.004      344.711       21.722      863.299
07/14/2014  05:25:00     -115.886      -38.233       -9.565       19.862       17.192       16.723      394.512      295.560      279.646        0.798        0.048      122.030        3.345        0.001      344.635       21.594      863.308
07/14/2014  05:26:00      -87.283      -29.864       -1.090       35.743       21.851       14.927     1277.579      477.467      222.811        0.524        0.099       92.250       15.644        0.029      344.594       21.524      863.304
07/14/2014  05:27:00     -111.784      -45.137        3.303       34.760       26.445       18.046     1208.241      699.334      325.674        0.839        0.112      120.553       15.613        0.017      344.574       21.490      863.296
07/14/2014  05:28:00     -113.023      -42.392        0.353       48.202       28.805       21.404     2323.433      829.745      458.141        0.909        0.181      120.711       22.382        0.034      344.583       21.506      863.302
07/14/2014  05:29:00     -118.872      -37.604       -0.514       45.092       25.281       19.667     2033.311      639.113      386.774        0.930        0.153      124.678       20.200        0.026      344.590       21.518      863.301
07/14/2014  05:30:00     -136.019      -46.224       -5.868       23.793       25.003       17.567      566.118      625.156      308.611        1.109        0.075      143.659       12.695        0.008      344.525       21.406      863.292
07/14/2014  05:31:00     -128.624      -39.267      -12.719       18.970       20.953       13.923      359.858      439.038      193.850        0.962        0.050      134.484        4.752        0.001      344.460       21.295      863.272
07/14/2014  05:32:00     -120.371      -29.605       -9.238       27.342       20.008       15.673      747.589      400.333      245.638        0.842        0.070      123.958       14.671        0.014      344.439       21.258      863.259
07/14/2014  05:33:00     -124.934      -47.277      -15.762       30.456       20.080       18.206      927.575      403.226      331.475        0.988        0.083      133.580       16.151        0.015      344.374       21.147      863.246
07/14/2014  05:34:00     -136.919      -57.616       -2.634       20.726       24.730       13.843      429.569      611.562      191.619        1.165        0.062      148.548        9.485        0.004      344.315       21.047      863.224
07/14/2014  05:35:00     -123.968      -38.942       -4.956       27.198       34.958       14.034      739.734     1222.038      196.952        0.953        0.108      129.940       13.458        0.011      344.239       20.917      863.205
07/14/2014  05:36:00     -121.734        1.231      -10.111       32.686       28.937       17.030     1068.372      837.337      290.015        0.856        0.110      121.741       17.602        0.021      344.231       20.904      863.194
07/14/2014  05:37:00     -142.193      -12.396      -10.951       29.286       24.241       21.365      857.645      587.628      456.470        1.120        0.095      142.732       20.080        0.020      344.192       20.835      863.209
07/14/2014  05:38:00      -96.638      -14.315       -8.137       23.393       21.691       18.416      547.218      470.506      339.159        0.548        0.068       97.693       12.206        0.016      344.234       20.909      863.217
07/14/2014  05:39:00      -96.511      -53.430       -9.366       20.732       23.780       13.021      429.819      565.474      169.538        0.671        0.058      110.313        9.003        0.007      344.303       21.027      863.216
07/14/2014  05:40:00      -98.129      -44.266       -5.502       19.027       21.137       14.082      362.036      446.785      198.311        0.631        0.050      107.651       13.706        0.016      344.324       21.062      863.234
07/14/2014  05:41:00      -75.462      -70.238       -5.997       26.737       25.311       18.882      714.852      640.638      356.532        0.619        0.086      103.092       13.803        0.018      344.397       21.186      863.269
07/14/2014  05:42:00      -20.639      -30.596       10.941       33.322       25.407       18.328     1110.344      645.502      335.909        0.179        0.105       36.907       19.122        0.268      344.451       21.280      863.300
07/14/2014  05:43:00      -31.729      -57.560        1.842       29.997       34.068       14.237      899.795     1160.612      202.687        0.329        0.113       65.726       15.854        0.058      344.496       21.355      863.318
07/14/2014  05:44:00      -22.390      -49.573       -6.703       24.268       39.953       16.466      588.936     1596.222      271.136        0.273        0.123       54.395       15.756        0.084      344.491       21.350      863.326
07/14/2014  05:45:00      -38.530      -64.661        5.635       43.683       35.872       31.758     1908.166     1286.772     1008.591        0.495        0.210       75.270       21.907        0.085      344.326       21.066      863.335
07/14/2014  05:46:00      -83.099     -113.922       -0.892       49.855       45.054       24.059     2485.544     2029.833      578.858        1.249        0.255      141.009       27.417        0.038      344.263       20.959      863.348
07/14/2014  05:47:00      -93.859      -99.063      -10.452       42.358       38.466       22.943     1794.209     1479.665      526.368        1.127        0.190      136.466       16.938        0.015      344.239       20.919      863.355
07/14/2014  05:48:00     -119.064     -113.867       -3.702       40.583       50.745       25.140     1646.971     2575.030      632.003        1.600        0.243      164.749       17.817        0.012      344.261       20.955      863.355
07/14/2014  05:49:00     -139.485      -83.117       -0.331       49.568       43.268       30.287     2456.964     1872.138      917.312        1.580        0.262      162.371       28.286        0.030      344.264       20.957      863.357
07/14/2014  05:50:00     -121.432      -66.172        1.189       42.472       30.455       20.459     1803.893      927.490      418.587        1.114        0.157      138.291       15.542        0.013      344.298       21.017      863.352
07/14/2014  05:51:00      -97.491      -44.140        2.514       45.117       30.295       21.450     2035.518      917.780      460.112        0.744        0.171      107.018       24.200        0.051      344.246       20.929      863.351
07/14/2014  05:52:00      -70.756      -55.556        7.224       51.473       31.746       26.938     2649.424     1007.820      725.664        0.626        0.219       89.960       30.755        0.117      344.304       21.029      863.348
07/14/2014  05:53:00      -58.271      -65.918       -3.949       35.341       27.799       20.358     1249.012      772.787      414.448        0.510        0.122       87.981       20.153        0.052      344.344       21.095      863.341
07/14/2014  05:54:00     -131.646      -81.142      -10.142       29.795       28.665       19.140      887.717      821.657      366.338        1.305        0.104      154.644       12.074        0.006      344.348       21.102      863.336
07/14/2014  05:55:00     -112.625      -55.568      -17.679       31.455       28.190       17.205      989.404      794.684      296.018        0.908        0.104      125.587        6.603        0.003      344.343       21.095      863.333
07/14/2014  05:56:00      -29.098      -47.849       -2.025       32.578       21.988       15.685     1061.303      483.458      246.011        0.247        0.090       56.002       14.637        0.068      344.347       21.102      863.341
07/14/2014  05:57:00       -9.390      -35.574       -0.738       31.208       14.760       14.226      973.968      217.844      202.380        0.137        0.070       36.792       14.122        0.147      344.400       21.191      863.343
07/14/2014  05:58:00      -27.960      -18.268        3.040       29.390       21.359       12.773      863.770      456.219      163.162        0.130        0.074       33.399       15.283        0.209      344.334       21.078      863.335
07/14/2014  05:59:00      -20.617        1.860        4.099       17.299       13.655        9.099      299.267      186.462       82.799        0.051        0.028       20.701        9.523        0.212      344.251       20.939      863.335
07/14/2014  06:00:00      -59.280       20.520      -11.442       11.636       12.017        8.719      135.393      144.420       76.024        0.221        0.018       62.731        3.903        0.004      344.115       20.706      863.335
07/14/2014  06:01:00      -71.556        0.573       -8.151       35.285       20.359       12.360     1245.045      414.504      152.774        0.350        0.091       71.558        7.548        0.011      344.128       20.726      863.333
07/14/2014  06:02:00      -75.511      -21.297       -3.943       28.141       14.770       15.021      791.925      218.142      225.638        0.370        0.062       78.457       13.376        0.029      344.079       20.643      863.338
07/14/2014  06:03:00      -72.717      -57.436       -6.911       26.693       18.427       13.927      712.529      339.565      193.958        0.494        0.062       92.664       12.452        0.018      344.109       20.696      863.355
07/14/2014  06:04:00      -60.297      -49.900       -0.869       39.326       26.534       20.404     1546.555      704.061      416.315        0.440        0.133       78.267       22.151        0.080      344.157       20.776      863.377
07/14/2014  06:05:00      -48.331      -89.142       -2.675       29.087       42.231       20.510      846.057     1783.422      420.662        0.667        0.153      101.401       23.726        0.055      344.211       20.871      863.399
07/14/2014  06:06:00      -69.372     -113.979       -3.421       26.410       32.877       17.810      697.493     1080.914      317.187        0.996        0.105      133.430       16.328        0.015      344.290       21.004      863.403
07/14/2014  06:07:00      -52.158      -64.360       -6.990       46.889       44.540       16.486     2198.542     1983.805      271.796        0.568        0.223       82.842       19.869        0.058      344.250       20.933      863.408
07/14/2014  06:08:00      -11.026      -46.130        6.406       30.865       29.762       28.160      952.630      885.747      792.994        0.246        0.132       47.430       19.511        0.169      344.304       21.027      863.428
07/14/2014  06:09:00      -42.167      -85.385        8.046       38.949       37.087       20.124     1517.035     1375.418      404.986        0.621        0.165       95.229       20.821        0.048      344.282       20.990      863.446
07/14/2014  06:10:00      -99.679      -89.628       -4.887       60.575       47.985       29.570     3669.305     2302.552      874.381        1.242        0.342      134.049       32.339        0.058      344.234       20.908      863.466
07/14/2014  06:11:00      -87.793     -112.843       -3.157       42.658       44.043       28.855     1819.696     1939.784      832.608        1.252        0.230      142.972       21.345        0.022      344.168       20.794      863.477
07/14/2014  06:12:00      -80.955      -95.010       -2.643       54.703       46.595       31.070     2992.438     2171.063      965.314        1.086        0.306      124.823       26.720        0.046      344.182       20.819      863.489
07/14/2014  06:13:00      -93.670      -92.565       -3.572       57.205       45.428       33.988     3272.418     2063.690     1155.189        1.192        0.325      131.691       23.949        0.033      344.145       20.755      863.492
07/14/2014  06:14:00      -15.931      -69.939        4.813       39.473       53.568       30.229     1558.147     2869.488      913.781        0.525        0.267       71.730       28.501        0.158      344.202       20.853      863.496
07/14/2014  06:15:00      -41.509     -114.720       16.380       45.579       56.082       40.809     2077.413     3145.244     1665.397        1.102        0.344      121.999       36.276        0.088      344.226       20.895      863.503
07/14/2014  06:16:00      -68.424     -135.388       -4.072       45.681       44.233       31.574     2086.784     1956.586      996.916        1.403        0.252      151.696       24.676        0.026      344.297       21.016      863.507
07/14/2014  06:17:00      -49.034     -119.272      -10.804       42.742       63.013       27.855     1826.879     3970.652      775.884        1.166        0.329      128.958       23.005        0.032      344.307       21.033      863.517
07/14/2014  06:18:00       -7.742      -62.494       12.697       34.240       29.772       23.141     1172.348      886.351      535.492        0.336        0.130       62.972       19.680        0.098      344.386       21.167      863.529
07/14/2014  06:19:00      -60.761      -52.950       -0.927       29.137       34.872       22.229      848.943     1216.034      494.107        0.453        0.128       80.595       19.836        0.061      344.283       20.992      863.533
07/14/2014  06:20:00      -46.170      -51.267       12.749       43.252       36.696       22.232     1870.712     1346.599      494.250        0.432        0.186       68.992       26.342        0.146      344.338       21.086      863.534
07/14/2014  06:21:00      -92.380      -40.939       -2.611       24.811       23.608       17.056      615.565      557.346      290.922        0.584        0.073      101.045        7.092        0.005      344.306       21.031      863.528
07/14/2014  06:22:00      -98.429      -21.534       -5.028       39.618       30.210       20.137     1569.583      912.662      405.508        0.653        0.144      100.757       20.934        0.043      344.304       21.027      863.519
07/14/2014  06:23:00     -128.321      -29.117       -4.290       35.662       27.981       26.827     1271.748      782.958      719.701        1.005        0.139      131.583       22.922        0.030      344.320       21.054      863.510
07/14/2014  06:24:00      -82.615      -65.069       -4.535       37.575       27.990       15.296     1411.862      783.427      233.976        0.675        0.121      105.162       13.412        0.016      344.330       21.071      863.507
07/14/2014  06:25:00      -53.694      -47.088        4.850       40.085       21.757       19.903     1606.797      473.370      396.127        0.380        0.124       71.417       21.579        0.091      344.332       21.075      863.503
07/14/2014  06:26:00      -88.932      -44.938        0.155       28.503       26.034       14.240      812.419      677.777      202.792        0.581        0.085       99.641       14.476        0.021      344.384       21.164      863.495
07/14/2014  06:27:00      -93.821      -26.780       -3.180       30.583       27.194       19.215      935.320      739.510      369.219        0.579        0.102       97.568       17.320        0.032      344.325       21.065      863.498
07/14/2014  06:28:00     -116.238      -59.984        2.446       43.752       35.059       17.362     1914.197     1229.159      301.433        1.028        0.172      130.803       17.193        0.017      344.321       21.056      863.499
07/14/2014  06:29:00     -128.169      -22.046        1.714       44.764       39.973       20.430     2003.808     1597.802      417.369        1.047        0.201      130.051       22.297        0.029      344.267       20.965      863.504
07/14/2014  06:30:00     -112.130      -21.565        0.629       28.873       44.116       17.142      833.643     1946.228      293.844        0.806        0.154      114.185       12.945        0.013      344.244       20.924      863.495
07/14/2014  06:31:00      -83.722       -7.311        5.132       55.374       29.523       24.860     3066.315      871.611      618.030        0.582        0.228       84.041       29.404        0.122      344.211       20.868      863.498
07/14/2014  06:32:00     -119.281        6.994       -8.598       63.115       32.298       28.826     3983.473     1043.168      830.964        1.010        0.293      119.486       33.802        0.080      344.064       20.618      863.507
07/14/2014  06:33:00     -149.603       -4.215      -11.130       38.770       36.804       29.106     1503.141     1354.560      847.150        1.311        0.185      149.663       25.685        0.029      344.048       20.589      863.518
07/14/2014  06:34:00     -108.675       -9.317        0.382       42.127       32.745       24.368     1774.700     1072.261      593.787        0.767        0.172      109.074       24.182        0.049      344.107       20.691      863.530
07/14/2014  06:35:00      -97.230      -15.687        3.256       47.062       33.474       19.889     2214.857     1120.530      395.581        0.672        0.187       98.487       18.810        0.036      344.095       20.671      863.543
07/14/2014  06:36:00      -41.661       -7.297        3.592       28.161       40.896       18.679      793.051     1672.445      348.896        0.231        0.141       42.295       16.717        0.156      344.160       20.781      863.553
07/14/2014  06:37:00      -75.456        3.811       -6.165       25.515       22.226       18.053      651.023      494.017      325.901        0.361        0.074       75.552       16.566        0.048      344.168       20.795      863.557
07/14/2014  06:38:00      -42.669      -25.321       -0.043       19.611       17.925       14.007      384.572      321.288      196.189        0.168        0.045       49.616        9.935        0.040      344.200       20.850      863.559
07/14/2014  06:39:00      -55.613       -3.139       -0.401       18.045       18.346       13.260      325.619      336.561      175.820        0.197        0.042       55.701       12.193        0.048      344.169       20.795      863.542
07/14/2014  06:40:00      -39.893      -18.563        2.794       16.988       12.384       10.936      288.599      153.357      119.592        0.125        0.028       44.001        9.659        0.048      344.190       20.832      863.526
07/14/2014  06:41:00      -16.759      -24.347       -0.996        8.996       10.925        7.824       80.925      119.351       61.214        0.057        0.013       29.557        4.995        0.029      344.267       20.965      863.512
07/14/2014  06:42:00      -31.342      -39.982        2.294       26.541       24.135       15.938      704.426      582.474      254.035        0.206        0.077       50.803       15.005        0.087      344.366       21.134      863.509
07/14/2014  06:43:00      -44.219      -34.194        7.968       31.781       19.331       18.986     1010.018      373.693      360.479        0.247        0.087       55.898       15.278        0.075      344.364       21.130      863.501
07/14/2014  06:44:00      -65.368      -62.319       -0.974       34.941       26.635       16.864     1220.898      709.438      284.379        0.519        0.111       90.314       21.213        0.055      344.388       21.172      863.506
07/14/2014  06:45:00      -68.232      -68.858      -11.393       19.756       19.725       14.583      390.299      389.059      212.663        0.526        0.050       96.938       13.815        0.020      344.395       21.184      863.516
07/14/2014  06:46:00      -57.692      -70.414        1.632       30.500       25.138       17.769      930.261      631.917      315.738        0.508        0.094       91.030       16.212        0.032      344.414       21.215      863.520
07/14/2014  06:47:00      -85.576      -73.374        0.555       28.023       30.617       20.645      785.297      937.427      426.220        0.743        0.107      112.725       18.770        0.028      344.442       21.262      863.524
07/14/2014  06:48:00      -62.544      -41.922        5.292       37.677       39.522       17.698     1419.544     1562.010      313.213        0.450        0.165       75.294       21.854        0.084      344.512       21.383      863.541
07/14/2014  06:49:00      -72.850      -50.282        4.033       34.303       33.494       21.109     1176.682     1121.834      445.570        0.530        0.137       88.518       18.530        0.044      344.537       21.427      863.554
07/14/2014  06:50:00      -27.983      -21.655       13.488       35.294       30.099       20.990     1245.689      905.970      440.599        0.201        0.130       35.383       21.344        0.364      344.822       21.914      863.560
07/14/2014  06:51:00      -62.502      -39.524        1.750       21.299       18.157       10.426      453.640      329.674      108.697        0.318        0.045       73.950        8.040        0.012      344.699       21.703      863.557
07/14/2014  06:52:00      -27.140        1.337        6.580       10.412       13.578       10.449      108.404      184.361      109.181        0.059        0.020       27.173        8.722        0.103      344.791       21.861      863.564
07/14/2014  06:53:00      -25.360       -1.856        1.570        7.861       12.006        4.749       61.798      144.142       22.553        0.044        0.011       25.428        3.581        0.020      344.676       21.665      863.558
07/14/2014  06:54:00      -41.595      -13.320        1.489       25.454        9.852        8.986      647.927       97.063       80.753        0.137        0.041       43.675        9.486        0.047      344.753       21.794      863.559
07/14/2014  06:55:00      -72.097      -23.331       -0.207       13.407       12.304        7.165      179.747      151.396       51.344        0.306        0.019       75.778        5.868        0.006      344.749       21.788      863.565
07/14/2014  06:56:00      -28.679      -19.679        5.634       26.974       15.556       12.675      727.601      241.996      160.653        0.119        0.057       34.781       16.702        0.231      344.990       22.201      863.557
07/14/2014  06:57:00      -42.350      -29.020       -1.833       17.713       16.128       10.159      313.740      260.107      103.207        0.166        0.034       51.339        5.196        0.010      344.802       21.878      863.549
07/14/2014  06:58:00      -35.493       -2.361       -0.097       11.216       18.051       11.326      125.795      325.841      128.281        0.092        0.029       35.571        7.169        0.041      344.927       22.094      863.546
07/14/2014  06:59:00      -58.743      -10.346       -4.634       11.944       12.758        7.797      142.660      162.756       60.796        0.197        0.018       59.648        5.763        0.009      344.833       21.930      863.533
07/14/2014  07:00:00      -32.362      -21.164        0.106       13.317       12.599        6.277      177.353      158.731       39.407        0.094        0.019       38.668        6.047        0.024      344.874       22.001      863.534
07/14/2014  07:01:00       -8.943      -30.648        6.400       12.902       16.503       12.961      166.451      272.335      167.981        0.083        0.030       31.926       11.883        0.139      345.070       22.338      863.523
07/14/2014  07:02:00      -41.315      -35.953       -2.363       17.289       21.888       11.669      298.922      479.105      136.171        0.196        0.046       54.768        7.216        0.017      344.974       22.172      863.535
07/14/2014  07:03:00      -16.760      -34.510        2.846       28.434       13.249       13.488      808.490      175.534      181.932        0.132        0.058       38.365       13.035        0.115      345.099       22.387      863.539
07/14/2014  07:04:00      -35.183      -29.489       -0.002       18.106       21.049       10.470      327.811      443.062      109.630        0.149        0.044       45.907        8.830        0.037      345.127       22.436      863.560
07/14/2014  07:05:00      -24.672      -32.346        6.239       21.339       24.278       15.557      455.361      589.433      242.034        0.149        0.064       40.682       10.420        0.066      345.234       22.620      863.565
07/14/2014  07:06:00      -31.063      -62.287        4.997       15.275       18.966       13.409      233.324      359.703      179.797        0.282        0.039       69.603       12.817        0.034      345.138       22.453      863.584
07/14/2014  07:07:00      -22.516      -64.836        8.016       23.025       32.150       14.406      530.166     1033.609      207.538        0.327        0.089       68.635       15.965        0.054      345.165       22.500      863.599
07/14/2014  07:08:00      -59.241      -89.447        1.196       29.823       34.236       26.407      889.385     1172.131      697.334        0.713        0.138      107.286       21.146        0.039      345.106       22.401      863.618
07/14/2014  07:09:00      -55.625      -41.888       -3.769       25.152       31.556       17.970      632.603      995.760      322.928        0.341        0.098       69.633       10.970        0.025      345.078       22.351      863.628
07/14/2014  07:10:00      -36.211      -23.719       -0.384       43.917       20.946       20.821     1928.681      438.715      433.494        0.234        0.140       43.288       20.975        0.235      345.215       22.586      863.640
07/14/2014  07:11:00      -33.981      -40.341       -1.008       27.991       28.805       20.398      783.520      829.720      416.087        0.241        0.101       52.745       16.811        0.102      345.135       22.450      863.648
07/14/2014  07:12:00      -40.591      -62.196        3.408       45.345       30.798       20.969     2056.135      948.533      439.694        0.449        0.172       74.270       23.117        0.097      345.126       22.434      863.667
07/14/2014  07:13:00      -27.709      -29.122        7.830       35.470       17.674       17.381     1258.145      312.382      302.093        0.177        0.094       40.198       17.133        0.182      345.335       22.792      863.667
07/14/2014  07:14:00      -49.572      -41.088       -2.030       39.705       24.753       20.512     1576.482      612.725      420.739        0.338        0.130       64.386       22.337        0.120      345.212       22.579      863.674
07/14/2014  07:15:00      -43.823      -57.969        2.507       25.754       23.755       16.487      663.250      564.323      271.822        0.339        0.075       72.670       16.508        0.052      345.243       22.636      863.689
07/14/2014  07:16:00      -30.924      -62.859        1.808       21.142       19.775       16.069      446.997      391.067      258.221        0.300        0.055       70.054       13.448        0.037      345.257       22.656      863.683
07/14/2014  07:17:00      -41.399      -58.949        2.130       18.099       35.419       12.609      327.574     1254.496      158.976        0.347        0.087       72.034       12.216        0.029      345.295       22.723      863.685
07/14/2014  07:18:00      -58.128      -40.557       -3.962       15.607       20.096       11.069      243.590      403.839      122.512        0.290        0.038       70.878       11.331        0.026      345.342       22.802      863.684
07/14/2014  07:19:00      -26.485      -39.444       11.143       25.077       17.918       15.900      628.851      321.058      252.803        0.179        0.060       47.511       14.138        0.089      345.388       22.883      863.683
07/14/2014  07:20:00      -39.316      -61.856       -1.093       27.696       19.831       16.545      767.085      393.249      273.730        0.340        0.072       73.293       16.795        0.053      345.493       23.063      863.695
07/14/2014  07:21:00      -17.681      -58.344        2.414       23.479       31.835       13.540      551.285     1013.496      183.330        0.273        0.087       60.964       14.160        0.054      345.474       23.032      863.698
07/14/2014  07:22:00      -21.251      -49.408        4.905       20.534       22.983       20.411      421.633      528.237      416.604        0.214        0.068       53.784       17.711        0.108      345.521       23.109      863.714
07/14/2014  07:23:00       -4.285      -44.239        4.407       29.224       21.018       15.552      854.048      441.742      241.872        0.177        0.077       44.446        8.055        0.033      345.583       23.218      863.726
07/14/2014  07:24:00       -5.538      -38.734        7.395       20.736       20.053       15.726      429.964      402.142      247.303        0.133        0.054       39.128        9.570        0.060      345.641       23.316      863.738
07/14/2014  07:25:00      -31.145      -65.579        6.669       13.468       12.985       12.697      181.381      168.623      161.212        0.291        0.026       72.599       10.520        0.021      345.514       23.097      863.759
07/14/2014  07:26:00      -34.636      -34.699       11.145       12.895       21.518       10.880      166.281      463.033      118.379        0.164        0.037       49.027        9.654        0.039      345.580       23.213      863.780
07/14/2014  07:27:00       -9.708        4.716       24.547       16.484       17.127       12.382      271.719      293.341      153.312        0.072        0.036       10.793        7.249        0.451      346.280       24.415      863.793
07/14/2014  07:28:00       -9.825       -4.028       25.185       14.971       24.009       15.567      224.133      576.441      242.345        0.089        0.052       10.618       13.436        1.601      346.347       24.529      863.801
07/14/2014  07:29:00        0.714        4.733       27.432       11.991       20.107       18.737      143.786      404.292      351.057        0.084        0.045        4.786       11.325        5.599      346.693       25.124      863.808
07/14/2014  07:30:00      -12.736       -9.959       33.105       15.387       18.147       10.731      236.748      329.310      115.146        0.102        0.034       16.168        4.464        0.076      346.416       24.649      863.812
07/14/2014  07:31:00      -33.938       -5.734       19.860       20.840       25.136       20.285      434.306      631.806      411.472        0.153        0.074       34.419       18.997        0.305      345.854       23.682      863.810
07/14/2014  07:32:00      -27.373       14.000       12.941       22.364       19.259       16.181      500.154      370.902      261.833        0.112        0.057       30.745       13.532        0.194      345.992       23.920      863.817
07/14/2014  07:33:00      -15.679      -21.106        7.148       17.745       26.951       16.303      314.890      726.379      265.774        0.102        0.065       26.293       14.213        0.292      346.032       23.988      863.817
07/14/2014  07:34:00       -6.304      -20.306       -4.360       18.855       17.189       11.058      355.516      295.470      122.276        0.062        0.039       21.263        7.219        0.115      345.717       23.448      863.824
07/14/2014  07:35:00      -42.082      -39.720       -6.650       14.903       18.490       12.777      222.100      341.895      163.262        0.206        0.036       57.866        6.672        0.013      345.646       23.325      863.832
07/14/2014  07:36:00      -34.347      -20.531       -5.756        9.770        9.501        8.245       95.448       90.274       67.987        0.094        0.013       40.016        5.759        0.021      345.677       23.377      863.846
07/14/2014  07:37:00      -16.948      -12.145        0.841       15.492       16.609       12.535      239.993      275.863      157.134        0.055        0.034       20.850        7.735        0.138      345.818       23.621      863.867
07/14/2014  07:38:00       -7.656        3.133       16.463       15.603       13.066       17.351      243.450      170.717      301.051        0.053        0.036        8.272       11.371        1.889      346.449       24.705      863.884
07/14/2014  07:39:00       20.717      -26.302       30.594       39.152       32.383       25.829     1532.880     1048.635      667.155        0.265        0.162       33.481       21.786        0.423      346.191       24.264      863.896
07/14/2014  07:40:00       -2.684      -11.594       43.667       15.654       32.828       20.172      245.057     1077.658      406.901        0.189        0.086       11.900       18.238        2.349      346.483       24.762      863.914
07/14/2014  07:41:00       -5.925      -43.880       -3.000       34.629       38.521       20.323     1199.184     1483.860      413.016        0.253        0.155       44.279       12.685        0.082      345.849       23.674      863.922
07/14/2014  07:42:00      -47.219       14.717        2.488       19.961       16.552       11.145      398.446      273.971      124.219        0.162        0.040       49.459       10.395        0.044      345.766       23.531      863.943
07/14/2014  07:43:00      -30.248      -10.931        8.163       26.583       29.065       18.157      706.642      844.762      329.672        0.149        0.094       32.163       17.014        0.280      346.083       24.076      863.953
07/14/2014  07:44:00      -69.775      -47.104        1.304       26.108       29.694       20.351      681.634      881.724      414.181        0.453        0.099       84.187       13.079        0.024      345.751       23.506      863.966
07/14/2014  07:45:00      -59.126      -53.005        3.532       27.642       21.932       14.901      764.106      481.029      222.048        0.389        0.073       79.407       16.301        0.042      345.841       23.661      863.976
07/14/2014  07:46:00      -43.649      -60.729        7.875       19.050       32.006       17.299      362.909     1024.362      299.249        0.367        0.084       74.788       15.144        0.041      345.869       23.706      863.978
07/14/2014  07:47:00      -37.667      -68.195       -0.764       20.434       17.160       13.004      417.557      294.467      169.116        0.348        0.044       77.906        8.730        0.013      345.807       23.601      863.990
07/14/2014  07:48:00      -24.690      -52.927        0.291       25.061       11.923       11.664      628.037      142.147      136.049        0.216        0.045       58.402       11.972        0.042      345.816       23.618      864.002
07/14/2014  07:49:00      -18.617      -19.102        1.563       16.836       17.999       13.642      283.451      323.972      186.098        0.075        0.040       26.673       11.667        0.191      346.127       24.151      864.009
07/14/2014  07:50:00      -25.819      -35.308       -0.961       26.303       21.719       15.649      691.856      471.704      244.901        0.166        0.070       43.741       14.632        0.112      346.004       23.941      864.018
07/14/2014  07:51:00      -54.394      -59.343       -0.009       27.630       27.627       15.786      763.409      763.243      249.213        0.413        0.089       80.501       15.079        0.035      345.966       23.875      864.031
07/14/2014  07:52:00      -28.099      -17.402        4.278       36.552       17.963       18.286     1336.079      322.674      334.369        0.155        0.100       33.051       14.548        0.194      346.196       24.271      864.049
07/14/2014  07:53:00      -26.752      -30.559        0.870       13.041       18.112        9.744      170.066      328.045       94.948        0.112        0.030       40.615        8.934        0.048      345.905       23.771      864.051
07/14/2014  07:54:00       -6.664       -3.541        5.923       21.081       18.523       14.170      444.396      343.108      200.801        0.054        0.049        7.546       11.574        2.352      346.412       24.643      864.055
07/14/2014  07:55:00      -22.532        0.479       19.382       29.674       16.600       18.351      880.543      275.555      336.766        0.119        0.075       22.537       18.933        0.706      346.991       25.639      864.046
07/14/2014  07:56:00      -66.709      -49.315        3.667       29.017       24.184       14.804      842.007      584.887      219.169        0.427        0.082       82.958       14.622        0.031      346.019       23.965      864.042
07/14/2014  07:57:00      -36.776      -60.799       11.097       47.705       38.645       27.044     2275.801     1493.441      731.352        0.484        0.225       71.057       29.941        0.178      346.234       24.336      864.028
07/14/2014  07:58:00     -100.817      -65.167       -7.565       25.001       24.870       14.633      625.035      618.538      214.114        0.796        0.073      120.045       12.455        0.011      345.961       23.867      864.011
07/14/2014  07:59:00      -82.720      -60.752        1.275       32.767       35.537       16.465     1073.657     1262.843      271.085        0.657        0.130      102.632       14.885        0.021      346.055       24.027      864.008
07/14/2014  08:00:00      -45.893      -34.236       -3.402       24.688       22.257        8.790      609.497      495.356       77.263        0.224        0.059       57.256        8.818        0.024      346.030       23.984      863.995
07/14/2014  08:01:00       -2.823        0.907       28.134       14.807       20.451       15.004      219.256      418.259      225.132        0.083        0.043        2.966       11.072       13.941      347.244       26.073      863.985
07/14/2014  08:02:00        6.700       32.646       17.628       11.412       18.956       19.350      130.229      359.319      374.418        0.114        0.043       33.326        9.098        0.075      346.624       25.006      863.974
07/14/2014  08:03:00        1.963       43.144       13.746       13.374       20.875       18.087      178.858      435.779      327.152        0.150        0.047       43.189       11.654        0.073      346.594       24.953      863.961
07/14/2014  08:04:00       -4.485       28.797       24.576       11.513       20.519       18.489      132.538      421.034      341.831        0.117        0.045       29.145       11.194        0.148      347.038       25.719      863.954
07/14/2014  08:05:00       -8.265       -6.661        1.900        6.775        7.352       13.409       45.902       54.056      179.811        0.020        0.014       10.615        5.050        0.226      346.647       25.045      863.948
07/14/2014  08:06:00        4.969      -13.365       -1.571       12.507       11.942       14.149      156.431      142.608      200.202        0.035        0.025       14.258       10.533        0.546      346.625       25.007      863.935
07/14/2014  08:07:00       -4.103      -16.670       -0.898       10.299       15.833       20.067      106.071      250.693      402.691        0.053        0.038       17.167       11.566        0.454      346.717       25.166      863.928
07/14/2014  08:08:00      -35.346       -0.081       -6.214       10.564        9.610        9.051      111.593       92.348       81.929        0.079        0.014       35.346        7.339        0.043      346.330       24.500      863.915
07/14/2014  08:09:00      -29.324       -8.215       -2.569       11.223        8.228        7.017      125.964       67.695       49.240        0.059        0.012       30.453        5.524        0.033      346.373       24.576      863.905
07/14/2014  08:10:00      -50.999       -1.120       -5.101       12.214       28.465       12.882      149.189      810.263      165.936        0.188        0.056       51.012       11.315        0.049      346.331       24.503      863.901
07/14/2014  08:11:00      -54.727       28.307       -1.507       11.530       14.497       12.328      132.947      210.155      151.979        0.215        0.025       61.615        3.468        0.003      346.315       24.475      863.899
07/14/2014  08:12:00      -28.944      -17.241       -3.147       19.645       31.728       16.165      385.927     1006.646      261.302        0.140        0.083       33.690       19.290        0.328      346.422       24.658      863.901
07/14/2014  08:13:00      -10.561      -44.126       16.108       16.232       22.127       11.859      263.481      489.623      140.626        0.161        0.045       45.372        8.982        0.039      346.675       25.094      863.915
07/14/2014  08:14:00        1.407       14.703       36.805       11.851       15.036       10.798      140.436      226.087      116.604        0.103        0.024       14.770        5.459        0.137      347.901       27.207      863.926
07/14/2014  08:15:00       -8.305       31.237       15.956       17.572       16.565       17.633      308.789      274.390      310.917        0.110        0.045       32.322        8.211        0.065      347.247       26.079      863.937
07/14/2014  08:16:00      -30.688       10.266       -2.404       10.055       15.663       15.940      101.103      245.333      254.080        0.083        0.030       32.359        5.919        0.033      346.703       25.142      863.947
07/14/2014  08:17:00      -14.950       63.776       -4.304       17.810       32.941       19.416      317.192     1085.091      376.976        0.304        0.089       65.505        8.216        0.016      346.827       25.354      863.950
07/14/2014  08:18:00        0.425       16.534       10.219       20.133       19.693       17.452      405.329      387.831      304.566        0.074        0.055       16.540        8.440        0.260      347.294       26.160      863.958
07/14/2014  08:19:00        7.945       58.631        4.372       19.791       39.998       21.545      391.668     1599.801      464.178        0.299        0.123       59.167       22.871        0.149      347.246       26.076      863.967
07/14/2014  08:20:00       36.058       47.515        3.514       21.182       32.340       25.237      448.686     1045.898      636.905        0.285        0.107       59.648       23.961        0.161      347.140       25.895      863.969
07/14/2014  08:21:00      -11.721       22.507       23.986       18.242       19.079       16.066      332.782      363.990      258.114        0.109        0.048       25.376        8.444        0.111      347.680       26.826      863.966
07/14/2014  08:22:00       -1.604       15.083       23.741       15.723       18.856       17.260      247.201      355.561      297.912        0.085        0.045       15.168       14.083        0.862      347.939       27.273      863.967
07/14/2014  08:23:00      -14.158       14.555       35.282       12.070       15.922       14.500      145.693      253.509      210.263        0.113        0.030       20.305        5.230        0.066      347.944       27.281      863.963
07/14/2014  08:24:00      -43.479        6.148        3.626       12.011       15.860       16.206      144.253      251.542      262.629        0.130        0.033       43.911       11.677        0.071      346.942       25.553      863.953
07/14/2014  08:25:00      -35.884       -8.727       -7.410       11.617       14.870       12.736      134.952      221.129      162.218        0.097        0.026       36.930       11.240        0.093      346.843       25.383      863.948
07/14/2014  08:26:00      -12.701       -2.915        5.580       15.439       14.170       12.018      238.348      200.800      144.434        0.039        0.029       13.031        5.613        0.186      347.449       26.426      863.947
07/14/2014  08:27:00      -18.758      -18.628       14.701       15.961       20.118       11.443      254.743      404.745      130.940        0.085        0.040       26.436        9.921        0.141      347.589       26.669      863.939
07/14/2014  08:28:00       -8.476      -14.774       30.057        9.616       30.340       13.674       92.460      920.516      186.966        0.120        0.060       17.032       12.950        0.578      347.901       27.207      863.934
07/14/2014  08:29:00      -12.470       -5.399       29.437        9.398       13.113        9.267       88.317      171.944       85.880        0.070        0.017       13.588        5.641        0.172      348.076       27.510      863.945
07/14/2014  08:30:00       -8.206       -3.567       26.009       11.858       15.747       14.455      140.618      247.970      208.948        0.068        0.030        8.948       10.266        1.316      348.268       27.840      863.944
07/14/2014  08:31:00      -12.713       -2.227       26.664       12.239       12.467       14.572      149.787      155.421      212.334        0.070        0.026       12.906        9.190        0.507      348.326       27.941      863.937
07/14/2014  08:32:00      -34.934       20.396       18.912       13.344       11.833       17.246      178.068      140.009      297.425        0.130        0.031       40.452       11.274        0.078      347.596       26.680      863.929
07/14/2014  08:33:00      -38.961       -9.904        0.830       23.806       13.829       10.201      566.710      191.244      104.066        0.124        0.043       40.200       12.883        0.103      347.201       26.000      863.916
07/14/2014  08:34:00      -23.369        7.483       -4.469       13.928        9.999        9.629      193.984       99.974       92.717        0.050        0.019       24.538        6.984        0.081      347.213       26.020      863.909
07/14/2014  08:35:00      -13.874       24.819       15.162       16.235       18.505       27.217      263.573      342.426      740.742        0.119        0.067       28.434       17.019        0.358      347.732       26.915      863.908
07/14/2014  08:36:00      -17.637        9.102       45.781       15.335       26.978       18.336      235.167      727.811      336.226        0.189        0.065       19.848       15.035        0.574      348.264       27.834      863.902
07/14/2014  08:37:00      -11.820       25.525       68.196       14.016       25.170       12.783      196.452      633.536      163.406        0.322        0.050       28.129       12.099        0.185      348.187       27.700      863.895
07/14/2014  08:38:00       -8.955       11.472       44.928       10.862       23.643       15.463      117.994      558.994      239.118        0.157        0.046       14.553       13.496        0.860      348.201       27.725      863.892
07/14/2014  08:39:00      -14.947       17.919       49.985       14.896       25.659       16.478      221.878      658.400      271.518        0.210        0.058       23.335       15.450        0.438      348.615       28.441      863.889
07/14/2014  08:40:00      -19.988        2.440       30.131       14.997       25.560       26.366      224.912      653.338      695.149        0.144        0.079       20.137       17.326        0.740      348.179       27.687      863.886
07/14/2014  08:41:00      -27.661        6.626       10.103       16.373       19.277       22.397      268.080      371.592      501.644        0.103        0.057       28.444       15.805        0.309      347.796       27.026      863.887
07/14/2014  08:42:00      -21.502        3.875        8.252       14.496       15.207       14.422      210.138      231.257      208.003        0.060        0.032       21.848        9.280        0.180      347.860       27.135      863.882
07/14/2014  08:43:00      -40.937       -0.820       10.547       26.157       27.823       20.066      684.214      774.136      402.647        0.182        0.093       40.945       22.869        0.312      347.790       27.014      863.877
07/14/2014  08:44:00      -11.051       -0.314       30.232       18.832       18.031       20.070      354.626      325.134      402.818        0.106        0.054       11.055       18.086        2.676      348.626       28.461      863.871
07/14/2014  08:45:00      -43.933        0.667       12.928       24.012       14.429       20.147      576.557      208.200      405.883        0.164        0.060       43.938       15.818        0.130      347.687       26.835      863.859
07/14/2014  08:46:00      -37.203        5.086       -7.477       26.068       13.295       11.330      679.558      176.766      128.362        0.123        0.049       37.549       11.025        0.086      347.630       26.739      863.856
07/14/2014  08:47:00      -44.156       -8.327        6.079       12.743       26.332       12.569      162.392      693.364      157.985        0.153        0.051       44.935        7.381        0.027      347.557       26.613      863.847
07/14/2014  08:48:00      -26.490        1.321        0.010        8.095        5.815       12.315       65.536       33.811      151.671        0.048        0.013       26.523        4.014        0.023      347.636       26.749      863.839
07/14/2014  08:49:00      -32.436       14.659       -3.306       11.245       12.208       17.635      126.455      149.031      311.007        0.093        0.029       35.594       10.756        0.091      347.699       26.858      863.830
07/14/2014  08:50:00      -32.847      -21.289        9.486       18.035       28.991       14.292      325.277      840.497      204.253        0.150        0.069       39.143       15.654        0.160      347.924       27.246      863.823
07/14/2014  08:51:00      -38.415      -16.696        4.395       11.363       20.812        9.386      129.120      433.152       88.105        0.121        0.033       41.886        6.526        0.024      347.581       26.654      863.813
07/14/2014  08:52:00      -12.839       11.712       -1.264       33.316       16.632       24.223     1109.942      276.614      586.759        0.114        0.099       17.379       13.114        0.569      348.040       27.447      863.798
07/14/2014  08:53:00      -49.343       18.381       -0.010       23.044       16.115       18.179      531.042      259.682      330.485        0.195        0.056       52.655       15.514        0.087      347.908       27.221      863.796
07/14/2014  08:54:00      -36.195       13.952        7.020       30.143       12.579       17.247      908.590      158.244      297.445        0.146        0.068       38.791       19.774        0.260      348.101       27.552      863.791
07/14/2014  08:55:00      -45.806       10.565       -8.210       37.658       30.488       15.699     1418.139      929.525      246.443        0.244        0.130       47.009       14.330        0.093      347.883       27.176      863.779
07/14/2014  08:56:00      -20.849       10.288        5.010       24.916       33.403       23.870      620.803     1115.790      569.794        0.144        0.115       23.250       20.896        0.808      347.998       27.376      863.779
07/14/2014  08:57:00        8.630       48.918       17.999       23.561       39.185       32.818      555.126     1535.490     1077.008        0.298        0.158       49.673       29.968        0.364      348.357       27.996      863.766
07/14/2014  08:58:00        2.293       -1.447       25.149       13.587       21.247       17.599      184.593      451.418      309.737        0.079        0.047        2.711       11.796       18.926      348.839       28.828      863.758
07/14/2014  08:59:00       16.388       16.486       21.125       48.198       26.828       22.363     2323.080      719.720      500.086        0.226        0.177       23.245       19.120        0.677      348.568       28.360      863.751
07/14/2014  09:00:00        9.528       44.166       58.523       28.830       32.178       23.379      831.146     1035.422      546.566        0.394        0.121       45.182       20.639        0.209      348.648       28.499      863.741
07/14/2014  09:01:00       18.103       28.276       50.298       32.950       34.448       20.507     1085.686     1186.686      420.529        0.317        0.135       33.575       14.161        0.178      348.556       28.338      863.744
07/14/2014  09:02:00       17.268        7.546       24.796       23.198       38.074       26.027      538.145     1449.629      677.424        0.182        0.133       18.845       23.153        1.509      348.557       28.340      863.732
07/14/2014  09:03:00       26.259       23.560       38.120       25.085       35.454       24.352      629.241     1256.978      593.022        0.259        0.124       35.279       17.556        0.248      348.455       28.162      863.723
07/14/2014  09:04:00       25.377       21.155       35.105       36.579       27.366       28.273     1338.036      748.890      799.338        0.260        0.144       33.038       25.133        0.579      348.705       28.597      863.722
07/14/2014  09:05:00       31.200      -16.596       31.469       29.871       31.664       29.396      892.282     1002.590      864.146        0.250        0.138       35.339       26.487        0.562      348.472       28.193      863.716
07/14/2014  09:06:00       18.202       13.097       26.648       29.684       22.787       18.355      881.114      519.225      336.900        0.147        0.087       22.424       12.154        0.294      348.708       28.600      863.715
07/14/2014  09:07:00        1.130       10.980       43.548       18.532       23.084       13.513      343.444      532.884      182.602        0.154        0.053       11.038       12.186        1.219      349.122       29.319      863.723
07/14/2014  09:08:00        0.332       20.141       38.072       24.902       36.105       22.220      620.086     1303.580      493.748        0.214        0.121       20.144       22.596        1.258      348.963       29.042      863.721
07/14/2014  09:09:00      -14.899        2.312       35.883       14.081       17.567       14.654      198.282      308.598      214.738        0.112        0.036       15.078       10.246        0.462      349.226       29.499      863.716
07/14/2014  09:10:00        4.491        3.081       32.143       32.887       46.278       32.192     1081.554     2141.623     1036.344        0.266        0.213        5.446       29.100       28.552      348.971       29.057      863.710
07/14/2014  09:11:00       19.448      -38.349       10.041       36.358       47.501       43.762     1321.901     2256.301     1915.089        0.372        0.275       42.998       40.436        0.884      348.801       28.764      863.706
07/14/2014  09:12:00       -5.816       40.612       71.407       20.749       36.703       19.525      430.531     1347.074      381.222        0.447        0.108       41.027       19.936        0.236      349.264       29.566      863.703
07/14/2014  09:13:00        0.534       19.629       47.175       17.995       28.781       28.434      323.821      828.322      808.496        0.229        0.098       19.637       23.772        1.466      349.075       29.238      863.691
07/14/2014  09:14:00      -27.442      -28.470       28.086       25.400       28.735       17.148      645.181      825.701      294.057        0.206        0.088       39.543       13.271        0.113      348.916       28.962      863.684
07/14/2014  09:15:00      -39.710        3.860       37.615       33.658       40.924       24.139     1132.879     1674.743      582.700        0.320        0.170       39.897       27.873        0.488      348.745       28.665      863.672
07/14/2014  09:16:00       12.446       37.297       63.590       28.998       29.495       17.795      840.910      869.952      316.654        0.381        0.101       39.319       13.786        0.123      348.872       28.886      863.667
07/14/2014  09:17:00       24.839       32.013       36.385       30.060       25.944       20.163      903.574      673.075      406.544        0.247        0.099       40.519       12.762        0.099      348.722       28.626      863.655
07/14/2014  09:18:00        7.066       -8.087        8.055       30.083       27.415       31.701      905.004      751.607     1004.927        0.142        0.133       10.738       21.461        3.994      348.718       28.620      863.644
07/14/2014  09:19:00       38.533       34.048       35.405       32.358       32.024       26.912     1047.009     1025.506      724.283        0.335        0.140       51.420       22.808        0.197      349.016       29.133      863.634
07/14/2014  09:20:00       41.848       34.843       28.956       26.531       33.579       21.963      703.874     1127.553      482.372        0.306        0.116       54.455       12.678        0.054      348.777       28.721      863.618
07/14/2014  09:21:00       11.578       26.818       30.788       25.205       40.325       46.541      635.282     1626.096     2166.056        0.311        0.221       29.211       32.107        1.208      349.153       29.373      863.608
07/14/2014  09:22:00       85.874       68.092       32.732       39.450       27.049       30.779     1556.268      731.674      947.355        0.816        0.162      109.594       21.699        0.039      348.581       28.381      863.593
07/14/2014  09:23:00       40.216       38.358       42.372       26.360       38.665       32.578      694.846     1494.949     1061.309        0.407        0.163       55.576       22.957        0.171      348.628       28.463      863.586
07/14/2014  09:24:00       58.416       38.667       21.294       35.720       29.010       40.310     1275.917      841.562     1624.924        0.455        0.187       70.054       27.919        0.159      348.688       28.567      863.567
07/14/2014  09:25:00       78.684       54.997       14.518       30.451       27.549       35.352      927.237      758.942     1249.772        0.618        0.147       95.999       17.843        0.035      348.831       28.815      863.559
07/14/2014  09:26:00       44.935       51.569        3.783       33.664       26.175       39.624     1133.256      685.106     1570.033        0.404        0.169       68.400       17.850        0.068      348.903       28.940      863.550
07/14/2014  09:27:00      -12.405       27.749        7.092       20.954       28.590       22.375      439.083      817.377      500.621        0.137        0.088       30.396       13.119        0.186      349.313       29.650      863.539
07/14/2014  09:28:00      -22.376        1.086       21.655       22.391       15.664       18.730      501.339      245.374      350.817        0.103        0.055       22.402       13.687        0.373      349.366       29.743      863.534
07/14/2014  09:29:00        4.791       19.647       13.596       22.188       20.737       23.440      492.322      430.013      549.456        0.103        0.074       20.223       14.720        0.530      349.665       30.261      863.526
07/14/2014  09:30:00       53.493       44.875       -0.775       28.029       28.716       32.082      785.606      824.628     1029.276        0.376        0.132       69.823       21.281        0.093      348.962       29.042      863.527
07/14/2014  09:31:00       35.101       34.986       -4.738       20.842       22.877       24.374      434.381      523.340      594.115        0.201        0.078       49.559        3.724        0.006      348.913       28.955      863.526
07/14/2014  09:32:00       -2.554       17.900       25.816       29.140       20.498       20.565      849.133      420.173      422.925        0.134        0.085       18.081       15.733        0.757      349.558       30.076      863.539
07/14/2014  09:33:00      -30.475       10.629       26.667       15.238       11.877       16.410      232.196      141.059      269.276        0.120        0.032       32.275        6.872        0.045      349.332       29.683      863.552
07/14/2014  09:34:00       -8.908       -7.256       31.786       20.353       19.205       13.322      414.254      368.814      177.465        0.105        0.048       11.490        9.850        0.735      349.921       30.705      863.569
07/14/2014  09:35:00        3.569       21.482       50.391       28.202       38.384       24.401      795.368     1473.308      595.398        0.294        0.143       21.776       22.279        1.047      349.772       30.447      863.585
07/14/2014  09:36:00       -4.413       -1.763       18.294       22.545       11.083       17.974      508.294      122.842      323.057        0.066        0.048        4.752       10.543        4.923      349.768       30.440      863.596
07/14/2014  09:37:00      -33.829      -20.734        7.101       28.738       31.976       17.410      825.886     1022.437      303.107        0.189        0.108       39.678        9.977        0.063      349.131       29.334      863.605
07/14/2014  09:38:00      -17.151      -16.316       15.932       32.435       25.460       21.642     1052.055      648.211      468.369        0.149        0.108       23.672       16.479        0.485      349.489       29.956      863.604
07/14/2014  09:39:00        4.400      -11.746       16.654       29.798       27.272       21.405      887.916      743.756      458.190        0.126        0.104       12.543       14.127        1.269      349.695       30.313      863.602
07/14/2014  09:40:00       96.988     -121.175      -10.246       79.363       73.967       33.382     6298.541     5471.058     1114.343        1.854        0.644      155.210       38.321        0.061      348.834       28.816      863.604
07/14/2014  09:41:00       -6.332      -16.984       15.261       20.478       21.237       18.270      419.359      451.008      333.806        0.088        0.060       18.126       16.070        0.786      349.505       29.983      863.578
07/14/2014  09:42:00        7.630      -17.922       39.877       48.486       39.687       32.040     2350.875     1575.020     1026.585        0.346        0.248       19.479       28.363        2.120      349.668       30.266      863.572
07/14/2014  09:43:00       63.551       21.165       54.910       47.259       39.043       35.113     2233.391     1524.386     1232.956        0.625        0.250       66.983       30.810        0.212      349.088       29.260      863.566
07/14/2014  09:44:00        9.177       10.691       21.016       19.635       18.279       23.344      385.553      334.138      544.951        0.095        0.063       14.089       14.638        1.079      349.714       30.346      863.551
07/14/2014  09:45:00      -13.885        7.510       14.899       33.902       19.530       17.698     1149.341      381.423      313.208        0.116        0.092       15.786       11.322        0.514      349.552       30.064      863.547
07/14/2014  09:46:00      -29.113        6.308       24.458       39.788       18.133       29.195     1583.108      328.803      852.357        0.212        0.138       29.789       31.108        1.091      349.930       30.721      863.539
07/14/2014  09:47:00      -17.875        7.587       19.173       21.500       26.180       21.269      462.241      685.393      452.362        0.117        0.080       19.419       10.104        0.271      349.773       30.449      863.545
07/14/2014  09:48:00        2.391       14.884       47.626       35.169       26.626       21.387     1236.849      708.961      457.415        0.245        0.120       15.075       11.154        0.547      350.090       30.999      863.544
07/14/2014  09:49:00       10.715       62.206       83.627       38.231       42.117       25.880     1461.640     1773.851      669.786        0.744        0.195       63.122       29.291        0.215      349.478       29.936      863.552
07/14/2014  09:50:00       25.591       -3.040       31.970       52.904       43.403       29.434     2798.833     1883.795      866.384        0.362        0.277       25.771       13.816        0.287      349.254       29.547      863.565
07/14/2014  09:51:00       46.732       22.764       60.545       59.572       56.833       49.771     3548.841     3230.032     2477.171        0.781        0.463       51.981       49.696        0.914      349.600       30.148      863.564
07/14/2014  09:52:00       51.604        4.204       46.296       53.469       53.261       49.158     2858.975     2836.725     2416.530        0.647        0.406       51.775       38.281        0.547      349.743       30.395      863.590
07/14/2014  09:53:00       46.910       46.358       67.669       56.056       45.099       36.562     3142.317     2033.930     1336.764        0.772        0.326       65.952       38.161        0.335      349.421       29.837      863.586
07/14/2014  09:54:00       13.743       51.132       72.231       35.969       40.479       32.048     1293.747     1638.534     1027.060        0.599        0.198       52.947       32.234        0.371      349.540       30.044      863.584
07/14/2014  09:55:00       46.352       -1.525       34.767       47.698       49.933       38.967     2275.105     2493.289     1518.435        0.482        0.314       46.377       43.689        0.887      349.488       29.954      863.577
07/14/2014  09:56:00       60.168       12.330       22.467       38.864       34.134       35.683     1510.404     1165.140     1273.281        0.411        0.197       61.418       29.132        0.225      349.302       29.630      863.560
07/14/2014  09:57:00       86.741       45.537        9.029       34.966       37.687       36.054     1222.613     1420.344     1299.889        0.681        0.197       97.968       16.231        0.027      349.302       29.630      863.542
07/14/2014  09:58:00       42.449       88.422        0.353       41.400       57.828       29.417     1713.952     3344.070      865.342        0.777        0.296       98.083       23.388        0.057      349.326       29.672      863.507
07/14/2014  09:59:00      139.538      104.117       45.852       46.429       42.296       38.539     2155.654     1788.952     1485.268        1.892        0.271      174.101       19.767        0.013      349.427       29.845      863.484
07/14/2014  10:00:00      107.455       52.770        5.978       41.133       38.281       27.936     1691.910     1465.471      780.423        0.915        0.197      119.713       15.040        0.016      349.137       29.343      863.473
07/14/2014  10:01:00       11.309       19.880       14.892       24.989       22.185       18.759      624.447      492.179      351.882        0.111        0.073       22.872       17.287        0.571      349.751       30.409      863.475
07/14/2014  10:02:00       -4.883       -2.961       36.306       14.469       22.099       15.113      209.347      488.363      228.406        0.114        0.046        5.710        8.172        2.048      350.122       31.055      863.472
07/14/2014  10:03:00       -4.747       -9.130       33.002       14.638       27.750       23.219      214.265      770.036      539.118        0.136        0.076       10.290       16.269        2.500      350.451       31.627      863.481
07/14/2014  10:04:00        1.563       13.996       46.699       19.548       45.758       21.919      382.138     2093.794      480.434        0.267        0.148       14.083       21.349        2.298      350.182       31.158      863.491
07/14/2014  10:05:00        9.712      -17.492       36.055       24.560       30.902       26.047      603.189      954.951      678.436        0.197        0.112       20.007       22.406        1.254      350.360       31.467      863.500
07/14/2014  10:06:00       13.331       17.432       48.393       32.255       42.969       26.312     1040.391     1846.329      692.303        0.320        0.179       21.945       23.373        1.134      350.419       31.570      863.497
07/14/2014  10:07:00       64.803       36.333       45.996       58.215       44.885       38.066     3389.023     2014.623     1449.044        0.724        0.343       74.293       35.095        0.223      349.854       30.589      863.495
07/14/2014  10:08:00       23.112        0.177       28.903       39.778       52.163       32.655     1582.259     2721.015     1066.371        0.337        0.268       23.113       24.991        1.169      350.012       30.862      863.484
07/14/2014  10:09:00       16.932       42.200       36.980       32.691       40.887       28.837     1068.732     1671.773      831.584        0.350        0.179       45.470       23.423        0.265      349.997       30.838      863.484
07/14/2014  10:10:00       49.583       68.785        8.885       22.578       24.291       24.487      509.780      590.074      599.589        0.448        0.085       84.793       12.356        0.021      349.417       29.829      863.463
07/14/2014  10:11:00        3.915       83.175       -6.391       23.740       35.786       26.449      563.596     1280.611      699.535        0.476        0.127       83.267       18.616        0.050      349.600       30.147      863.446
07/14/2014  10:12:00       21.387      118.723      -10.034       23.687       39.028       30.274      561.076     1523.177      916.504        0.883        0.150      120.634       24.946        0.043      349.598       30.145      863.421
07/14/2014  10:13:00       14.259       19.724        3.299       24.995       29.142       21.068      624.759      849.257      443.861        0.126        0.096       24.339        9.517        0.153      349.826       30.539      863.410
07/14/2014  10:14:00      -34.031       -5.275      -12.847       18.377       17.729       10.317      337.729      314.330      106.430        0.105        0.038       34.437        9.819        0.081      349.311       29.646      863.395
07/14/2014  10:15:00      -60.211       32.904      -13.310       25.371       27.609       17.770      643.671      762.237      315.788        0.330        0.086       68.615        7.789        0.013      349.294       29.618      863.383
07/14/2014  10:16:00      -62.181       19.482       -6.441       16.294       17.634       11.062      265.505      310.970      122.367        0.249        0.035       65.162        7.999        0.015      349.300       29.624      863.382
07/14/2014  10:17:00      -59.055       -3.561        0.906       30.136       37.313       17.608      908.193     1392.239      310.030        0.306        0.131       59.162       14.301        0.058      349.325       29.671      863.370
07/14/2014  10:18:00      -59.599       59.043       -4.739       36.660       42.431       26.008     1343.939     1800.364      676.393        0.544        0.191       83.893       30.152        0.129      349.589       30.129      863.363
07/14/2014  10:19:00       -6.331       25.440       19.310       14.981       29.998       21.055      224.423      899.908      443.297        0.131        0.078       26.216       14.897        0.323      350.716       32.088      863.356
07/14/2014  10:20:00       -3.634       35.937       -3.242       19.222       33.737       26.084      369.488     1138.167      680.360        0.175        0.109       36.120       24.396        0.456      350.206       31.200      863.343
07/14/2014  10:21:00      -17.605        9.677       22.559       21.231       14.400       19.407      450.759      207.369      376.624        0.097        0.052       20.089       16.459        0.671      350.946       32.490      863.323
07/14/2014  10:22:00       -3.936      -10.118       22.604       24.001       25.786       20.251      576.056      664.939      410.120        0.114        0.083       10.857       15.233        1.969      350.529       31.763      863.319
07/14/2014  10:23:00       -6.381      -25.959        8.327       45.446       21.669       18.954     2065.308      469.528      359.253        0.184        0.145       26.732       14.735        0.304      349.937       30.732      863.311
07/14/2014  10:24:00       -3.086       -4.513       22.055       28.053       20.268       22.609      786.971      410.783      511.187        0.111        0.085        5.467       16.432        9.033      350.990       32.565      863.318
07/14/2014  10:25:00      -24.583      -15.931       13.220       38.329       29.060       24.076     1469.104      844.464      579.662        0.196        0.145       29.294       21.559        0.542      350.093       31.003      863.313
07/14/2014  10:26:00      -40.253      -58.476        9.052       31.056       46.590       19.623      964.481     2170.635      385.079        0.432        0.176       70.992       23.055        0.105      350.044       30.919      863.324
07/14/2014  10:27:00      -14.904        4.139       41.637       21.565       22.708       17.892      465.038      515.657      320.132        0.164        0.065       15.468       10.062        0.423      351.029       32.632      863.320
07/14/2014  10:28:00        5.312       16.619       53.508       35.842       30.808       21.115     1284.658      949.144      445.848        0.292        0.134       17.447       13.478        0.597      351.084       32.728      863.316
07/14/2014  10:29:00       53.219       46.017       54.935       69.619       42.265       33.413     4846.859     1786.305     1116.457        0.786        0.387       70.355       28.113        0.160      350.219       31.223      863.299
07/14/2014  10:30:00       91.657       86.127       69.698       50.133       39.408       41.951     2513.285     1553.000     1759.882        1.325        0.291      125.773       38.497        0.094      349.941       30.739      863.295
07/14/2014  10:31:00       21.964       36.025       47.583       34.210       55.510       41.276     1170.321     3081.395     1703.743        0.500        0.298       42.192       39.063        0.857      350.281       31.332      863.293
07/14/2014  10:32:00       -9.305      -27.349       12.786       13.970       21.229       22.374      195.174      450.682      500.588        0.107        0.057       28.889       11.911        0.170      350.321       31.399      863.291
07/14/2014  10:33:00      -12.057      -14.740        6.182       11.111       11.177       10.393      123.445      124.935      108.008        0.038        0.018       19.043        5.793        0.093      350.065       30.954      863.278
07/14/2014  10:34:00        0.427        9.540       20.371       16.819       17.805       22.530      282.871      317.026      507.620        0.081        0.055        9.549       10.133        1.126      350.863       32.345      863.275
07/14/2014  10:35:00       80.148       53.009        8.673       44.128       41.535       31.014     1947.309     1725.137      961.849        0.697        0.232       96.092       26.834        0.078      350.107       31.029      863.268
07/14/2014  10:36:00       23.071       -0.998       -0.714       36.920       12.184       21.497     1363.108      148.458      462.100        0.125        0.099       23.093       13.998        0.367      350.008       30.857      863.258
07/14/2014  10:37:00       32.076       17.310       38.140       21.512       19.292       18.152      462.773      372.197      329.497        0.197        0.058       36.449       10.942        0.090      350.120       31.050      863.257
07/14/2014  10:38:00        5.957       18.617       13.638       14.970       17.110       15.664      224.094      292.745      245.347        0.066        0.038       19.547        8.925        0.208      350.331       31.416      863.254
07/14/2014  10:39:00       29.212       28.839       23.395       38.331       22.361       31.723     1469.242      500.000     1006.337        0.260        0.149       41.049       18.893        0.212      350.102       31.018      863.251
07/14/2014  10:40:00       16.935       39.674       20.080       27.286       45.209       26.102      744.525     2043.858      681.306        0.287        0.173       43.137       18.598        0.186      350.416       31.565      863.236
07/14/2014  10:41:00       34.056       39.568       13.055       41.368       34.305       27.786     1711.311     1176.833      772.080        0.328        0.183       52.206       19.704        0.142      350.447       31.619      863.230
07/14/2014  10:42:00       51.468       17.594       13.496       45.389       42.835       27.059     2060.116     1834.837      732.172        0.388        0.231       54.393       24.874        0.209      350.548       31.793      863.218
07/14/2014  10:43:00       31.473       36.082       14.761       42.317       50.742       29.921     1790.703     2574.764      895.291        0.388        0.263       47.879       23.560        0.242      350.560       31.815      863.204
07/14/2014  10:44:00       -1.496      121.469       -2.617       30.902       34.741       31.503      954.962     1206.934      992.438        0.896        0.158      121.479       21.198        0.030      350.329       31.414      863.199
07/14/2014  10:45:00       24.196       63.862       13.004       37.151       44.934       39.913     1380.166     2019.053     1593.032        0.491        0.250       68.292       34.576        0.256      350.759       32.161      863.186
07/14/2014  10:46:00       60.117       55.702        2.985       34.062       45.302       33.170     1160.253     2052.266     1100.254        0.552        0.216       81.955       24.288        0.088      350.321       31.400      863.182
07/14/2014  10:47:00      105.857       66.498       21.366       39.092       34.454       28.032     1528.148     1187.045      785.766        0.979        0.175      125.011       16.108        0.017      350.194       31.178      863.167
07/14/2014  10:48:00       54.091       50.817       10.063       56.304       38.769       30.812     3170.151     1503.012      949.392        0.561        0.281       74.217       25.997        0.123      350.460       31.640      863.155
07/14/2014  10:49:00       66.816       37.833       10.528       50.712       41.398       26.875     2571.729     1713.830      722.265        0.551        0.250       76.783       14.614        0.036      350.443       31.610      863.145
07/14/2014  10:50:00       38.406       92.586        0.124       34.486       54.274       44.230     1189.278     2945.655     1956.301        0.807        0.305      100.236       40.528        0.163      350.418       31.567      863.136
07/14/2014  10:51:00       22.610       64.606       -9.817       30.345       38.957       27.328      920.829     1517.670      746.815        0.398        0.159       68.448       26.630        0.151      350.446       31.618      863.124
07/14/2014  10:52:00       14.976        6.369       30.182       23.035       17.906       15.229      530.629      320.634      231.920        0.113        0.054       16.274        7.118        0.191      351.093       32.743      863.125
07/14/2014  10:53:00       19.148       63.666       -5.200       29.711       26.135       22.727      882.718      683.061      516.526        0.326        0.104       66.483       20.038        0.091      350.825       32.276      863.115
07/14/2014  10:54:00       -3.406       28.905       16.522       23.371       36.938       16.937      546.222     1364.449      286.867        0.166        0.110       29.105        8.642        0.088      351.133       32.814      863.118
07/14/2014  10:55:00        7.028      -41.060       -6.716       41.756       36.600       29.593     1743.561     1339.579      875.745        0.287        0.198       41.657       25.222        0.367      350.545       31.789      863.123
07/14/2014  10:56:00       40.479      -20.865       46.287       58.555       95.051       63.749     3428.636     9034.666     4063.951        1.037        0.826       45.540       56.443        1.536      350.816       32.262      863.110
07/14/2014  10:57:00       32.547      -41.384       14.684       35.191       60.431       43.318     1238.391     3651.883     1876.413        0.488        0.338       52.649       32.474        0.380      350.380       31.502      863.112
07/14/2014  10:58:00       -8.538      -48.345       24.031       28.153       52.107       37.270      792.592     2715.118     1389.016        0.394        0.245       49.093       22.957        0.219      350.589       31.865      863.111
07/14/2014  10:59:00       -2.909       -4.747       44.457       26.688       38.282       21.187      712.223     1465.535      448.895        0.232        0.131        5.568        9.935        3.184      350.950       32.495      863.108
07/14/2014  11:00:00        4.779        9.776       45.489       38.260       52.310       33.297     1463.832     2736.373     1108.675        0.375        0.265       10.882       17.898        2.705      350.400       31.537      863.106
07/14/2014  11:01:00        9.857        4.277       33.083       30.234       42.304       30.013      914.081     1789.633      900.782        0.241        0.180       10.745       27.786        6.687      350.719       32.093      863.113
07/14/2014  11:02:00       23.502       26.119       44.141       38.409       32.958       21.911     1475.220     1086.217      480.112        0.311        0.152       35.136       16.937        0.232      350.622       31.922      863.122
07/14/2014  11:03:00        2.277       14.272       39.716       15.531       26.853       12.468      241.222      721.082      155.443        0.145        0.056       14.453       14.328        0.983      350.837       32.297      863.116
07/14/2014  11:04:00      -62.751       14.669       -4.829       19.609       21.946       18.555      384.506      481.642      344.277        0.269        0.061       64.443       13.289        0.043      350.279       31.328      863.101
07/14/2014  11:05:00      -65.239      -11.216        0.012       30.848       16.955       12.452      951.606      287.485      155.057        0.289        0.070       66.196       12.198        0.034      350.386       31.514      863.100
07/14/2014  11:06:00       -6.337      -14.929       17.684       24.652       22.502       16.821      607.714      506.340      282.942        0.099        0.070       16.218       13.571        0.700      350.964       32.520      863.099
07/14/2014  11:07:00       -7.526       -8.700       27.317       16.174       24.192       15.832      261.582      585.265      250.651        0.099        0.055       11.504       13.051        1.287      351.207       32.942      863.091
07/14/2014  11:08:00       -0.397        1.567       32.009       19.579       21.291       15.838      383.343      453.321      250.836        0.106        0.054        1.617        7.429       21.113      350.817       32.264      863.081
07/14/2014  11:09:00        5.857      -29.974       13.767       11.132       22.500       19.859      123.924      506.238      394.366        0.107        0.051       30.541       17.474        0.327      350.595       31.875      863.081
07/14/2014  11:10:00        8.695       -0.564       32.719       18.246       18.484       14.211      332.899      341.672      201.939        0.101        0.044        8.713       10.925        1.572      351.087       32.733      863.077
07/14/2014  11:11:00        5.686       12.853       19.237       17.534       18.640       22.228      307.447      347.442      494.105        0.086        0.057       14.055       10.814        0.592      350.599       31.883      863.073
07/14/2014  11:12:00        1.901        2.664       -1.016       27.854       18.733       19.904      775.852      350.918      396.179        0.077        0.076        3.272        7.444        5.174      350.250       31.275      863.060
07/14/2014  11:13:00      -25.796        3.783       12.858       11.994       10.790       10.930      143.867      116.430      119.461        0.061        0.019       26.072        4.887        0.035      350.724       32.101      863.058
07/14/2014  11:14:00      -21.855       13.586       15.822       21.352       18.805       14.761      455.918      353.613      217.896        0.097        0.051       25.733       12.974        0.254      351.003       32.586      863.050
07/14/2014  11:15:00      -12.056       11.365       29.057       23.784       16.684       19.286      565.676      278.341      371.952        0.117        0.061       16.568       17.118        1.068      351.075       32.713      863.049
07/14/2014  11:16:00        1.231      -16.199       20.467       19.466       25.974       14.892      378.937      674.634      221.761        0.098        0.064       16.246       13.203        0.660      350.999       32.581      863.044
07/14/2014  11:17:00      -14.509       -6.300       21.261       16.568       25.139       24.789      274.494      631.976      614.516        0.111        0.076       15.817       17.579        1.235      351.366       33.220      863.037
07/14/2014  11:18:00       40.595       -9.920       15.035       23.545       23.585       27.190      554.390      556.248      739.314        0.191        0.092       41.790       16.737        0.160      350.503       31.717      863.027
07/14/2014  11:19:00       48.618       -8.646       13.401       35.010       30.765       31.652     1225.706      946.499     1001.825        0.290        0.159       49.381       22.321        0.204      350.597       31.882      863.024
07/14/2014  11:20:00       14.757      -52.408        8.152       28.990       49.575       25.937      840.448     2457.659      672.750        0.350        0.199       54.446       10.209        0.035      350.728       32.108      863.012
07/14/2014  11:21:00       15.290      -94.677       19.595       52.810      111.403       50.245     2788.853    12410.648     2524.555        1.365        0.886       95.904       57.587        0.361      351.036       32.642      862.994
07/14/2014  11:22:00       65.561      -25.051       39.094       59.832       68.931       38.627     3579.889     4751.508     1492.070        0.814        0.491       70.184       35.354        0.254      350.888       32.385      862.995
07/14/2014  11:23:00       54.553      -87.795       11.028       52.100       62.096       42.650     2714.454     3855.871     1819.058        0.960        0.419      103.363       42.929        0.172      350.826       32.277      863.011
07/14/2014  11:24:00       48.692      -47.879       21.283       53.146       67.197       64.234     2824.486     4515.473     4126.025        0.829        0.573       68.288       56.243        0.678      351.226       32.975      863.012
07/14/2014  11:25:00       10.724       74.586       97.784       33.515       56.230       33.265     1123.258     3161.854     1106.543        1.031        0.270       75.353       36.008        0.228      350.965       32.520      863.002
07/14/2014  11:26:00       -1.117       33.342       60.941       29.094       33.036       22.240      846.469     1091.372      494.632        0.363        0.122       33.360       19.791        0.352      351.075       32.710      863.016
07/14/2014  11:27:00       23.137       21.058       25.449       29.273       29.050       26.383      856.908      843.888      696.089        0.201        0.120       31.285       23.406        0.560      350.337       31.427      863.016
07/14/2014  11:28:00      -45.300        4.840       -2.623       42.750       22.771       21.529     1827.546      518.499      463.496        0.245        0.140       45.558       23.082        0.257      350.576       31.842      863.011
07/14/2014  11:29:00       36.239       -0.757       28.066       56.998       38.585       38.845     3248.728     1488.811     1508.967        0.417        0.312       36.247       28.996        0.640      350.705       32.069      863.001
07/14/2014  11:30:00       46.001      -41.641      -12.294       43.370       44.432       33.705     1880.958     1974.230     1136.020        0.450        0.250       62.048       23.889        0.148      350.592       31.870      863.003
07/14/2014  11:31:00       46.055      -67.702        9.533       49.801       60.777       48.314     2480.150     3693.819     2334.274        0.765        0.425       81.882       44.650        0.297      351.050       32.667      863.002
07/14/2014  11:32:00       19.362       19.013       73.734       33.507       30.880       19.126     1122.746      953.605      365.810        0.431        0.122       27.136        8.498        0.098      351.516       33.481      863.004
07/14/2014  11:33:00       69.652        8.158       41.608       51.221       59.907       39.146     2623.611     3588.795     1532.429        0.720        0.387       70.128       42.633        0.370      350.632       31.940      863.011
07/14/2014  11:34:00       73.489      -31.538       44.237       49.542       66.801       34.965     2454.390     4462.323     1222.538        0.824        0.407       79.971       39.541        0.244      351.019       32.614      862.998
07/14/2014  11:35:00       54.438       28.617       53.202       40.082       30.109       26.840     1606.561      906.524      720.410        0.492        0.162       61.502       20.261        0.109      351.035       32.642      862.993
07/14/2014  11:36:00       36.774       37.638       14.289       31.685       27.496       20.011     1003.945      756.047      400.444        0.257        0.108       52.621       13.604        0.067      350.915       32.433      862.985
07/14/2014  11:37:00       56.522       41.627       27.091       32.557       38.277       24.496     1059.982     1465.091      600.049        0.439        0.156       70.196       23.357        0.111      351.198       32.926      862.973
07/14/2014  11:38:00       37.240       13.367       50.243       47.150       44.027       36.810     2223.168     1938.389     1354.991        0.480        0.276       39.567       29.208        0.545      351.134       32.816      862.967
07/14/2014  11:39:00      111.504       91.306       71.739       58.256       78.556       54.947     3393.737     6170.981     3019.177        1.925        0.629      144.118       48.279        0.112      350.947       32.487      862.940
07/14/2014  11:40:00      103.849       97.858       76.235       83.504       55.885       54.200     6972.850     3123.172     2937.668        1.960        0.652      142.691       49.535        0.121      351.280       33.067      862.927
07/14/2014  11:41:00       26.046      -47.826       24.216       39.959       72.969       40.580     1596.686     5324.522     1646.720        0.606        0.428       54.458       40.534        0.554      351.270       33.052      862.922
07/14/2014  11:42:00      122.883       80.196       54.717       97.299      103.803       49.524     9467.163    10775.072     2452.604        2.361        1.135      146.737       35.741        0.059      351.290       33.083      862.893
07/14/2014  11:43:00      162.715       97.437       58.280       87.939       62.068       49.473     7733.340     3852.385     2447.571        2.670        0.702      189.658       45.264        0.057      351.402       33.278      862.872
07/14/2014  11:44:00       66.907       73.881       48.878       55.220       47.189       45.888     3049.270     2226.826     2105.715        0.985        0.369       99.674       41.461        0.173      351.132       32.810      862.888
07/14/2014  11:45:00        4.373       50.957       26.001       33.788       52.783       26.722     1141.647     2786.052      714.081        0.397        0.232       51.144       28.884        0.319      351.747       33.885      862.872
07/14/2014  11:46:00       53.607       22.195       36.762       70.256       49.469       40.564     4935.952     2447.169     1645.439        0.687        0.451       58.020       38.067        0.430      351.776       33.936      862.846
07/14/2014  11:47:00       70.092       29.267       20.074       68.324       58.131       47.295     4668.150     3379.232     2236.810        0.823        0.514       75.956       22.489        0.088      351.411       33.296      862.835
07/14/2014  11:48:00      105.618       71.422       17.263       59.055       50.961       40.526     3487.438     2596.976     1642.353        1.214        0.386      127.500       25.655        0.040      351.697       33.797      862.812
07/14/2014  11:49:00       24.056        4.173       18.666       40.782       41.833       28.413     1663.167     1749.977      807.324        0.258        0.211       24.415        9.002        0.136      351.929       34.204      862.792
07/14/2014  11:50:00       63.933       84.079       -9.865       55.857       44.339       45.597     3120.020     1965.975     2079.098        0.921        0.358      105.625       27.792        0.069      351.578       33.588      862.776
07/14/2014  11:51:00       97.671       29.499       26.821       67.928       55.480       31.818     4614.245     3077.989     1012.413        0.992        0.435      102.028       25.168        0.061      351.445       33.356      862.748
07/14/2014  11:52:00       59.164       33.645       30.187       45.690       76.911       43.169     2087.565     5915.378     1863.577        0.770        0.493       68.062       34.276        0.254      351.547       33.535      862.744
07/14/2014  11:53:00       40.504      -83.554       27.724       51.432       81.406       46.538     2645.275     6626.876     2165.790        1.041        0.572       92.854       51.139        0.303      351.536       33.516      862.723
07/14/2014  11:54:00       79.829       39.843       78.717       76.947       79.500       57.474     5920.893     6320.260     3303.245        1.485        0.777       89.219       56.524        0.401      351.560       33.557      862.708
07/14/2014  11:55:00       89.267      -56.416        7.028       53.804       65.666       40.796     2894.865     4312.045     1664.313        1.003        0.444      105.600       44.040        0.174      351.203       32.935      862.698
07/14/2014  11:56:00       -4.584      -16.020       36.005       44.891       44.481       32.570     2015.182     1978.554     1060.787        0.331        0.253       16.663       23.003        1.906      352.195       34.666      862.672
07/14/2014  11:57:00       20.753      -11.249       15.303       52.006       42.614       36.102     2704.581     1815.968     1303.332        0.331        0.291       23.605       20.634        0.764      352.081       34.468      862.669
07/14/2014  11:58:00       38.543     -138.351        4.231       39.489       32.961       30.420     1559.359     1086.429      925.405        1.211        0.179      143.620       18.329        0.016      351.373       33.232      862.661
07/14/2014  11:59:00        7.936     -145.270       -9.121       30.009       29.113       30.687      900.553      847.584      941.710        1.197        0.134      145.486       17.186        0.014      351.428       33.326      862.655
07/14/2014  12:00:00       15.435      -53.486       12.427       23.856       41.648       27.990      569.125     1734.585      783.454        0.317        0.154       55.669       22.027        0.157      351.622       33.666      862.649
07/14/2014  12:01:00        0.505      -33.825       13.790       22.212       33.378       23.583      493.384     1114.099      556.142        0.175        0.108       33.829       13.670        0.163      351.702       33.806      862.646
07/14/2014  12:02:00       43.914       45.479       34.327       51.669       30.485       33.328     2669.655      929.351     1110.789        0.494        0.235       63.220       31.328        0.246      351.209       32.945      862.643
07/14/2014  12:03:00       69.127       51.734       42.688       49.064       35.398       33.120     2407.269     1253.046     1096.927        0.702        0.238       86.342       23.935        0.077      351.536       33.515      862.633
07/14/2014  12:04:00       80.966       40.082       20.761       77.947       54.855       29.313     6075.808     3009.110      859.274        0.927        0.497       90.344       26.136        0.084      352.018       34.357      862.620
07/14/2014  12:05:00      135.608      104.977       17.778       75.017       53.013       42.770     5627.542     2810.400     1829.286        1.999        0.513      171.492       41.435        0.058      351.810       33.992      862.612
07/14/2014  12:06:00      140.651      119.010       23.248       54.967       46.974       43.709     3021.395     2206.533     1910.460        2.081        0.357      184.244       22.669        0.015      351.739       33.869      862.597
07/14/2014  12:07:00       81.481       79.038        6.730       49.328       45.133       46.127     2433.298     2037.002     2127.727        0.976        0.330      113.517       32.415        0.082      351.892       34.136      862.590
07/14/2014  12:08:00       48.166       44.683        6.897       41.650       20.156       26.042     1734.745      406.277      678.160        0.359        0.141       65.701       15.079        0.053      352.105       34.509      862.579
07/14/2014  12:09:00       59.089       69.626       -2.458       37.641       38.080       30.077     1416.834     1450.057      904.635        0.606        0.189       91.320       22.737        0.062      352.300       34.850      862.577
07/14/2014  12:10:00       71.244       43.767       30.552       48.418       29.956       32.053     2344.331      897.356     1027.395        0.610        0.213       83.613       21.406        0.066      352.494       35.189      862.564
07/14/2014  12:11:00       63.004       31.172       29.700       58.705       52.227       38.006     3446.323     2727.670     1444.441        0.672        0.381       70.294       24.955        0.126      352.160       34.604      862.554
07/14/2014  12:12:00       11.226       11.283       47.248       35.112       49.817       30.899     1232.881     2481.721      954.724        0.358        0.233       15.916       30.283        3.620      352.526       35.245      862.541
07/14/2014  12:13:00       79.260       62.083       36.957       72.079       40.419       37.358     5195.406     1633.693     1395.588        0.986        0.411      100.680       21.879        0.047      352.093       34.488      862.521
07/14/2014  12:14:00      186.695      102.058       60.346       68.791       70.133       72.343     4732.175     4918.673     5233.581        3.190        0.744      212.770       42.452        0.040      352.295       34.837      862.488
07/14/2014  12:15:00      121.427       55.603       98.955       95.924      103.271       69.566     9201.335    10664.955     4839.377        2.616        1.235      133.552       72.610        0.296      351.947       34.231      862.485
07/14/2014  12:16:00       66.049      -97.249       19.404       63.899       63.797       38.620     4083.094     4070.022     1491.527        1.192        0.482      117.558       44.946        0.146      351.872       34.103      862.481
07/14/2014  12:17:00       59.573       26.437       35.428       58.833       43.383       33.062     3461.375     1882.104     1093.111        0.597        0.322       65.175       30.295        0.216      352.290       34.834      862.454
07/14/2014  12:18:00       42.896       49.170       40.553       56.754       44.262       37.662     3220.984     1959.089     1418.419        0.625        0.330       65.251       38.412        0.347      352.228       34.725      862.443
07/14/2014  12:19:00       -3.823        1.388       47.920       28.031       45.470       29.732      785.728     2067.518      884.010        0.302        0.187        4.067       27.899       47.058      352.539       35.269      862.435
07/14/2014  12:20:00       13.324        9.829       42.933       42.879       45.422       25.146     1838.572     2063.200      632.323        0.332        0.227       16.557       19.498        1.387      352.637       35.441      862.424
07/14/2014  12:21:00      146.064     -189.186      -54.494       76.057       76.754       40.858     5784.723     5891.223     1669.341        3.672        0.667      239.010       31.779        0.018      351.967       34.264      862.402
07/14/2014  12:22:00       97.748      -79.775        8.411       79.095      100.697       52.085     6255.941    10139.970     2712.836        1.755        0.955      126.169       68.390        0.294      352.089       34.481      862.401
07/14/2014  12:23:00       33.662       57.193       72.191       52.415       52.459       47.154     2747.287     2751.913     2223.516        0.867        0.386       66.364       39.127        0.348      352.043       34.402      862.387
07/14/2014  12:24:00       48.181       26.151       64.467       77.118       67.151       56.865     5947.192     4509.282     3233.587        1.042        0.685       54.821       54.162        0.976      352.152       34.591      862.375
07/14/2014  12:25:00       54.421        1.907       43.056       51.304       54.143       43.481     2632.061     2931.440     1890.604        0.614        0.373       54.454       37.643        0.478      352.398       35.023      862.363
07/14/2014  12:26:00       22.658       -9.123       25.737       23.942       17.419       19.844      573.207      303.406      393.793        0.126        0.064       24.425       13.588        0.309      352.535       35.261      862.337
07/14/2014  12:27:00       12.885       -2.500       21.754       24.681       36.226       32.188      609.137     1312.302     1036.057        0.180        0.148       13.125       27.131        4.273      352.304       34.858      862.314
07/14/2014  12:28:00       12.649      -12.788       29.248       23.482       39.674       35.891      551.387     1573.997     1288.137        0.230        0.171       17.987       18.126        1.015      352.116       34.530      862.299
07/14/2014  12:29:00       67.218       38.325       31.564       56.904       46.682       31.296     3238.036     2179.222      979.442        0.669        0.320       77.376       25.938        0.112      352.153       34.593      862.285
07/14/2014  12:30:00       56.011        9.792       22.716       30.160       41.311       30.828      909.614     1706.587      950.384        0.366        0.178       56.860       14.942        0.069      352.208       34.689      862.275
07/14/2014  12:31:00       77.003      -30.356       19.204       47.005       73.483       36.969     2209.499     5399.794     1366.676        0.810        0.449       82.771       33.384        0.163      352.018       34.357      862.273
07/14/2014  12:32:00       38.925        2.124       13.540       81.372       64.910       36.379     6621.455     4213.253     1323.435        0.693        0.608       38.983       23.532        0.364      352.443       35.099      862.267
07/14/2014  12:33:00        5.786        6.034       49.973       31.383       48.746       27.550      984.866     2376.179      759.002        0.334        0.206        8.360       27.882       11.123      353.204       36.433      862.249
07/14/2014  12:34:00        7.285        1.160       37.684       34.601       48.818       36.887     1197.203     2383.241     1360.618        0.321        0.247        7.377       27.778       14.179      352.973       36.029      862.252
07/14/2014  12:35:00       28.125       -8.632       48.457       54.331       91.038       38.519     2951.823     8287.980     1483.677        0.797        0.636       29.419       45.757        2.419      352.671       35.499      862.242
07/14/2014  12:36:00       39.309     -126.373       -8.661       41.414       66.395       37.523     1715.092     4408.244     1407.950        1.256        0.377      132.345       19.345        0.021      352.183       34.644      862.240
07/14/2014  12:37:00       25.863      -22.349       25.714       44.055       27.692       26.904     1940.831      766.862      723.804        0.263        0.172       34.182       25.153        0.542      353.101       36.254      862.231
07/14/2014  12:38:00       48.533       13.367       45.371       50.287       42.122       36.247     2528.781     1774.245     1313.852        0.510        0.281       50.340       30.574        0.369      352.419       35.059      862.230
07/14/2014  12:39:00       36.611      -43.621       30.251       72.340       86.903       46.385     5233.095     7552.186     2151.604        0.954        0.747       56.949       55.006        0.933      352.803       35.731      862.228
07/14/2014  12:40:00       93.897     -203.546      -35.396       93.311       68.217       57.285     8706.957     4653.611     3281.538        3.407        0.832      224.160       55.769        0.062      352.287       34.823      862.211
07/14/2014  12:41:00       52.102     -122.216       -3.584       63.765       64.381       45.105     4065.982     4144.877     2034.463        1.395        0.512      132.859       36.938        0.077      352.584       35.347      862.210
07/14/2014  12:42:00       59.632        7.405       53.271       50.049       68.292       49.280     2504.952     4663.822     2428.539        0.802        0.480       60.090       48.266        0.645      352.333       34.909      862.209
07/14/2014  12:43:00       10.622        7.348       32.158       27.035       48.193       27.633      730.887     2322.587      763.558        0.251        0.191       12.916       30.751        5.669      352.769       35.670      862.188
07/14/2014  12:44:00       13.860       15.984       46.372       28.928       21.736       14.277      836.856      472.442      203.841        0.206        0.076       21.156        6.995        0.109      352.804       35.731      862.169
07/14/2014  12:45:00       19.364      -23.362       10.117       32.753       42.746       30.602     1072.768     1827.251      936.463        0.243        0.192       30.344       28.866        0.905      352.005       34.334      862.153
07/14/2014  12:46:00      -46.161      -74.562        3.548       41.564       40.320       26.193     1727.548     1625.701      686.067        0.587        0.202       87.694       23.856        0.074      352.413       35.048      862.142
07/14/2014  12:47:00      -91.414      -81.986        3.407       86.344       64.934       38.725     7455.210     4216.441     1499.653        1.413        0.659      122.793       36.696        0.089      352.514       35.223      862.122
07/14/2014  12:48:00     -119.157      -66.241        6.789       62.555       63.474       34.487     3913.184     4028.923     1189.369        1.388        0.457      136.332       28.861        0.045      352.433       35.081      862.103
07/14/2014  12:49:00       13.553      -91.883        4.361       60.536       62.017       37.812     3664.628     3846.068     1429.761        0.879        0.447       92.878       36.240        0.152      352.668       35.493      862.099
07/14/2014  12:50:00      -12.855     -102.616       28.405       55.320      103.813       51.690     3060.273    10777.164     2671.881        1.400        0.825      103.418       52.908        0.262      352.638       35.441      862.074
07/14/2014  12:51:00       69.153     -126.454      -12.351       72.751       55.317       48.877     5292.663     3059.922     2388.923        1.583        0.537      144.127       46.300        0.103      352.588       35.354      862.062
07/14/2014  12:52:00       51.006      -56.908       16.257       39.382       72.415       36.497     1550.967     5243.907     1331.999        0.711        0.406       76.421       46.433        0.369      352.738       35.616      862.044
07/14/2014  12:53:00       36.043      -45.297       13.924       57.016       74.494       47.743     3250.852     5549.301     2279.370        0.731        0.554       57.886       50.768        0.769      352.816       35.753      862.044
07/14/2014  12:54:00       -9.997      -29.380       28.517       18.689       44.656       25.416      349.278     1994.158      645.971        0.238        0.149       31.034       18.621        0.360      352.780       35.691      862.029
07/14/2014  12:55:00       10.286       34.844       12.416       36.099       27.872       33.814     1303.165      776.842     1143.391        0.235        0.161       36.331       27.978        0.593      352.614       35.399      862.013
07/14/2014  12:56:00      -44.091       28.638      -12.679       58.844       54.158       36.189     3462.644     2933.097     1309.615        0.531        0.385       52.575       27.264        0.269      352.765       35.664      861.993
07/14/2014  12:57:00      -47.416       41.802       -3.510       63.094       47.467       28.808     3980.806     2253.141      829.900        0.553        0.353       63.212       19.562        0.096      352.766       35.666      861.966
07/14/2014  12:58:00      -69.203        2.704       -7.179       32.622       26.662       27.700     1064.217      710.854      767.293        0.369        0.127       69.256       17.276        0.062      352.896       35.893      861.958
07/14/2014  12:59:00      -36.565       -0.346       24.456       43.766       35.812       25.157     1915.486     1282.514      632.850        0.288        0.192       36.567       16.172        0.196      352.911       35.920      861.948
07/14/2014  13:00:00       10.420      -21.112       21.293       47.900       47.822       30.425     2294.452     2286.954      925.705        0.326        0.275       23.543       21.312        0.819      352.431       35.080      861.950
07/14/2014  13:01:00      -65.874      -11.276       21.794       36.766       62.686       35.119     1351.705     3929.549     1233.353        0.573        0.326       66.832       31.050        0.216      352.859       35.829      861.936
07/14/2014  13:02:00      -69.518     -107.101        2.547       54.539       71.683       35.042     2974.462     5138.521     1227.939        1.282        0.467      127.685       43.448        0.116      352.659       35.477      861.917
07/14/2014  13:03:00      -48.274     -109.274        6.156       61.910       78.214       42.659     3832.835     6117.477     1819.749        1.304        0.589      119.462       42.290        0.125      352.733       35.606      861.917
07/14/2014  13:04:00      -39.245      -32.963       12.974       39.639       45.298       33.952     1571.261     2051.914     1152.742        0.378        0.239       51.251       31.440        0.376      353.145       36.329      861.919
07/14/2014  13:05:00      -83.963      -77.424      -18.535       48.706       41.510       34.193     2372.246     1723.094     1169.169        0.933        0.263      114.211       20.675        0.033      352.697       35.545      861.897
07/14/2014  13:06:00     -127.387      -44.275      -15.052       57.619       58.186       29.372     3319.928     3385.635      862.712        1.299        0.378      134.861       24.348        0.033      352.673       35.502      861.884
07/14/2014  13:07:00     -116.112      -15.670      -24.317       24.149       48.115       22.771      583.180     2315.052      518.506        0.887        0.171      117.165        6.298        0.003      352.542       35.271      861.878
07/14/2014  13:08:00      -34.361      -87.094       -8.241       43.074       54.483       24.337     1855.378     2968.359      592.295        0.712        0.271       93.627       21.365        0.052      352.680       35.515      861.875
07/14/2014  13:09:00      -37.486      -39.932      -12.478       71.271       82.111       43.455     5079.543     6742.203     1888.343        0.843        0.686       54.770       39.707        0.526      352.798       35.723      861.870
07/14/2014  13:10:00       50.678      -70.503       10.388       83.222       94.837       58.014     6925.924     8994.005     3365.601        1.346        0.964       86.827       57.338        0.436      352.945       35.978      861.861
07/14/2014  13:11:00       -3.996     -158.695      -26.213       82.013      102.290       65.225     6726.075    10463.184     4254.315        2.366        1.072      158.745       61.024        0.148      352.828       35.772      861.849
07/14/2014  13:12:00       26.725      -83.527       19.489       51.331       87.635       40.555     2634.825     7679.945     1644.695        1.001        0.598       87.699       48.722        0.309      353.005       36.083      861.864
07/14/2014  13:13:00       86.767     -103.011       18.681       59.894      118.835       45.136     3587.310    14121.660     2037.218        1.911        0.987      134.684       63.919        0.225      352.833       35.782      861.857
07/14/2014  13:14:00      -73.994      -16.631       -7.919       58.667       49.402       29.310     3441.793     2440.512      859.072        0.628        0.337       75.840       25.855        0.116      352.631       35.429      861.839
07/14/2014  13:15:00     -117.644      -26.008       -6.811       41.734       43.428       25.746     1741.686     1886.026      662.860        0.943        0.215      120.485       19.978        0.027      352.745       35.629      861.826
07/14/2014  13:16:00      -37.176      -52.076        6.409       55.911       53.925       45.776     3126.082     2907.877     2095.427        0.613        0.406       63.984       43.745        0.467      353.020       36.110      861.801
07/14/2014  13:17:00       32.472     -111.364      -12.457       75.974       45.662       38.187     5772.080     2084.979     1458.260        1.146        0.466      116.001       26.282        0.051      352.883       35.870      861.787
07/14/2014  13:18:00      -30.654      -68.590       -2.867       71.698       53.745       40.457     5140.599     2888.501     1636.782        0.766        0.483       75.128       27.365        0.133      353.247       36.508      861.769
07/14/2014  13:19:00     -101.111      -82.146       -4.317       77.290       62.907       33.478     5973.717     3957.268     1120.744        1.402        0.553      130.275       26.039        0.040      352.931       35.955      861.755
07/14/2014  13:20:00       27.362      -95.203      -11.696       69.828       82.994       35.480     4875.884     6888.011     1258.839        1.148        0.651       99.057       32.337        0.107      352.915       35.924      861.744
07/14/2014  13:21:00       80.705     -113.749      -17.757      114.553       83.108       51.485    13122.455     6906.858     2650.726        2.122        1.134      139.471       50.051        0.129      352.976       36.032      861.730
07/14/2014  13:22:00       54.796        8.425        8.782       44.122       83.322       41.820     1946.712     6942.559     1748.915        0.689        0.532       55.440       38.072        0.472      352.984       36.047      861.723
07/14/2014  13:23:00       22.454        8.046       46.556       35.844       30.141       26.626     1284.811      908.494      708.928        0.282        0.145       23.852       23.143        0.941      353.029       36.125      861.704
07/14/2014  13:24:00      113.215      -87.497       23.974      100.440      128.209       65.612    10088.266    16437.515     4304.995        2.593        1.542      143.085       90.365        0.399      352.874       35.852      861.677
07/14/2014  13:25:00       75.109      -13.031       49.847       74.884       66.674       60.822     5607.612     4445.357     3699.259        1.102        0.688       76.231       50.229        0.434      353.031       36.130      861.655
07/14/2014  13:26:00      133.209       37.129       82.785      115.701       77.742       65.088    13386.749     6043.864     4236.489        2.482        1.183      138.287       48.563        0.123      352.965       36.012      861.648
07/14/2014  13:27:00      187.121     -192.337      -50.950       87.946      105.595       71.764     7734.581    11150.290     5150.057        4.931        1.202      268.342       71.091        0.070      352.924       35.938      861.648
07/14/2014  13:28:00       98.480      -82.241        2.911       72.534       95.075       56.770     5261.178     9039.255     3222.777        1.699        0.876      128.304       64.621        0.254      353.101       36.250      861.653
07/14/2014  13:29:00      -17.894      -49.968       54.342       53.620       72.456       44.532     2875.066     5249.893     1983.084        0.794        0.505       53.075       33.217        0.392      353.512       36.972      861.645
07/14/2014  13:30:00        7.669      -80.236        5.954       64.713       69.898       42.922     4187.830     4885.665     1842.323        0.872        0.546       80.602       37.415        0.215      353.121       36.288      861.649
07/14/2014  13:31:00        6.036       62.378       -7.604       66.623       85.754       44.964     4438.590     7353.739     2021.757        0.890        0.691       62.669       34.492        0.303      352.878       35.860      861.614
07/14/2014  13:32:00       48.967       85.963        8.321       42.412       46.644       36.801     1798.812     2175.661     1354.317        0.759        0.266       98.931       31.630        0.102      353.094       36.239      861.577
07/14/2014  13:33:00       17.633      -28.690        2.198       54.548       78.543       28.015     2975.496     6168.989      784.854        0.553        0.496       33.676       14.204        0.178      353.105       36.260      861.586
07/14/2014  13:34:00      111.577      -73.555       50.794      110.610      150.626       83.727    12234.651    22688.292     7010.184        3.118        2.097      133.641       97.206        0.529      353.384       36.743      861.525
07/14/2014  13:35:00       86.173       13.654       86.126      101.614      112.178       72.458    10325.476    12583.842     5250.223        2.159        1.408       87.248       77.979        0.799      353.141       36.320      861.514
07/14/2014  13:36:00       61.650       49.215      119.353       94.702      138.999       89.833     8968.480    19320.771     8070.033        2.841        1.818       78.886      100.663        1.628      353.513       36.972      861.499
07/14/2014  13:37:00      202.764     -176.286       -7.269      127.124      160.622       84.187    16160.547    25799.369     7087.534        6.064        2.452      268.682       98.800        0.135      353.388       36.751      861.472
07/14/2014  13:38:00      103.613      -79.433       39.469      125.162      139.716       81.166    15665.505    19520.574     6587.932        3.018        2.089      130.558       89.512        0.470      353.579       37.088      861.438
07/14/2014  13:39:00       95.704      -51.307       95.567      118.729      196.267       98.437    14096.623    38520.840     9689.866        4.160        3.115      108.590      116.012        1.141      353.501       36.951      861.396
07/14/2014  13:40:00       74.849       36.780       63.120       97.474      115.601       65.777     9501.248    13363.617     4326.613        1.906        1.360       83.397       46.438        0.310      353.508       36.965      861.370
07/14/2014  13:41:00       83.016      -64.155       29.262      128.457       76.385       64.341    16501.316     5834.606     4139.789        1.916        1.324      104.917       60.049        0.328      353.257       36.525      861.380
07/14/2014  13:42:00       41.408       -0.830       23.808       35.990       57.967       41.817     1295.277     3360.201     1748.645        0.434        0.320       41.416       40.068        0.936      353.442       36.851      861.380
07/14/2014  13:43:00      144.439      -18.685       68.571      102.346      101.713       58.533    10474.706    10345.449     3426.138        2.508        1.212      145.642       57.092        0.154      353.083       36.219      861.374
07/14/2014  13:44:00       34.361      -50.206       30.914       59.283       73.310       47.307     3514.486     5374.326     2237.914        0.789        0.556       60.838       44.448        0.534      353.240       36.495      861.358
07/14/2014  13:45:00       46.031     -103.503       13.433       63.159       95.543       61.191     3989.032     9128.521     3744.297        1.493        0.843      113.277       55.849        0.243      353.724       37.344      861.335
07/14/2014  13:46:00      146.215     -193.534       -4.582       85.007      111.516       59.411     7226.109    12435.732     3529.715        4.102        1.160      242.558       51.499        0.045      353.536       37.010      861.312
07/14/2014  13:47:00       39.767      -15.189       10.652       43.301       48.915       35.608     1874.950     2392.684     1267.898        0.373        0.277       42.569       23.529        0.305      353.308       36.614      861.322
07/14/2014  13:48:00      114.179       63.702       46.689       57.077       45.112       55.201     3257.755     2035.117     3047.099        1.381        0.417      130.747       20.385        0.024      353.432       36.832      861.315
07/14/2014  13:49:00       46.340       13.254       34.201       45.163       59.137       39.574     2039.689     3497.186     1566.127        0.530        0.355       48.198       28.389        0.347      353.388       36.756      861.306
07/14/2014  13:50:00       77.898       92.758       88.879       74.831       62.953       46.743     5599.706     3963.026     2184.877        1.716        0.587      121.129       18.452        0.023      353.378       36.737      861.301
07/14/2014  13:51:00       29.016      -28.310       39.290       53.682       55.929       42.079     2881.796     3128.082     1770.609        0.548        0.389       40.539       17.445        0.185      353.478       36.912      861.286
07/14/2014  13:52:00       -3.877      -37.052       29.259       56.863       50.533       37.624     3233.455     2553.629     1415.585        0.472        0.360       37.254       32.260        0.750      353.819       37.511      861.272
07/14/2014  13:53:00       15.345      -47.898        5.203       53.708       48.450       44.210     2884.563     2347.423     1954.541        0.487        0.359       50.296       35.465        0.497      353.611       37.146      861.250
07/14/2014  13:54:00       17.914     -103.243       -5.823       46.116       63.860       46.117     2126.680     4078.138     2126.783        0.967        0.417      104.786       21.154        0.041      353.199       36.423      861.245
07/14/2014  13:55:00       43.237      -56.521       59.012       94.256      135.739       92.271     8884.169    18425.176     8513.937        2.218        1.791       71.162       74.461        1.095      353.739       37.370      861.213
07/14/2014  13:56:00      143.531       10.936       97.599      124.762      186.297      134.981    15565.672    34706.671    18219.792        4.936        3.425      143.947      152.176        1.118      353.452       36.863      861.183
07/14/2014  13:57:00      151.604      -65.618       56.664      142.053      201.733      119.166    20179.056    40696.072    14200.552        5.277        3.754      165.195      133.696        0.655      353.689       37.281      861.128
07/14/2014  13:58:00      160.459     -293.014      -28.723      158.833      193.561      113.628    25227.786    37465.967    12911.314        9.400        3.780      334.072      101.962        0.093      353.523       36.989      861.118
07/14/2014  13:59:00       27.628     -216.102       -5.362      144.126      125.530       70.788    20772.211    15757.890     5010.943        4.451        2.077      217.861       59.996        0.076      353.182       36.390      861.211
07/14/2014  14:00:00      164.989     -229.071       -9.516      110.694      117.990       73.243    12253.138    13921.613     5364.574        5.566        1.577      282.303       78.666        0.078      353.300       36.597      861.185
07/14/2014  14:01:00      147.982     -184.401      -14.173      161.337      119.930       69.893    26029.551    14383.129     4885.056        5.069        2.265      236.436       80.401        0.116      353.268       36.541      861.176
07/14/2014  14:02:00       66.716       71.609      126.607      103.118      127.835       87.672    10633.354    16341.712     7686.450        3.013        1.733       97.871       90.961        0.864      353.381       36.740      861.118
07/14/2014  14:03:00      169.554     -135.632       48.043      185.603      258.061      139.091    34448.505    66595.607    19346.173        8.490        6.020      217.128      191.700        0.779      353.420       36.808      861.048
07/14/2014  14:04:00      272.007     -346.770      -69.590      100.712      111.087       58.122    10142.981    12340.419     3378.217       11.247        1.293      440.723       48.691        0.012      353.248       36.505      861.030
07/14/2014  14:05:00      139.054      -91.694       35.713      147.215      233.214      130.001    21672.386    54388.776    16900.306        6.097        4.648      166.565      163.201        0.960      353.594       37.113      861.030
07/14/2014  14:06:00       69.976     -148.392        5.479      109.357      136.036       90.983    11958.951    18505.897     8277.979        3.284        1.937      164.063       87.227        0.283      353.445       36.853      861.039
07/14/2014  14:07:00       20.891     -157.933        2.735       70.647       99.040       51.349     4991.046     9808.994     2636.731        2.141        0.872      159.309       46.712        0.086      353.327       36.644      861.056
07/14/2014  14:08:00       11.473      -69.325       14.860       45.940       60.784       37.452     2110.445     3694.688     1402.652        0.618        0.360       70.268       35.660        0.258      353.636       37.191      861.042
07/14/2014  14:09:00       32.137     -183.849       -9.420       98.365       84.019       55.763     9675.720     7059.165     3109.517        2.738        0.992      186.637       44.055        0.056      353.500       36.949      861.041
07/14/2014  14:10:00      -10.767      -70.124       10.883       57.982       67.168       42.496     3361.876     4511.587     1805.924        0.741        0.484       70.946       30.567        0.186      353.815       37.504      861.029
07/14/2014  14:11:00       76.513     -145.970       18.589       90.455       88.999       66.068     8182.078     7920.867     4364.981        2.398        1.023      164.807       45.242        0.075      353.631       37.180      861.019
07/14/2014  14:12:00      -20.864     -237.727       -6.491      118.865      127.450       65.183    14128.927    16243.513     4248.784        4.580        1.731      238.641       72.125        0.091      353.430       36.825      861.037
07/14/2014  14:13:00     -105.290     -134.202        0.283      123.171      110.811       46.599    15170.991    12279.042     2171.483        2.935        1.481      170.576       46.908        0.076      353.684       37.271      861.033
07/14/2014  14:14:00        2.046     -215.810        0.190       78.984      157.695       59.146     6238.498    24867.601     3498.268        4.058        1.730      215.820       65.128        0.091      353.502       36.951      861.051
07/14/2014  14:15:00      -22.336      -46.330       48.085       74.993      145.074       72.783     5623.906    21046.355     5297.396        1.846        1.598       51.433       90.231        3.078      353.451       36.865      861.036
07/14/2014  14:16:00       18.191       34.234       87.146       55.091       62.666       56.633     3035.008     3927.057     3207.341        0.963        0.508       38.767       45.964        1.406      353.275       36.556      860.996
07/14/2014  14:17:00       44.769       -6.624       28.553       41.594       47.946       38.767     1730.098     2298.793     1502.873        0.420        0.277       45.257       29.547        0.426      353.402       36.780      860.958
07/14/2014  14:18:00       22.459      -10.154       29.006       50.898       71.530       48.497     2590.608     5116.601     2351.940        0.575        0.503       24.648       40.237        2.665      352.933       35.958      860.926
07/14/2014  14:19:00       -1.409      -26.519       -6.316       56.238       23.730       24.454     3162.659      563.110      597.986        0.253        0.216       26.556       23.058        0.754      353.339       36.669      860.918
07/14/2014  14:20:00      -59.121       -2.757       21.232       50.693       44.256       34.876     2569.810     1958.607     1216.337        0.485        0.287       59.185       34.820        0.346      353.782       37.447      860.894
07/14/2014  14:21:00       36.016      -25.823       19.434       60.504       69.644       56.424     3660.709     4850.254     3183.713        0.702        0.585       44.316       45.438        1.051      353.720       37.336      860.864
07/14/2014  14:22:00       93.968     -154.062       -8.733       94.435      102.581       65.644     8917.971    10522.800     4309.090        2.819        1.187      180.458       50.751        0.079      353.814       37.501      860.829
07/14/2014  14:23:00      134.223      -42.570       74.118      119.318      135.074       87.258    14236.805    18244.975     7614.044        3.270        2.005      140.812      105.290        0.559      353.834       37.535      860.800
07/14/2014  14:24:00       74.265      100.681      115.158       88.763       75.120       53.870     7878.907     5643.010     2902.026        2.267        0.821      125.108       39.794        0.101      353.699       37.299      860.753
07/14/2014  14:25:00      151.795     -106.736       13.777      131.855      113.358       60.425    17385.864    12850.019     3651.149        3.425        1.694      185.565       66.587        0.129      353.772       37.427      860.742
07/14/2014  14:26:00      100.862       11.835       57.785      106.879       67.012       63.095    11423.124     4490.580     3981.015        1.677        0.995      101.554       65.655        0.418      353.723       37.341      860.701
07/14/2014  14:27:00      122.369     -172.021      -32.487      103.146      119.501       61.665    10639.170    14280.435     3802.612        3.717        1.436      211.106       63.410        0.090      353.849       37.559      860.690
07/14/2014  14:28:00      216.965     -259.472      -47.433      125.714      135.548       77.045    15803.885    18373.209     5935.863        7.837        2.006      338.230       74.861        0.049      353.793       37.463      860.662
07/14/2014  14:29:00       83.166      -93.550       48.119      138.600      154.199       88.417    19209.832    23777.218     7817.556        3.438        2.540      125.172      111.630        0.795      353.941       37.725      860.658
07/14/2014  14:30:00       -8.483     -157.337       -7.599       86.383       89.797       69.832     7462.042     8063.453     4876.548        2.264        1.020      157.566       42.864        0.074      354.070       37.950      860.660
07/14/2014  14:31:00      176.601     -214.384      -24.385      109.097      124.691       83.955    11902.090    15547.790     7048.442        5.611        1.725      277.756       87.037        0.098      353.850       37.562      860.638
07/14/2014  14:32:00       37.065      -83.446       60.547      112.344      121.032       95.480    12621.194    14648.636     9116.373        2.419        1.819       91.307       87.952        0.928      354.129       38.055      860.633
07/14/2014  14:33:00      111.976     -243.278      -39.842       75.256       79.142       53.128     5663.474     6263.427     2822.538        4.403        0.737      267.811       36.976        0.019      353.861       37.581      860.661
07/14/2014  14:34:00       71.888     -191.354        0.129      111.419       94.156       67.469    12414.297     8865.312     4552.071        3.380        1.292      204.412       48.495        0.056      353.822       37.513      860.680
07/14/2014  14:35:00     -260.682     -155.648        4.410      137.740       99.199       54.312    18972.351     9840.402     2949.770        6.198        1.588      303.614       40.669        0.018      353.738       37.365      860.685
07/14/2014  14:36:00     -193.553     -123.066       20.014      128.163      102.875       60.167    16425.729    10583.172     3620.028        4.181        1.531      229.364       56.505        0.061      353.858       37.577      860.685
07/14/2014  14:37:00     -124.961      -77.597       12.088      127.716       49.135       51.841    16311.287     2414.219     2687.520        2.159        1.071      147.094       53.144        0.131      354.023       37.869      860.693
07/14/2014  14:38:00      -88.943      -52.247       36.157       91.150       60.286       41.458     8308.384     3634.445     1718.753        1.280        0.683      103.153       45.499        0.195      354.269       38.301      860.690
07/14/2014  14:39:00       -4.668       -2.212       29.860       47.989       48.198       40.136     2302.942     2323.004     1610.882        0.358        0.312        5.166       27.358       28.049      354.093       37.993      860.660
07/14/2014  14:40:00       75.650     -167.660      -36.031      111.506       77.299       46.862    12433.654     5975.117     2196.053        2.786        1.030      183.937       44.219        0.058      353.741       37.371      860.649
07/14/2014  14:41:00       27.233      -99.788        5.461       70.789      109.211       46.896     5011.074    11927.062     2199.219        1.493        0.957      103.437       49.053        0.225      353.767       37.419      860.661
07/14/2014  14:42:00     -112.825     -296.658      -17.086      122.462      186.043       58.168    14997.042    34612.076     3383.479        7.700        2.650      317.389       40.800        0.017      353.839       37.544      860.661
07/14/2014  14:43:00      -86.579     -267.609       11.524      161.857      155.690       72.574    26197.696    24239.306     5267.020        6.746        2.785      281.266       54.967        0.038      353.932       37.705      860.697
07/14/2014  14:44:00      -65.914     -190.289      -13.649      119.165      116.699       67.962    14200.207    13618.573     4618.815        3.658        1.622      201.381       34.971        0.030      353.881       37.616      860.690
07/14/2014  14:45:00     -154.415     -210.875      -13.744      109.896      118.474       49.623    12077.136    14036.206     2462.454        4.853        1.429      261.366       32.325        0.015      354.068       37.945      860.708
07/14/2014  14:46:00     -138.920     -135.000       14.037      104.903       95.128       51.914    11004.644     9049.337     2695.062        3.023        1.137      193.711       40.627        0.044      354.013       37.849      860.714
07/14/2014  14:47:00     -188.036     -215.226      -14.065      108.590       84.841       55.244    11791.866     7197.930     3051.873        5.196        1.102      285.796       56.643        0.039      353.766       37.414      860.710
07/14/2014  14:48:00      -88.174      -87.284      -15.380       66.766       53.772       32.619     4457.694     2891.444     1064.029        1.202        0.421      124.069       31.434        0.064      353.754       37.397      860.659
07/14/2014  14:49:00       10.551     -166.058      -27.435       73.893      100.391       52.720     5460.124    10078.331     2779.434        2.337        0.916      166.393       45.106        0.073      353.996       37.821      860.641
07/14/2014  14:50:00       35.131     -217.284       -0.936       98.060       65.854       64.661     9615.708     4336.734     4181.036        3.329        0.907      220.106       51.199        0.054      353.580       37.088      860.654
07/14/2014  14:51:00       99.228     -256.578       -2.192      113.025      120.647       63.351    12774.687    14555.688     4013.371        5.351        1.567      275.097       46.431        0.028      353.665       37.238      860.634
07/14/2014  14:52:00      -27.106     -281.907      -15.299      109.736      104.664       42.775    12042.048    10954.576     1829.727        5.263        1.241      283.207       27.289        0.009      353.493       36.934      860.639
07/14/2014  14:53:00       97.035     -186.898       -8.957      123.304      103.776       74.116    15203.986    10769.405     5493.214        3.794        1.573      210.587       65.659        0.097      353.630       37.178      860.603
07/14/2014  14:54:00       98.430     -204.251      -16.406      134.104      130.466       94.405    17983.885    17021.324     8912.281        4.779        2.196      226.731       74.313        0.107      353.932       37.707      860.563
07/14/2014  14:55:00       40.083     -220.244      -16.664      108.926       98.668       73.747    11864.940     9735.280     5438.591        3.871        1.352      223.862       74.814        0.112      353.859       37.578      860.533
07/14/2014  14:56:00       97.352     -240.712      -58.042      142.403      149.651       75.884    20278.595    22395.555     5758.381        5.960        2.422      259.653       74.643        0.083      353.789       37.456      860.501
07/14/2014  14:57:00       52.014     -253.404      -34.078      154.720      121.940       96.294    23938.431    14869.315     9272.560        5.807        2.404      258.687       94.153        0.132      354.009       37.842      860.503
07/14/2014  14:58:00       -8.735     -147.539       21.694      119.643      120.005      108.399    14314.456    14401.309    11750.270        3.138        2.023      147.798       71.207        0.232      354.128       38.051      860.504
07/14/2014  14:59:00       65.396     -247.334       -7.233      146.023      109.945       76.260    21322.853    12087.885     5815.657        5.236        1.961      255.833       84.365        0.109      353.929       37.701      860.518
07/14/2014  15:00:00        2.548     -130.542      -19.629       76.267       64.368       50.486     5816.660     4143.300     2548.835        1.497        0.625      130.567       35.743        0.075      354.156       38.103      860.569
07/14/2014  15:01:00     -146.446      -87.397        5.250      105.911       67.124       44.534    11217.082     4505.630     1983.308        2.341        0.885      170.542       33.947        0.040      354.052       37.918      860.563
07/14/2014  15:02:00      -19.585      -83.994       10.943       73.148       55.337       30.092     5350.601     3062.166      905.549        0.844        0.466       86.247       33.018        0.147      353.813       37.500      860.553
07/14/2014  15:03:00        4.340       22.143       29.825       31.365       32.089       28.466      983.743     1029.706      810.333        0.211        0.141       22.564       18.269        0.656      354.022       37.868      860.515
07/14/2014  15:04:00       -5.129       -7.387        8.636       43.379       55.689       29.247     1881.741     3101.213      855.400        0.300        0.292        8.993       21.679        5.811      353.943       37.731      860.488
07/14/2014  15:05:00      -33.363     -175.117      -16.361      117.442      115.517       56.642    13792.539    13344.063     3208.345        3.119        1.517      178.266       53.011        0.088      354.111       38.023      860.508
07/14/2014  15:06:00       45.476     -293.312      -21.017       88.426      129.484       72.790     7819.204    16766.037     5298.358        5.921        1.494      296.817       45.331        0.023      353.868       37.594      860.519
07/14/2014  15:07:00      -83.040     -238.608      -14.313      109.700       87.625       58.890    12034.082     7678.221     3468.034        4.360        1.159      252.645       54.500        0.047      353.982       37.793      860.528
07/14/2014  15:08:00     -212.238     -115.558       10.644      126.583       92.934       49.243    16023.263     8636.683     2424.837        4.279        1.354      241.658       58.872        0.059      354.215       38.204      860.530
07/14/2014  15:09:00     -254.278     -168.021       -2.164      183.475      108.545       69.629    33662.981    11781.963     4848.264        7.158        2.515      304.776       79.049        0.067      353.981       37.793      860.546
07/14/2014  15:10:00     -144.143       -1.869        0.322      118.701      114.044       57.353    14089.869    13006.046     3289.420        2.558        1.519      144.155       63.913        0.197      353.850       37.564      860.515
07/14/2014  15:11:00      -56.028     -154.351       -4.684       98.212      118.117       47.299     9645.607    13951.612     2237.202        2.640        1.292      164.205       47.695        0.084      353.817       37.504      860.518
07/14/2014  15:12:00      -23.371      -58.770       11.731       67.273       39.951       36.788     4525.678     1596.050     1353.384        0.580        0.374       63.246       35.799        0.320      353.779       37.441      860.500
07/14/2014  15:13:00      -69.430      -64.370       -1.008       62.675       59.360       37.604     3928.113     3523.560     1414.044        0.891        0.443       94.679       24.310        0.066      353.994       37.819      860.459
07/14/2014  15:14:00       40.969      -37.104       10.269       46.999       73.659       56.959     2208.883     5425.644     3244.297        0.702        0.544       55.273       55.468        1.007      353.844       37.556      860.454
07/14/2014  15:15:00      -49.637       26.829        4.800       64.771       57.796       41.100     4195.220     3340.368     1689.230        0.621        0.461       56.424       25.341        0.202      354.119       38.036      860.428
07/14/2014  15:16:00     -134.216      -21.975        4.467       84.282       75.313       46.566     7103.419     5672.037     2168.397        1.673        0.747      136.003       43.908        0.104      354.397       38.528      860.419
07/14/2014  15:17:00     -208.040       63.932      -15.474      180.599      150.054       64.948    32615.934    22516.079     4218.236        5.347        2.968      217.642       65.126        0.090      354.622       38.920      860.386
07/14/2014  15:18:00     -292.926     -112.359      -16.270      132.737       87.454       65.745    17618.997     7648.205     4322.343        6.414        1.479      313.736       70.171        0.050      354.442       38.604      860.393
07/14/2014  15:19:00     -217.670      -69.966        2.209      129.398      103.534       65.218    16743.747    10719.237     4253.380        4.199        1.586      228.639       74.014        0.105      354.600       38.882      860.408
07/14/2014  15:20:00     -367.186     -126.590      -11.689      143.176      153.199       67.426    20499.419    23469.947     4546.262        9.974        2.426      388.394       71.780        0.034      354.417       38.559      860.418
07/14/2014  15:21:00     -377.163      -42.090      -29.436      101.177       83.320       49.772    10236.725     6942.198     2477.278        8.227        0.983      379.504       48.560        0.016      353.878       37.612      860.448
07/14/2014  15:22:00     -251.065      -26.118      -13.203      137.942      136.335       62.210    19027.863    18587.105     3870.071        5.268        2.074      252.420       63.436        0.063      354.254       38.271      860.405
07/14/2014  15:23:00     -301.631       -8.084      -31.926      136.009      161.992       68.395    18498.329    26241.431     4677.864        7.073        2.471      301.739       58.238        0.037      354.329       38.403      860.411
07/14/2014  15:24:00     -275.880        5.488      -34.848       91.615      153.001       51.395     8393.237    23409.369     2641.396        5.589        1.722      275.934       24.597        0.008      354.349       38.438      860.401
07/14/2014  15:25:00     -239.341     -106.823       -1.870      146.846       85.589       62.413    21563.810     7325.561     3895.330        5.074        1.639      262.098       56.752        0.047      354.432       38.586      860.399
07/14/2014  15:26:00     -194.718        7.625      -17.898      118.521       86.666       48.463    14047.315     7510.935     2348.683        3.110        1.195      194.867       33.683        0.030      354.257       38.278      860.415
07/14/2014  15:27:00     -177.418      -56.117       -2.833      109.644       98.451       64.740    12021.790     9692.625     4191.303        3.026        1.295      186.081       56.953        0.094      354.221       38.215      860.412
07/14/2014  15:28:00     -186.225      -45.298        1.396      107.447      108.802       64.040    11544.868    11837.977     4101.083        3.210        1.374      191.655       48.994        0.065      354.242       38.252      860.383
07/14/2014  15:29:00     -143.564       -9.140        7.120      125.044      122.874       39.827    15636.068    15097.917     1586.181        2.653        1.616      143.854       31.185        0.047      354.379       38.495      860.386
07/14/2014  15:30:00     -247.574      -13.325      -10.539      172.335      201.496       60.860    29699.289    40600.549     3703.975        6.778        3.700      247.932       45.515        0.034      354.258       38.280      860.368
07/14/2014  15:31:00     -147.732       79.723      -11.655       89.942       99.226       57.082     8089.497     9845.821     3258.358        2.475        1.060      167.870       53.911        0.103      354.331       38.408      860.381
07/14/2014  15:32:00     -138.977      -10.372        4.553      112.540       79.509       57.121    12665.363     6321.632     3262.773        2.084        1.112      139.363       55.865        0.161      354.419       38.564      860.353
07/14/2014  15:33:00     -112.154      214.514      -16.251      113.031      163.175       68.995    12775.917    26626.202     4760.255        5.150        2.208      242.064       79.991        0.109      354.410       38.549      860.351
07/14/2014  15:34:00     -227.119      175.380      -39.159      112.981      173.151       52.480    12764.778    29981.367     2754.149        6.468        2.275      286.951       52.919        0.034      353.988       37.804      860.367
07/14/2014  15:35:00     -118.957       67.588      -16.289      100.905      106.344       60.079    10181.759    11308.956     3609.481        2.204        1.255      136.817       67.323        0.242      354.059       37.930      860.347
07/14/2014  15:36:00      -72.135       41.465        2.010       64.611       75.195       39.234     4174.645     5654.307     1539.277        0.915        0.568       83.203       36.236        0.190      354.140       38.076      860.335
07/14/2014  15:37:00     -156.544      269.146      -34.939       80.490      110.470       49.467     6478.566    12203.555     2447.008        5.964        1.056      311.361       63.631        0.042      353.881       37.618      860.349
07/14/2014  15:38:00     -134.099      145.039      -25.884       98.155       67.967       52.346     9634.472     4619.474     2740.063        2.834        0.850      197.532       53.813        0.074      353.972       37.777      860.332
07/14/2014  15:39:00      -54.864       70.684        7.397       54.978       68.449       35.305     3022.631     4685.309     1246.414        0.851        0.448       89.478       34.838        0.152      354.274       38.311      860.314
07/14/2014  15:40:00     -113.833       64.065      -10.248       78.659       65.393       36.140     6187.256     4276.309     1306.111        1.447        0.588      130.623       40.357        0.095      353.994       37.819      860.311
07/14/2014  15:41:00     -127.327       76.763      -19.692       73.931       76.857       40.032     5465.777     5907.070     1602.561        1.773        0.649      148.677       35.336        0.056      354.020       37.863      860.307
07/14/2014  15:42:00     -191.318       64.119      -14.856      105.362       87.026       47.917    11101.220     7573.553     2296.065        3.095        1.049      201.776       53.026        0.069      353.840       37.548      860.300
07/14/2014  15:43:00      -82.232       19.998        0.142       60.907       65.446       35.715     3709.666     4283.146     1275.566        0.821        0.463       84.629       29.737        0.123      353.957       37.754      860.297
07/14/2014  15:44:00      -46.250       43.942       27.107       73.993      104.789       46.311     5474.964    10980.765     2144.726        1.170        0.930       63.796       38.504        0.364      353.987       37.806      860.286
07/14/2014  15:45:00     -123.896      110.521       -3.832       99.482       98.767       66.127     9896.597     9754.935     4372.777        2.580        1.201      166.028       62.325        0.141      353.709       37.315      860.315
07/14/2014  15:46:00     -180.889       14.915      -25.772       57.855       83.147       34.227     3347.239     6913.424     1171.502        2.252        0.572      181.503       34.405        0.036      353.547       37.031      860.310
07/14/2014  15:47:00      -85.581       64.202       -2.869       42.770       77.405       37.235     1829.259     5991.543     1386.463        1.033        0.460      106.986       29.680        0.077      353.641       37.200      860.296
07/14/2014  15:48:00     -134.071       63.468      -16.348       41.299       65.144       32.158     1705.641     4243.737     1034.134        1.463        0.349      148.335       19.938        0.018      353.530       37.004      860.285
07/14/2014  15:49:00     -113.502        4.378       -2.610       58.568       56.139       33.453     3430.226     3151.592     1119.076        1.030        0.385      113.586       35.324        0.097      353.629       37.177      860.283
07/14/2014  15:50:00     -100.484       23.717      -22.073       52.790       59.510       34.429     2786.732     3541.479     1185.378        0.933        0.376      103.245       30.128        0.085      353.620       37.162      860.272
07/14/2014  15:51:00     -124.352       23.614       -3.290       68.010       57.681       36.258     4625.328     3327.075     1314.668        1.265        0.463      126.574       40.766        0.104      353.598       37.123      860.266
07/14/2014  15:52:00     -240.841       68.880      -31.697       86.625       58.792       36.672     7503.931     3456.469     1344.860        3.803        0.615      250.497       21.929        0.008      353.493       36.936      860.259
07/14/2014  15:53:00     -168.912       14.821      -28.322       85.820       78.126       44.599     7365.130     6103.706     1989.073        2.250        0.773      169.560       48.287        0.081      353.638       37.193      860.252
07/14/2014  15:54:00      -96.766       97.576      -24.295       52.258       99.067       40.948     2730.885     9814.309     1676.699        1.685        0.711      137.422       41.807        0.093      353.615       37.153      860.231
07/14/2014  15:55:00      -72.969       34.752        1.108       68.958       79.849       34.752     4755.209     6375.813     1207.706        0.943        0.617       80.822       28.856        0.127      353.655       37.225      860.196
07/14/2014  15:56:00     -112.005       90.650      -18.063       71.530       71.400       44.193     5116.502     5097.917     1952.999        1.663        0.608      144.092       54.326        0.142      353.651       37.213      860.181
07/14/2014  15:57:00      -76.598       59.658       -6.726       40.638       37.929       28.687     1651.455     1438.629      822.959        0.669        0.196       97.089       23.785        0.060      353.621       37.165      860.156
07/14/2014  15:58:00     -117.928      -21.614       -0.608       59.489       47.492       38.009     3538.913     2255.444     1444.680        1.081        0.362      119.892       34.874        0.085      353.724       37.345      860.142
07/14/2014  15:59:00      -50.566        4.425       30.685       86.337       52.507       42.248     7454.106     2756.947     1784.925        0.775        0.600       50.760       48.329        0.907      353.651       37.218      860.112
07/14/2014  16:00:00     -103.450       -9.696        3.164       78.238       63.281       33.925     6121.139     4004.427     1150.886        1.104        0.564      103.903       34.163        0.108      353.648       37.211      860.100
07/14/2014  16:01:00     -102.591       38.542      -18.384       70.421       66.703       26.774     4959.144     4449.317      716.836        1.123        0.506      109.591       21.894        0.040      353.658       37.226      860.101
07/14/2014  16:02:00     -181.727      -46.386       -3.446      109.347       95.080       52.822    11956.774     9040.206     2790.211        2.948        1.189      187.554       29.226        0.024      353.620       37.161      860.080
07/14/2014  16:03:00     -137.630       56.237      -18.765       62.063       58.825       31.680     3851.764     3460.399     1003.625        1.538        0.416      148.676       29.280        0.039      353.581       37.092      860.077
07/14/2014  16:04:00     -152.555      -10.751       -7.132       68.873       74.270       42.238     4743.471     5516.053     1784.016        1.774        0.602      152.934       35.669        0.054      353.583       37.096      860.073
07/14/2014  16:05:00     -152.001      -33.325        9.541      100.655       85.525       44.754    10131.521     7314.473     2002.956        2.187        0.972      155.611       50.373        0.105      353.608       37.141      860.068
07/14/2014  16:06:00     -147.150      -12.776       -6.330       95.108       43.719       34.947     9045.567     1911.359     1221.323        1.701        0.609      147.703       38.605        0.068      353.582       37.096      860.091
07/14/2014  16:07:00     -241.764      -61.073      -29.971       96.419       87.312       57.914     9296.695     7623.319     3354.063        4.167        1.014      249.359       31.781        0.016      353.581       37.091      860.104
07/14/2014  16:08:00     -247.786        0.455      -42.756       94.049       89.286       44.780     8845.143     7971.918     2005.232        4.102        0.941      247.787       45.222        0.033      353.502       36.952      860.120
07/14/2014  16:09:00     -148.023       80.181      -15.126      130.308      162.124       64.001    16980.158    26284.299     4096.098        3.795        2.368      168.344       78.810        0.219      353.454       36.868      860.106
07/14/2014  16:10:00     -264.701      -67.411      -25.877      115.264       94.030       62.879    13285.866     8841.603     3953.755        5.068        1.304      273.150       62.731        0.053      353.338       36.664      860.111
07/14/2014  16:11:00     -242.451      -46.313      -15.821      113.149      119.042       61.687    12802.774    14171.032     3805.242        4.597        1.539      246.835       48.879        0.039      353.321       36.632      860.105
07/14/2014  16:12:00     -405.067     -102.652      -16.974      148.897      115.352       67.061    22170.446    13306.001     4497.201       10.743        1.999      417.871       54.877        0.017      353.232       36.476      860.087
07/14/2014  16:13:00     -347.021      -71.158      -22.155      132.424      114.902       64.381    17535.990    13202.550     4144.907        8.042        1.744      354.241       62.367        0.031      353.199       36.417      860.078
07/14/2014  16:14:00     -302.480     -101.977       -9.043      213.858      152.477       99.298    45735.310    23249.128     9860.024        9.039        3.942      319.208      112.739        0.125      353.230       36.473      860.073
07/14/2014  16:15:00     -368.240      -69.925      -11.654      178.586      155.114       85.207    31892.825    24060.380     7260.225       10.191        3.161      374.820       80.869        0.047      353.189       36.402      860.079
07/14/2014  16:16:00     -386.797     -123.464      -14.305      161.913      136.787       76.597    26215.965    18710.678     5867.032       10.792        2.540      406.024       76.199        0.035      353.252       36.511      860.085
07/14/2014  16:17:00     -270.308      -84.493        1.315      226.212      149.453       76.687    51172.090    22336.294     5880.931        7.978        3.969      283.205       97.275        0.118      353.260       36.527      860.107
07/14/2014  16:18:00     -481.807      -40.761      -26.977      201.753      173.521       87.537    40704.364    30109.564     7662.795       15.649        3.924      483.528       96.373        0.040      353.226       36.467      860.150
07/14/2014  16:19:00     -621.334      -36.024      -53.930      288.658      199.432       94.712    83323.434    39773.125     8970.411       26.114        6.603      622.377      124.775        0.040      352.749       35.631      860.157
07/14/2014  16:20:00     -412.027      -38.400      -31.217      166.094      171.893       75.123    27587.355    29547.300     5643.512       11.748        3.139      413.812       75.027        0.033      352.592       35.356      860.148
07/14/2014  16:21:00     -417.357     -148.655      -18.477      200.577      129.674       81.383    40231.210    16815.302     6623.130       13.014        3.183      443.041       47.589        0.012      352.550       35.281      860.125
07/14/2014  16:22:00     -567.938     -109.481      -33.269      243.267      224.645      101.675    59178.606    50465.508    10337.726       22.779        5.999      578.394      114.484        0.039      352.333       34.902      860.150
07/14/2014  16:23:00     -489.520     -145.095      -21.279      230.306      158.666      103.228    53040.964    25175.015    10655.946       17.499        4.444      510.570       98.011        0.037      352.385       34.995      860.143
07/14/2014  16:24:00     -507.990     -118.273      -25.300      129.974      135.564       70.831    16893.279    18377.648     5017.084       15.648        2.014      521.577       50.027        0.009      352.478       35.156      860.173
07/14/2014  16:25:00     -318.620      -45.886       -4.793      187.348      120.723       68.900    35099.161    14573.960     4747.214        7.902        2.721      321.907       86.885        0.073      352.635       35.432      860.163
07/14/2014  16:26:00     -269.190      -79.207       -6.200      115.201      101.770       52.424    13271.355    10357.183     2748.298        5.257        1.319      280.601       39.181        0.019      352.709       35.559      860.175
07/14/2014  16:27:00     -260.718      -70.546       -8.480      136.389      110.611       56.884    18602.088    12234.783     3235.791        5.354        1.704      270.093       61.688        0.052      352.847       35.803      860.173
07/14/2014  16:28:00     -224.223      -52.756       -5.626      110.528       90.483       58.701    12216.430     8187.150     3445.801        3.847        1.192      230.346       56.431        0.060      352.887       35.874      860.174
07/14/2014  16:29:00     -229.641       18.540       -1.155      144.182      141.152       72.413    20788.374    19923.989     5243.605        4.951        2.298      230.388       51.773        0.050      352.928       35.945      860.177
07/14/2014  16:30:00     -343.880      -19.910      -24.582      168.347      119.607       74.589    28340.640    14305.784     5563.455        8.372        2.410      344.456       85.869        0.062      352.914       35.919      860.181
07/14/2014  16:31:00     -307.904      -91.757      -17.785      173.728       91.424       53.199    30181.366     8358.353     2830.126        7.245        2.068      321.286       66.967        0.043      352.800       35.719      860.172
07/14/2014  16:32:00     -518.980      -13.363      -49.608      275.141      123.472       86.412    75702.443    15245.343     7466.984       18.518        4.921      519.152      125.079        0.058      352.626       35.417      860.155
07/14/2014  16:33:00     -693.882      -21.940      -63.567      171.062      138.044       93.883    29262.157    19056.131     8814.063       27.155        2.857      694.229       88.058        0.016      352.332       34.900      860.194
07/14/2014  16:34:00     -225.515      -46.479      -37.333      171.531      126.368       83.045    29422.771    15968.862     6896.506        5.334        2.614      230.255       46.085        0.040      352.305       34.856      860.211
07/14/2014  16:35:00     -234.124     -100.268      -19.496      125.841      105.905       69.659    15836.048    11215.836     4852.424        4.857        1.595      254.691       54.504        0.046      352.190       34.654      860.224
07/14/2014  16:36:00     -237.470      103.196      -18.442      219.001      175.849       81.419    47961.276    30922.978     6629.051        7.643        4.276      258.923       99.935        0.149      352.193       34.659      860.238
07/14/2014  16:37:00     -220.280       35.616      -27.616      162.448      146.957       81.977    26389.438    21596.290     6720.205        5.262        2.735      223.140       77.667        0.121      352.178       34.634      860.234
07/14/2014  16:38:00     -464.887      -93.572      -41.674      192.639      140.312       81.235    37109.645    19687.522     6599.200       14.499        3.170      474.210       75.707        0.025      352.097       34.492      860.219
07/14/2014  16:39:00     -281.626      -66.223      -10.947      143.294      131.071       72.925    20533.038    17179.502     5318.078        6.342        2.152      289.307       72.419        0.063      352.040       34.390      860.262
07/14/2014  16:40:00     -202.728       68.787      -40.179       68.374       95.380       48.917     4674.956     9097.311     2392.836        3.180        0.808      214.080       51.039        0.057      352.108       34.513      860.286
07/14/2014  16:41:00     -195.281       66.263      -24.855      112.395      114.742       56.030    12632.694    13165.804     3139.327        3.603        1.447      206.217       50.601        0.060      352.047       34.403      860.290
07/14/2014  16:42:00      -94.624       15.445      -29.214       74.004       66.699       42.425     5476.573     4448.770     1799.880        1.088        0.586       95.877       28.542        0.089      352.049       34.410      860.277
07/14/2014  16:43:00     -179.302      -84.330       -8.519      134.462      107.943       69.816    18079.932    11651.696     4874.255        3.696        1.730      198.143       52.269        0.070      351.966       34.261      860.279
07/14/2014  16:44:00     -283.121      -59.035      -19.321      141.793      103.944       55.784    20105.317    10804.308     3111.866        5.901        1.701      289.210       64.858        0.050      351.969       34.264      860.296
07/14/2014  16:45:00     -275.044      -77.101      -19.408      135.251      114.106       70.402    18292.884    13020.086     4956.509        5.911        1.813      285.646       53.240        0.035      352.038       34.388      860.325
07/14/2014  16:46:00     -397.388      -88.377      -38.870      189.573      140.386       88.894    35937.814    19708.142     7902.141       11.538        3.177      407.097       64.649        0.025      351.936       34.208      860.354
07/14/2014  16:47:00     -442.521      -41.251      -53.629      245.819      169.647       96.462    60426.786    28780.148     9304.944       14.944        4.926      444.440      110.713        0.062      351.598       33.622      860.408
07/14/2014  16:48:00     -509.069      -27.949      -48.758      179.186      160.172       95.666    32107.480    25654.948     9151.902       16.460        3.346      509.836       85.021        0.028      351.386       33.250      860.408
07/14/2014  16:49:00     -469.114      -25.464      -26.332      267.875      211.235      119.819    71756.871    44620.304    14356.504       17.605        6.537      469.804      117.355        0.062      351.450       33.362      860.397
07/14/2014  16:50:00     -423.331      -99.825      -47.642      178.909      173.124      102.752    32008.378    29972.056    10557.992       13.198        3.627      434.942       72.540        0.028      351.404       33.282      860.419
07/14/2014  16:51:00     -465.146      -96.882      -11.000      305.236      202.062      119.135    93169.017    40829.082    14193.258       18.700        7.410      475.128      161.517        0.116      351.457       33.375      860.439
07/14/2014  16:52:00     -502.917     -157.641      -56.852      226.469      209.688      110.448    51288.262    43969.171    12198.841       19.421        5.373      527.045       77.102        0.021      351.382       33.243      860.461
07/14/2014  16:53:00     -501.294     -123.627      -18.914      201.147      165.302       92.298    40459.974    27324.838     8518.904       17.161        3.815      516.313       87.734        0.029      351.264       33.037      860.492
07/14/2014  16:54:00     -250.936      -18.759        4.446      193.119      135.831       71.864    37294.771    18450.140     5164.505        6.211        3.045      251.636       66.916        0.071      351.096       32.745      860.559
07/14/2014  16:55:00     -300.790      -29.122      -48.936      159.681      157.974       77.778    25497.892    24955.711     6049.346        7.510        2.825      302.196       73.769        0.060      350.973       32.530      860.577
07/14/2014  16:56:00     -339.376       29.368      -32.671      152.030      155.096       78.307    23113.232    24054.736     6132.051        8.519        2.665      340.644       64.656        0.036      350.857       32.329      860.643
07/14/2014  16:57:00     -277.080       75.238      -44.458      169.012      136.732       76.899    28564.957    18695.636     5913.472        6.878        2.659      287.113       49.189        0.029      350.728       32.104      860.710
07/14/2014  16:58:00     -323.933       62.880      -41.491      135.690      134.259       85.065    18411.728    18025.381     7236.096        7.713        2.184      329.980       67.879        0.042      350.618       31.913      860.759
07/14/2014  16:59:00     -171.066       79.523       -2.103      152.794      106.562       93.846    23345.928    11355.558     8807.130        3.954        2.175      188.647       84.095        0.199      350.684       32.028      860.737
07/14/2014  17:00:00     -200.222      161.477      -22.345      134.975      171.260       88.077    18218.346    29330.149     7757.492        6.097        2.765      257.223       92.719        0.130      350.778       32.192      860.751
07/14/2014  17:01:00     -241.531      107.334      -19.399      172.233      231.373       90.053    29664.269    53533.670     8109.582        8.075        4.565      264.306       87.353        0.109      350.837       32.294      860.799
07/14/2014  17:02:00     -226.161       80.374       -9.963      160.754      132.483       76.309    25841.955    17551.743     5823.039        5.345        2.461      240.019       80.840        0.113      350.741       32.129      860.870
07/14/2014  17:03:00     -201.406      136.501      -35.515      101.109      145.132       75.575    10222.943    21063.260     5711.630        4.872        1.850      243.304       61.363        0.064      350.740       32.124      860.921
07/14/2014  17:04:00     -181.513       78.835      -14.249      111.997       79.273       56.577    12543.384     6284.278     3200.945        3.069        1.101      197.894       53.789        0.074      350.772       32.181      860.926
07/14/2014  17:05:00     -138.738       86.729       -8.764      103.732      110.369       48.844    10760.259    12181.420     2385.703        2.608        1.266      163.616       52.963        0.105      350.781       32.198      860.950
07/14/2014  17:06:00     -185.909       54.411      -11.164      106.680       77.577       54.005    11380.662     6018.241     2916.494        2.898        1.016      193.708       55.268        0.081      350.710       32.073      860.980
07/14/2014  17:07:00     -164.565      115.655      -16.275      113.086      120.009       64.101    12788.489    14402.124     4108.984        3.600        1.565      201.141       67.754        0.113      350.657       31.981      861.012
07/14/2014  17:08:00     -214.630       92.930      -16.360      106.865      142.929       69.730    11420.162    20428.619     4862.210        4.583        1.836      233.885       58.998        0.064      350.649       31.967      861.062
07/14/2014  17:09:00     -150.842       83.047        0.822      111.596       91.315       63.625    12453.699     8338.451     4048.125        2.724        1.242      172.192       51.097        0.088      350.377       31.494      861.133
07/14/2014  17:10:00     -198.449      -46.792       -7.564      109.046       96.299       49.938    11891.129     9273.462     2493.780        3.264        1.183      203.891       49.503        0.059      350.191       31.172      861.229
07/14/2014  17:11:00     -215.277      -65.968       -7.897      142.679       99.208       63.727    20357.189     9842.136     4061.091        4.250        1.713      225.158       60.936        0.073      349.950       30.753      861.332
07/14/2014  17:12:00     -177.336      -33.601        0.226       82.782       91.158       43.358     6852.813     8309.703     1879.920        2.481        0.852      180.491       42.287        0.055      349.578       30.108      861.442
07/14/2014  17:13:00     -197.393      -15.175       -7.265       79.083       78.314       39.671     6254.175     6133.009     1573.813        2.660        0.698      197.976       37.801        0.036      349.736       30.381      861.523
07/14/2014  17:14:00     -134.157      -17.229       -3.908       51.636       47.693       28.440     2666.235     2274.584      808.838        1.203        0.287      135.259       30.477        0.051      349.691       30.304      861.569
07/14/2014  17:15:00     -102.865       -5.183       -6.457       58.975       41.240       26.277     3478.017     1700.730      690.475        0.826        0.293      102.996       28.780        0.078      349.621       30.185      861.603
07/14/2014  17:16:00      -75.632      -22.530        3.011       45.802       46.078       26.015     2097.816     2123.175      676.762        0.557        0.245       78.917       24.968        0.100      349.581       30.114      861.653
07/14/2014  17:17:00      -51.184      -44.891        8.668       53.625       44.408       29.666     2875.596     1972.063      880.067        0.522        0.286       68.081       30.901        0.206      349.555       30.068      861.700
07/14/2014  17:18:00      -18.653      -44.415       10.632       30.767       25.882       21.735      946.624      669.866      472.405        0.226        0.104       48.173       21.964        0.208      349.361       29.734      861.776
07/14/2014  17:19:00      -43.442      -80.823       -0.622       35.907       34.528       15.975     1289.311     1192.202      255.187        0.558        0.137       91.758       15.162        0.027      349.344       29.704      861.890
07/14/2014  17:20:00        3.616     -201.929        3.082       72.466       52.608       37.303     5251.276     2767.567     1391.496        2.510        0.471      201.962       21.550        0.011      349.246       29.529      861.994
07/14/2014  17:21:00       92.347     -198.439      -51.824      105.987       98.986       85.199    11233.265     9798.262     7258.935        3.944        1.415      218.874       72.204        0.109      348.516       28.266      862.044
07/14/2014  17:22:00      165.578     -184.156       19.499      167.919      216.204      128.179    28196.756    46744.328    16429.943        7.652        4.569      247.647      136.469        0.304      348.984       29.077      862.033
07/14/2014  17:23:00      211.449      -59.277      141.323      245.836      394.536      220.719    60435.217   155658.467    48717.031       16.645       13.241      219.600      276.603        1.587      349.590       30.127      861.879
07/14/2014  17:24:00      201.973     -147.609       68.052      252.270      291.365      126.379    63639.992    84893.669    15971.545       11.583        8.225      250.163      183.487        0.538      349.104       29.284      861.947
07/14/2014  17:25:00      145.908      -83.898       91.378      227.658      193.085      129.495    51828.031    37281.626    16768.894        7.126        5.294      168.309      126.618        0.566      349.141       29.350      861.947
07/14/2014  17:26:00       67.698       -7.851       72.003       85.738      137.893       82.464     7351.041    19014.592     6800.282        2.149        1.658       68.152       83.530        1.502      348.632       28.468      861.992
07/14/2014  17:27:00      115.104      -71.277       97.990      133.552      212.300      128.383    17836.163    45071.393    16482.154        5.364        3.969      135.386      132.444        0.957      349.449       29.882      861.940
07/14/2014  17:28:00      119.002     -254.805       24.636      167.004      205.880      105.233    27890.270    42386.505    11074.021        8.051        4.068      281.225      120.999        0.185      349.086       29.252      861.948
07/14/2014  17:29:00      -17.171     -218.815       22.391      102.122      154.588       72.566    10428.888    23897.326     5265.850        4.413        1.980      219.487       51.123        0.054      348.962       29.039      862.047
07/14/2014  17:30:00      -72.163     -177.028      -10.581      105.425      147.610       69.805    11114.422    21788.626     4872.711        3.721        1.889      191.171       64.535        0.114      349.370       29.745      862.117
07/14/2014  17:31:00       49.826     -136.817        1.745      113.979       97.054       67.633    12991.294     9419.495     4574.273        2.409        1.349      145.607       48.400        0.110      349.460       29.904      862.123
07/14/2014  17:32:00      -40.560     -145.728        8.168      140.012      110.136       57.752    19603.417    12129.915     3335.255        2.900        1.753      151.268       32.613        0.046      350.076       30.972      862.124
07/14/2014  17:33:00     -169.723     -119.380       -1.914       77.384       68.608       39.528     5988.209     4707.054     1562.432        2.766        0.613      207.503       37.534        0.033      349.688       30.296      862.119
07/14/2014  17:34:00     -205.082     -119.847        8.950      175.079      114.715       71.541    30652.714    13159.547     5118.101        5.271        2.447      237.533       81.172        0.117      350.009       30.853      862.177
07/14/2014  17:35:00     -176.134     -107.890       26.427      204.092      150.570       72.388    41653.448    22671.257     5240.054        5.645        3.478      206.552       90.913        0.194      349.585       30.120      862.126
07/14/2014  17:36:00     -199.319     -258.845        8.131      202.009      156.793       85.975    40807.482    24584.099     7391.746        8.977        3.639      326.694       83.848        0.066      349.563       30.079      862.037
07/14/2014  17:37:00     -294.812     -265.239        0.772      186.558      175.569       93.687    34803.731    30824.335     8777.315       11.582        3.720      396.567      103.756        0.068      349.878       30.624      861.933
07/14/2014  17:38:00     -169.441     -263.914        1.162      118.733      158.865       57.057    14097.627    25238.222     3255.507        7.047        2.130      313.625       56.239        0.032      350.733       32.112      861.862
07/14/2014  17:39:00     -381.896      -16.989      -20.049      222.613      149.445       82.453    49556.729    22333.893     6798.500       11.260        3.934      382.274       96.458        0.064      350.250       31.273      861.814
07/14/2014  17:40:00     -516.948     -134.610      -11.593      197.575      180.753       97.664    39036.051    32671.555     9538.217       18.335        4.062      534.187      102.593        0.037      350.300       31.359      861.758
07/14/2014  17:41:00     -608.842     -145.418      -28.808      203.456      171.746       90.014    41394.316    29496.560     8102.561       23.581        3.950      625.967      103.905        0.028      350.357       31.460      861.584
07/14/2014  17:42:00     -650.624     -150.924      -50.684      156.510      172.607       82.178    24495.303    29793.043     6753.263       25.484        3.052      667.899       71.589        0.011      349.749       30.402      861.534
07/14/2014  17:43:00     -878.983     -283.422      -15.942      309.642      236.022      120.037    95878.240    55706.564    14408.914       50.956        8.300      923.547      130.229        0.020      349.930       30.716      861.465
07/14/2014  17:44:00     -745.744     -101.045      -72.154      313.709      185.844       97.826    98413.080    34538.171     9569.898       35.701        7.126      752.559      128.247        0.029      350.388       31.513      861.738
07/14/2014  17:45:00      -92.479      522.934      -56.895      337.870      261.361      120.533   114156.029    68309.756    14528.297       24.108        9.850      531.049      142.032        0.072      351.726       33.843      861.728
07/14/2014  17:46:00     -222.711      489.550      -72.899      188.550      260.413      102.271    35551.056    67814.774    10459.291       20.418        5.691      537.828      124.081        0.053      351.411       33.294      861.492
07/14/2014  17:47:00     -380.973      -58.435      -47.896      118.458      164.031       73.780    14032.326    26906.026     5443.507        9.861        2.319      385.428       59.344        0.024      350.709       32.072      861.667
07/14/2014  17:48:00     -488.193      -98.443      -18.877      161.327      124.110       83.177    26026.551    15403.329     6918.365       14.835        2.417      498.019       84.726        0.029      350.529       31.756      861.626
07/14/2014  17:49:00     -393.314      -91.321      -14.509      158.074      117.709       68.890    24987.307    13855.523     4745.827       10.341        2.179      403.776       77.295        0.037      350.297       31.353      861.647
07/14/2014  17:50:00     -321.147      -56.623      -11.623      182.184      141.078       63.777    33190.836    19902.871     4067.551        8.181        2.858      326.101       67.079        0.042      349.893       30.654      861.709
07/14/2014  17:51:00     -464.221     -141.897      -21.879      303.397      223.000      121.953    92049.927    49729.045    14872.492       19.635        7.833      485.423      148.971        0.094      349.862       30.599      861.631
07/14/2014  17:52:00     -415.555     -233.224       -6.573      287.928      232.880      124.047    82902.802    54232.874    15387.608       18.979        7.626      476.528      142.246        0.089      350.183       31.158      861.537
07/14/2014  17:53:00     -298.450     -125.468       19.748      284.147      231.286      126.370    80739.508    53493.148    15969.256       12.767        7.510      323.751      159.711        0.243      350.153       31.105      861.652
07/14/2014  17:54:00     -457.702      -26.475      -38.447      256.033      187.147       98.809    65552.860    35024.038     9763.226       16.098        5.517      458.467      114.608        0.062      349.053       29.195      861.795
07/14/2014  17:55:00     -465.786     -101.345      -35.586      213.850      207.803       99.114    45731.929    43182.131     9823.542       16.360        4.937      476.684      102.337        0.046      350.294       31.349      861.692
07/14/2014  17:56:00     -462.176      -32.454      -28.619      193.790      218.227       86.085    37554.524    47623.069     7410.667       15.402        4.629      463.314       70.157        0.023      350.438       31.600      861.655
07/14/2014  17:57:00     -496.093      -25.466      -54.667      261.326      148.302      102.581    68291.337    21993.591    10522.860       17.526        5.040      496.746      104.478        0.044      350.189       31.166      861.675
07/14/2014  17:58:00     -536.973     -126.311      -66.860      334.102      244.762      120.444   111624.255    59908.217    14506.660       24.736        9.302      551.629      124.568        0.051      349.779       30.454      861.630
07/14/2014  17:59:00     -557.447     -154.925      -53.825      353.300      196.314      131.568   124821.130    38539.295    17310.213       25.912        9.034      578.575      174.346        0.091      349.900       30.664      861.682
07/14/2014  18:00:00     -618.083     -110.726      -68.573      351.771      246.306      139.647   123742.887    60666.799    19501.165       30.141       10.196      627.922      132.523        0.045      350.483       31.679      861.690
07/14/2014  18:01:00     -512.609      120.830      -77.877      224.887      268.197      127.456    50574.093    71929.504    16244.986       21.106        6.937      526.657      137.338        0.068      350.853       32.322      861.837
07/14/2014  18:02:00     -374.105      118.852      -25.153      255.204      196.158      119.539    65128.850    38477.903    14289.618       13.628        5.895      392.530      111.680        0.081      351.079       32.716      861.958
07/14/2014  18:03:00     -499.366      469.533     -110.981      196.631      206.957      115.373    38663.871    42831.017    13310.856       28.846        4.740      685.440      112.545        0.027      350.887       32.380      862.069
07/14/2014  18:04:00     -397.994      444.891      -91.796      205.749      239.672      109.614    42332.723    57442.906    12015.176       23.825        5.590      596.932       94.182        0.025      350.915       32.430      862.091
07/14/2014  18:05:00     -167.597      688.778      -83.097      155.888      290.056       86.882    24301.064    84132.736     7548.435       31.267        5.799      708.875       92.241        0.017      350.598       31.879      862.153
07/14/2014  18:06:00     -112.982      592.383      -59.179      289.797      420.961      170.776    83982.480   177207.941    29164.431       32.871       14.518      603.061      207.328        0.118      350.583       31.852      862.031
07/14/2014  18:07:00      -13.428     1024.350     -139.034      179.704      346.115      126.521    32293.646   119795.894    16007.642       61.842        8.405     1024.438      158.661        0.024      351.214       32.950      862.141
07/14/2014  18:08:00     -144.950      839.080     -106.126      190.133      252.383       93.911    36150.499    63697.214     8819.321       42.248        5.433      851.508       75.901        0.008      351.276       33.057      862.022
07/14/2014  18:09:00     -171.152      425.291      -69.769      114.462      274.073       68.209    13101.497    75115.936     4652.406       15.393        4.643      458.438       94.176        0.042      351.015       32.604      861.851
07/14/2014  18:10:00     -432.481      410.661      -98.442      175.065      200.729       90.227    30647.832    40292.168     8140.980       22.221        3.954      596.391      104.986        0.031      351.057       32.677      861.754
07/14/2014  18:11:00     -420.597      664.969     -123.933      227.835      306.507      123.266    51908.743    93946.499    15194.595       39.772        8.052      786.821      136.000        0.030      351.277       33.060      861.732
07/14/2014  18:12:00     -152.763      797.497     -114.221      225.580      287.160      110.412    50886.493    82460.683    12190.770       40.893        7.277      811.996      123.988        0.023      351.503       33.454      861.680
07/14/2014  18:13:00     -243.322      840.023      -88.998      228.864      347.460      127.143    52378.609   120728.161    16165.254       48.098        9.464      874.554      126.112        0.021      351.361       33.207      861.671
07/14/2014  18:14:00     -155.833      855.733     -119.104      207.324      235.687      112.179    42983.182    55548.404    12584.205       44.091        5.556      869.806      114.388        0.017      351.488       33.429      861.799
07/14/2014  18:15:00      -87.602      648.220      -84.862      139.992      171.843       80.755    19597.714    29529.978     6521.334       24.535        2.782      654.112       75.965        0.013      351.497       33.443      861.769
07/14/2014  18:16:00     -204.466      193.539      -44.261      206.428      192.825       84.504    42612.631    37181.447     7141.007        8.406        4.347      281.538       75.278        0.071      351.306       33.110      861.706
07/14/2014  18:17:00     -343.974      354.980      -84.589      102.521      213.976       73.199    10510.467    45785.688     5358.092       15.656        3.083      494.297       82.547        0.028      351.192       32.911      861.709
07/14/2014  18:18:00     -200.763      496.994      -50.040      168.133      316.080       96.435    28268.634    99906.720     9299.669       21.362        6.874      536.012      114.071        0.045      351.006       32.586      861.759
07/14/2014  18:19:00     -391.282      201.013      -60.286      230.060      229.105      100.431    52927.423    52489.178    10086.464       15.630        5.775      439.896      114.474        0.068      351.022       32.616      861.636
07/14/2014  18:20:00     -343.227      417.312      -89.487      153.403      195.943       99.101    23532.412    38393.823     9821.009       18.584        3.587      540.328       76.918        0.020      351.009       32.593      861.539
07/14/2014  18:21:00     -390.544      487.015      -98.113      148.887      206.125       99.997    22167.222    42487.678     9999.354       23.698        3.733      624.266       86.255        0.019      351.020       32.610      861.635
07/14/2014  18:22:00     -377.933      301.077      -62.611      171.390      221.117       95.548    29374.567    48892.755     9129.348       16.238        4.370      483.198       98.857        0.042      350.931       32.457      861.576
07/14/2014  18:23:00     -348.123      155.051      -43.698      171.303      196.732      121.580    29344.856    38703.516    14781.614       11.497        4.141      381.091      111.420        0.085      350.784       32.202      861.537
07/14/2014  18:24:00     -309.233      359.041      -47.030      171.909      175.273      108.108    29552.636    30720.552    11687.297       14.934        3.598      473.852      113.555        0.057      350.728       32.104      861.448
07/14/2014  18:25:00     -340.046      398.064      -61.951      178.241      244.922      105.854    31769.756    59987.005    11204.966       19.042        5.148      523.532      101.298        0.037      350.874       32.357      861.438
07/14/2014  18:26:00     -243.928      441.744      -63.317      125.861      160.174       79.432    15840.998    25655.626     6309.378       15.322        2.390      504.617       65.503        0.017      350.745       32.134      861.500
07/14/2014  18:27:00     -215.292      264.841      -37.166      120.411      148.715       74.369    14498.855    22116.106     5530.731        8.000        2.107      341.309       57.366        0.028      350.833       32.286      861.553
07/14/2014  18:28:00     -122.633      338.018      -42.481       95.150      106.176       55.878     9053.606    11273.417     3122.336        7.727        1.172      359.577       42.031        0.014      350.780       32.195      861.696
07/14/2014  18:29:00      -79.938      453.691      -46.860       97.933      102.552       65.872     9590.916    10516.971     4339.110       11.943        1.222      460.679       49.360        0.011      351.115       32.778      861.749
07/14/2014  18:30:00      -82.649      296.017      -27.096      127.001      188.611       87.150    16129.278    35574.046     7595.118        7.723        2.965      307.339       68.311        0.049      351.171       32.876      861.768
07/14/2014  18:31:00     -189.428       34.175       -7.617      278.691      362.514      122.218    77668.659   131416.344    14937.329       13.052       11.201      192.486      137.872        0.513      351.282       33.069      861.728
07/14/2014  18:32:00     -144.725      324.055      -34.884      121.542      147.202       85.720    14772.375    21668.419     7347.950        8.547        2.189      354.904       72.240        0.041      351.448       33.358      861.757
07/14/2014  18:33:00     -152.391       87.525       -0.023      181.514      159.269       92.762    32947.211    25366.724     8604.710        4.889        3.346      175.737       86.652        0.243      351.470       33.398      861.716
07/14/2014  18:34:00      -13.816      152.125       -0.101      135.364      187.579       88.260    18323.448    35185.826     7789.831        4.230        3.065      152.752       80.470        0.278      351.450       33.363      861.607
07/14/2014  18:35:00     -418.322      -49.119      -35.391      264.560      208.893      101.595    69991.832    43636.350    10321.563       15.128        6.197      421.196      118.980        0.080      351.421       33.311      861.560
07/14/2014  18:36:00     -497.269       -8.333      -23.127      230.852      187.559       94.773    53292.709    35178.207     8981.982       17.265        4.873      497.339      104.745        0.044      351.362       33.208      861.510
07/14/2014  18:37:00     -508.278      -45.881      -23.399      271.242      211.774      122.251    73572.084    44848.147    14945.330       19.716        6.668      510.344      134.067        0.069      351.460       33.381      861.559
07/14/2014  18:38:00     -378.442      149.356      -47.820      131.807      199.817       93.086    17373.006    39926.736     8664.987       11.688        3.298      406.849      102.330        0.063      351.596       33.616      861.713
07/14/2014  18:39:00     -297.981      267.116      -58.397      113.442      229.652       83.200    12869.018    52740.129     6922.183       11.803        3.627      400.179       88.399        0.049      351.654       33.719      861.755
07/14/2014  18:40:00     -329.963      209.656      -42.207      160.008      132.372       69.308    25602.617    17522.337     4803.626       10.126        2.396      390.936       59.018        0.023      351.609       33.641      861.835
07/14/2014  18:41:00     -233.062      294.779      -36.520      117.180      158.181       79.700    13731.183    25021.236     6352.128        9.382        2.255      375.782       77.045        0.042      351.677       33.758      861.825
07/14/2014  18:42:00     -227.956      300.169      -42.073      102.213      140.596       62.943    10447.450    19767.303     3961.810        8.900        1.709      376.916       56.614        0.023      351.652       33.715      861.799
07/14/2014  18:43:00     -237.416       77.542      -25.060      144.080      146.871       59.371    20759.088    21571.069     3524.905        5.442        2.293      249.758       68.498        0.075      351.578       33.584      861.742
07/14/2014  18:44:00     -245.328      221.499      -30.183      154.357      149.762       76.518    23826.039    22428.710     5855.009        8.112        2.605      330.526       77.208        0.055      351.835       34.033      861.729
07/14/2014  18:45:00     -175.218      379.902      -58.402      133.873      120.667       62.618    17922.086    14560.622     3921.026       10.741        1.820      418.362       71.068        0.029      351.969       34.266      861.739
07/14/2014  18:46:00     -115.889      291.058      -41.505       56.196      104.909       34.685     3157.966    11005.958     1203.079        5.761        0.768      313.281       35.816        0.013      351.852       34.062      861.738
07/14/2014  18:47:00     -173.704       95.950      -21.638      131.419       94.385       59.388    17270.842     8908.496     3526.912        3.477        1.485      198.443       53.088        0.072      351.770       33.922      861.670
07/14/2014  18:48:00      119.619      192.183       -6.728      107.421      143.848       91.210    11539.192    20692.207     8319.289        4.591        2.028      226.369       74.648        0.109      351.585       33.599      861.697
07/14/2014  18:49:00       41.617      279.356      -42.448       49.670      104.716       49.998     2467.138    10965.442     2499.823        4.875        0.797      282.439       58.417        0.043      351.933       34.205      861.726
07/14/2014  18:50:00      -52.911      251.359      -36.219       68.486       64.250       38.266     4690.350     4128.123     1464.308        3.879        0.514      256.867       34.356        0.018      351.975       34.274      861.716
07/14/2014  18:51:00       44.988      144.301      -19.446       50.642       73.242       44.552     2564.571     5364.443     1984.867        1.657        0.496      151.151       42.633        0.080      352.138       34.565      861.688
07/14/2014  18:52:00       23.070       83.443       -3.716       34.430       55.214       29.391     1185.448     3048.640      863.832        0.630        0.255       86.573       29.989        0.120      352.020       34.360      861.667
07/14/2014  18:53:00       29.562      181.139      -28.920       48.858       87.307       30.403     2387.076     7622.591      924.317        2.273        0.547      183.535       40.301        0.048      351.906       34.159      861.676
07/14/2014  18:54:00       53.502      157.373      -30.770       43.625       85.109       35.658     1903.151     7243.506     1271.468        1.949        0.521      166.219       41.850        0.063      351.725       33.843      861.684
07/14/2014  18:55:00       78.685      129.845        0.308       56.212       89.883       48.796     3159.733     8078.989     2381.062        1.833        0.681      151.825       45.994        0.092      351.571       33.574      861.674
07/14/2014  18:56:00       47.589      150.944      -12.201       65.360       84.252       41.364     4271.983     7098.450     1710.998        1.914        0.654      158.268       40.215        0.065      351.483       33.420      861.655
07/14/2014  18:57:00      111.473       93.922       21.937      112.593       59.492       35.854    12677.269     3539.278     1285.480        1.961        0.875      145.766       23.711        0.026      351.238       32.995      861.644
07/14/2014  18:58:00       48.574       70.184       19.695       54.238       57.162       45.834     2941.796     3267.451     2100.721        0.799        0.415       85.354       36.078        0.179      351.109       32.771      861.625
07/14/2014  18:59:00        1.369      139.140      -17.159       33.505       87.912       29.446     1122.586     7728.558      867.090        1.469        0.486      139.147       44.551        0.103      351.546       33.532      861.603
07/14/2014  19:00:00       29.472       51.265        7.013       37.836       37.803       29.170     1431.555     1429.100      850.893        0.363        0.186       59.133       19.583        0.110      351.445       33.357      861.600
07/14/2014  19:01:00       13.924       59.048       -9.341       39.369       25.833       19.264     1549.889      667.362      371.084        0.318        0.129       60.668       18.050        0.089      351.556       33.551      861.582
07/14/2014  19:02:00      -23.504       46.398      -12.586       19.386       16.674        7.414      375.803      278.020       54.968        0.179        0.035       52.011        7.866        0.023      351.481       33.421      861.567
07/14/2014  19:03:00      -45.413       -0.805       -7.848       10.805       25.435        7.428      116.756      646.921       55.169        0.147        0.041       45.420        8.750        0.037      351.279       33.066      861.557
07/14/2014  19:04:00      -44.016      -46.063        4.366       45.617       25.395       27.899     2080.936      644.916      778.340        0.379        0.175       63.711       30.642        0.231      351.025       32.625      861.542
07/14/2014  19:05:00      -87.245     -158.494        3.842       70.097       97.778       37.936     4913.618     9560.442     1439.167        2.433        0.796      180.920       43.964        0.059      351.151       32.840      861.534
07/14/2014  19:06:00     -181.787     -138.904        0.330      105.285       62.957       38.319    11085.015     3963.638     1468.315        3.443        0.826      228.781       43.742        0.037      351.122       32.789      861.515
07/14/2014  19:07:00     -230.339     -150.206       -7.563      124.274      106.370       51.399    15444.138    11314.510     2641.891        5.253        1.470      274.987       41.104        0.022      351.077       32.710      861.500
07/14/2014  19:08:00     -292.547     -213.327       -5.090      175.256      113.023       71.835    30714.570    12774.139     5160.260        8.987        2.432      362.067       82.135        0.051      351.093       32.739      861.491
07/14/2014  19:09:00     -276.301     -133.209        4.839      142.880      104.341       59.515    20414.725    10887.005     3542.009        6.447        1.742      306.736       64.812        0.045      351.060       32.682      861.484
07/14/2014  19:10:00     -260.375     -185.124       -9.785      134.137       85.384       60.911    17992.738     7290.364     3710.104        6.557        1.450      319.477       66.968        0.044      351.032       32.631      861.477
07/14/2014  19:11:00     -291.108     -172.882       -0.996      120.207       94.073       59.949    14449.816     8849.784     3593.825        7.076        1.345      338.573       60.470        0.032      350.994       32.566      861.472
07/14/2014  19:12:00     -304.946     -115.409       -4.134      136.243      112.950       61.097    18562.200    12757.721     3732.864        7.068        1.753      326.054       71.960        0.049      351.003       32.582      861.458
07/14/2014  19:13:00     -334.543     -194.613        7.704      142.479      104.965       68.213    20300.405    11017.750     4652.983        9.290        1.799      387.032       64.151        0.027      350.961       32.512      861.464
07/14/2014  19:14:00     -391.110     -211.126      -14.435      179.818      151.058       78.578    32334.355    22818.642     6174.578       12.953        3.066      444.456       84.887        0.036      351.080       32.715      861.452
07/14/2014  19:15:00     -294.382     -201.287        2.317      172.014      170.177       87.473    29588.672    28960.047     7651.456        9.668        3.310      356.619       90.966        0.065      351.146       32.831      861.442
07/14/2014  19:16:00     -308.927     -171.096        5.432      207.175      152.102       81.851    42921.612    23134.997     6699.623        9.873        3.638      353.142      103.031        0.085      351.254       33.021      861.415
07/14/2014  19:17:00     -460.042     -301.642      -11.686      198.180      176.419       97.192    39275.495    31123.618     9446.341       19.129        3.992      550.115       96.266        0.031      351.268       33.043      861.363
07/14/2014  19:18:00     -306.585     -184.871       20.453      218.593      173.079       99.205    47783.004    29956.374     9841.599       10.807        4.379      358.010      111.999        0.098      351.252       33.017      861.381
07/14/2014  19:19:00     -432.209     -157.923       -9.202      181.510      163.490       73.830    32945.801    26729.080     5450.818       13.846        3.256      460.157       78.744        0.029      351.327       33.146      861.360
07/14/2014  19:20:00     -317.994     -154.214       -4.233      143.279      110.241       63.719    20528.731    12153.057     4060.129        8.082        1.837      353.415       64.907        0.034      351.308       33.115      861.342
07/14/2014  19:21:00     -360.323     -164.792        6.544      163.372      136.550       78.563    26690.260    18645.950     6172.075       10.426        2.575      396.218       83.839        0.045      351.335       33.161      861.321
07/14/2014  19:22:00     -326.781     -125.682       -7.677      177.354      140.285       77.360    31454.546    19679.906     5984.499        8.987        2.856      350.116       86.494        0.061      351.301       33.102      861.321
07/14/2014  19:23:00     -463.092     -159.618      -22.444      179.660      154.792       81.577    32277.844    23960.587     6654.800       15.165        3.145      489.828       68.326        0.019      351.290       33.084      861.321
07/14/2014  19:24:00     -414.656     -188.283       -9.174      199.387      153.560       95.321    39755.155    23580.825     9086.125       13.993        3.621      455.401      101.815        0.050      351.289       33.081      861.330
07/14/2014  19:25:00     -493.159     -191.448       -4.406      279.181      155.642      103.769    77942.146    24224.304    10768.002       19.638        5.647      529.016      121.179        0.052      351.282       33.068      861.309
07/14/2014  19:26:00     -407.761     -255.493       -2.198      216.603      172.833      100.486    46917.048    29871.324    10097.350       15.920        4.344      481.192      111.840        0.054      351.292       33.086      861.305
07/14/2014  19:27:00     -354.501     -194.766        7.857      215.333      197.042       94.097    46368.330    38825.635     8854.216       12.884        4.702      404.481      112.886        0.078      351.288       33.081      861.297
07/14/2014  19:28:00     -402.902     -223.410       -2.349      273.700      188.730      114.403    74911.764    35619.022    13087.943       16.791        6.181      460.697      119.346        0.067      351.255       33.022      861.283
07/14/2014  19:29:00     -393.030     -310.384        4.971      222.602      168.790      102.415    49551.441    28490.000    10488.861       16.966        4.427      500.810      105.745        0.045      351.224       32.966      861.287
07/14/2014  19:30:00     -460.605     -192.951      -14.827      189.163      152.105       93.314    35782.631    23136.010     8707.446       15.860        3.381      499.386       80.395        0.026      351.228       32.973      861.297
07/14/2014  19:31:00     -384.226     -199.047       16.540      197.434      187.661       91.570    38980.243    35216.629     8385.127       13.504        4.129      432.723       93.046        0.046      351.182       32.892      861.313
07/14/2014  19:32:00     -425.954     -358.207      -13.943      192.502      187.352      103.986    37057.049    35100.905    10813.156       19.644        4.149      556.551      106.899        0.037      351.185       32.898      861.316
07/14/2014  19:33:00     -423.328     -187.648      -21.295      236.556      180.298       93.871    55958.843    32507.311     8811.720       15.606        4.864      463.053      106.759        0.053      351.153       32.844      861.329
07/14/2014  19:34:00     -558.539     -326.281      -14.357      247.566      214.034      109.377    61289.152    45810.441    11963.307       26.882        5.953      646.857      124.228        0.037      351.166       32.865      861.317
07/14/2014  19:35:00     -601.452     -312.961      -35.990      194.244      222.937      101.589    37730.650    49700.984    10320.298       27.935        4.888      678.003       96.026        0.020      351.149       32.836      861.345
07/14/2014  19:36:00     -402.858     -121.386        2.978      235.610      155.630       92.190    55512.157    24220.820     8498.961       13.262        4.412      420.748       89.209        0.045      351.122       32.789      861.359
07/14/2014  19:37:00     -339.540     -254.163        2.469      190.690      202.488       96.992    36362.742    41001.357     9407.463       13.331        4.339      424.130      106.024        0.062      351.102       32.754      861.357
07/14/2014  19:38:00     -397.188     -228.636       -4.901      178.384      143.220       84.103    31820.961    20511.915     7073.267       13.472        2.970      458.294       80.365        0.031      351.085       32.723      861.372
07/14/2014  19:39:00     -654.700     -264.917      -32.129      278.632      260.987      111.108    77635.674    68114.207    12345.006       32.894        7.905      706.267      116.615        0.027      351.096       32.743      861.352
07/14/2014  19:40:00     -422.037     -226.636       19.126      237.541      199.545       97.162    56425.797    39818.356     9440.549       16.774        5.284      479.040      115.350        0.058      351.054       32.669      861.358
07/14/2014  19:41:00     -532.494     -200.652      -22.146      239.880      200.082       90.210    57542.570    40032.810     8137.783       21.499        5.286      569.044       99.004        0.030      351.033       32.634      861.381
07/14/2014  19:42:00     -474.411     -229.873      -19.146      257.763      176.462      110.905    66441.784    31138.943    12300.027       19.406        5.494      527.169      121.482        0.053      350.997       32.571      861.387
07/14/2014  19:43:00     -436.640     -123.308       -1.250      190.977      176.570       91.813    36472.362    31176.846     8429.642       14.095        3.804      453.717       92.162        0.041      350.980       32.541      861.414
07/14/2014  19:44:00     -282.821     -123.710        7.268      204.462      169.594       89.847    41804.680    28762.181     8072.542        8.698        3.932      308.693      106.252        0.118      350.920       32.438      861.442
07/14/2014  19:45:00     -551.122     -236.944      -25.348      287.141      204.160      102.949    82449.703    41681.385    10598.438       24.760        6.736      599.898      114.486        0.036      350.899       32.403      861.443
07/14/2014  19:46:00     -529.800      -37.832       -6.456      234.674      168.798       99.413    55071.946    28492.626     9882.861       18.779        4.672      531.149      108.606        0.042      350.860       32.335      861.466
07/14/2014  19:47:00     -392.880      -88.238       12.659      246.277      197.627      112.869    60652.421    39056.316    12739.435       13.735        5.622      402.667      120.887        0.090      350.820       32.265      861.478
07/14/2014  19:48:00     -364.006     -100.523        0.736      268.595      159.967      100.144    72143.321    25589.422    10028.853       12.516        5.388      377.631      127.564        0.114      350.798       32.226      861.506
07/14/2014  19:49:00     -314.850      -89.088       18.609      280.312      201.244      115.291    78574.778    40499.153    13291.948       11.986        6.618      327.211      126.471        0.149      350.746       32.137      861.509
07/14/2014  19:50:00     -482.162     -230.434      -17.903      308.856      239.346      110.052    95392.209    57286.483    12111.406       22.531        8.240      534.397      143.783        0.072      350.761       32.162      861.500
07/14/2014  19:51:00     -500.163     -153.934      -32.313      270.997      189.278       96.824    73439.204    35826.271     9374.811       19.675        5.932      523.315      103.528        0.039      350.744       32.131      861.521
07/14/2014  19:52:00     -325.353     -105.624        4.260      233.709      190.247      126.181    54619.954    36193.797    15921.640       11.186        5.337      342.069      121.203        0.126      350.689       32.035      861.548
07/14/2014  19:53:00     -343.259     -140.855       10.106      293.559      219.510      120.925    86176.684    48184.851    14622.912       14.335        7.449      371.035      148.924        0.161      350.694       32.044      861.536
07/14/2014  19:54:00     -458.423     -235.000      -35.414      205.992      232.765      120.571    42432.599    54179.601    14537.299       18.887        5.557      515.147      122.023        0.056      350.653       31.972      861.561
07/14/2014  19:55:00     -349.720     -130.730        6.602      265.431      149.578      105.647    70453.750    22373.515    11161.365       12.169        5.199      373.356      125.908        0.114      350.627       31.928      861.638
07/14/2014  19:56:00     -266.324      -90.918        4.698      193.581      162.494       76.912    37473.505    26404.459     5915.463        7.449        3.490      281.416       75.145        0.071      350.591       31.867      861.651
07/14/2014  19:57:00     -353.549     -142.945      -15.638      176.281      130.015       77.303    31074.913    16903.865     5975.787        9.980        2.698      381.353       79.283        0.043      350.575       31.837      861.671
07/14/2014  19:58:00     -195.632      -86.367       14.153      174.936      143.002       94.214    30602.437    20449.430     8876.332        5.292        2.996      213.848       92.488        0.187      350.497       31.700      861.668
07/14/2014  19:59:00     -341.882     -182.680        1.366      246.956      170.493       93.226    60987.274    29067.806     8691.123       12.448        4.937      387.627      114.867        0.088      350.508       31.721      861.680
07/14/2014  20:00:00     -385.181     -173.474      -22.278      246.094      195.856      109.700    60562.444    38359.504    12034.112       14.493        5.548      422.442      120.538        0.081      350.501       31.708      861.681
07/14/2014  20:01:00     -439.888      -51.321       -2.116      248.627      166.175      103.235    61815.511    27614.000    10657.493       14.809        5.004      442.872      119.999        0.073      350.463       31.642      861.684
07/14/2014  20:02:00     -492.843     -103.649      -10.192      297.784      202.982      111.709    88675.508    41201.575    12478.814       19.802        7.118      503.624      133.410        0.070      350.486       31.682      861.690
07/14/2014  20:03:00     -415.811     -145.994        9.225      291.000      235.295      121.142    84681.291    55363.736    14675.366       17.448        7.736      440.696      144.271        0.107      350.455       31.627      861.667
07/14/2014  20:04:00     -352.963     -198.766        6.851      276.390      216.326      117.512    76391.555    46796.888    13809.007       15.054        6.850      405.081      151.501        0.140      350.426       31.578      861.699
07/14/2014  20:05:00     -426.305     -157.797      -11.334      203.599      201.995       87.868    41452.745    40802.115     7720.714       14.835        4.499      454.572       93.160        0.042      350.381       31.503      861.685
07/14/2014  20:06:00     -447.899     -207.346        0.456      335.389      210.486      116.164   112485.843    44304.551    13494.174       20.691        8.514      493.564      143.955        0.085      350.362       31.468      861.680
07/14/2014  20:07:00     -522.337     -291.696      -38.766      290.798      213.960      120.378    84563.565    45778.869    14490.856       25.210        7.242      598.266      134.409        0.050      350.388       31.512      861.653
07/14/2014  20:08:00     -396.200     -142.287       -1.065      273.531      213.291      101.627    74819.098    45492.909    10328.108       15.390        6.532      420.975      119.569        0.081      350.340       31.432      861.687
07/14/2014  20:09:00     -524.919     -174.476      -18.217      372.857      257.283      130.427   139022.660    66194.318    17011.226       26.423       11.111      553.156      164.504        0.088      350.338       31.428      861.677
07/14/2014  20:10:00     -624.464     -201.646      -44.928      377.730      257.109      134.908   142679.885    66104.934    18200.158       32.976       11.349      656.214      155.813        0.056      350.350       31.447      861.635
07/14/2014  20:11:00     -465.122     -209.066        2.047      439.809      285.396      152.381   193431.594    81451.036    23220.029       27.902       14.905      509.948      186.165        0.133      350.341       31.431      861.641
07/14/2014  20:12:00     -510.323     -213.094       -5.005      337.678      276.047      148.753   114026.396    76202.016    22127.529       25.907       10.618      553.026      179.771        0.106      350.336       31.423      861.656
07/14/2014  20:13:00     -375.808     -256.633       -8.477      292.505      214.489      123.194    85559.096    46005.649    15176.722       17.692        7.337      455.073      136.888        0.090      350.320       31.394      861.679
07/14/2014  20:14:00     -540.243     -246.276      -10.684      324.672      185.691      123.484   105411.978    34481.256    15248.413       25.385        7.757      593.729      159.603        0.072      350.288       31.339      861.685
07/14/2014  20:15:00     -528.715     -149.219       -4.747      309.785      211.422      111.179    95966.437    44699.415    12360.881       22.740        7.651      549.368      145.054        0.070      350.312       31.381      861.672
07/14/2014  20:16:00     -326.389      -82.024        1.100      265.493      188.371      109.707    70486.428    35483.742    12035.618       11.561        5.900      336.538      120.244        0.128      350.235       31.245      861.689
07/14/2014  20:17:00     -521.083     -165.074       -1.434      313.834      267.765      112.612    98491.795    71698.024    12681.506       24.079        9.144      546.605      113.325        0.043      350.231       31.239      861.659
07/14/2014  20:18:00     -494.430     -102.340       -6.610      274.680      213.937      119.417    75449.047    45768.905    14260.537       19.520        6.774      504.911      137.665        0.074      350.191       31.169      861.646
07/14/2014  20:19:00     -233.102     -140.493       36.657      241.080      160.609       96.355    58119.444    25795.288     9284.325        8.429        4.660      272.167      111.536        0.168      350.150       31.100      861.658
07/14/2014  20:20:00     -336.548      -36.669        4.552      209.686      180.466       81.350    43968.030    32567.941     6617.826        9.888        4.158      338.539       75.164        0.049      350.124       31.053      861.653
07/14/2014  20:21:00     -274.272      -80.405       31.453      314.325      235.009      135.831    98800.002    55229.333    18450.129       12.755        8.624      285.815      162.269        0.322      350.129       31.060      861.619
07/14/2014  20:22:00     -422.495      -68.660      -25.115      211.086      155.232       87.809    44557.235    24096.968     7710.352       13.009        3.818      428.038       86.015        0.040      350.111       31.031      861.650
07/14/2014  20:23:00     -483.755      -50.363       -6.819      208.682      171.556       90.377    43548.293    29431.556     8168.069       15.886        4.057      486.369       86.211        0.031      350.106       31.022      861.624
07/14/2014  20:24:00     -442.960     -148.208       -5.560      300.428      247.207      109.974    90257.259    61111.223    12094.284       19.080        8.173      467.097      138.126        0.087      350.089       30.991      861.603
07/14/2014  20:25:00     -543.791     -129.651      -20.241      270.923      207.798      115.710    73399.003    43179.908    13388.764       22.142        6.498      559.033      115.534        0.043      350.095       31.002      861.589
07/14/2014  20:26:00     -507.046     -216.298      -22.214      244.584      206.613      106.593    59821.143    42689.037    11362.029       20.910        5.694      551.254      106.816        0.038      350.051       30.926      861.595
07/14/2014  20:27:00     -488.272     -131.578      -12.770      303.321      255.705      122.951    92003.573    65385.295    15116.856       21.416        8.625      505.690      131.572        0.068      350.027       30.884      861.574
07/14/2014  20:28:00     -515.333     -277.289      -15.536      284.199      226.725      128.674    80768.990    51404.041    16557.002       24.568        7.437      585.198      137.951        0.056      349.983       30.809      861.591
07/14/2014  20:29:00     -356.586     -240.248      -15.870      230.278      223.094      128.567    53027.952    49770.734    16529.503       15.220        5.966      429.968      132.365        0.095      349.966       30.781      861.610
07/14/2014  20:30:00     -481.429     -159.701      -14.658      242.128      180.680      106.274    58626.068    32645.181    11294.153       18.001        5.128      507.226      104.640        0.043      349.948       30.748      861.662
07/14/2014  20:31:00     -497.942     -105.137      -19.735      270.307      210.288      105.654    73065.785    44220.980    11162.745       19.389        6.422      508.921      113.957        0.050      349.910       30.682      861.659
07/14/2014  20:32:00     -221.714     -101.654       10.574      272.255      226.639      104.418    74123.000    51365.042    10903.016        9.797        6.820      243.907      124.890        0.262      349.875       30.622      861.661
07/14/2014  20:33:00     -365.572     -156.972      -40.724      247.310      207.921      108.289    61162.290    43231.333    11726.557       13.801        5.806      397.849      130.884        0.108      349.912       30.686      861.716
07/14/2014  20:34:00     -369.782      -65.767       -7.977      292.358      189.977       99.289    85473.213    36091.263     9858.247       13.625        6.571      375.585      131.801        0.123      349.888       30.643      861.690
07/14/2014  20:35:00     -506.950      -67.788      -20.537      305.021      215.225       98.191    93037.702    46321.614     9641.559       20.548        7.450      511.462      120.342        0.055      349.868       30.610      861.634
07/14/2014  20:36:00     -388.139      -68.428       -9.639      216.526      168.440       99.462    46883.369    28372.008     9892.634       12.027        4.257      394.125      108.551        0.076      349.854       30.587      861.614
07/14/2014  20:37:00     -213.692      -64.445       19.352      264.490      177.373      114.864    69955.142    31461.295    13193.770        8.238        5.731      223.198      131.517        0.347      349.857       30.592      861.543
07/14/2014  20:38:00     -431.210     -257.216      -13.888      308.926      174.411      118.199    95435.008    30419.361    13971.030       19.603        6.991      502.098      138.118        0.076      349.849       30.577      861.562
07/14/2014  20:39:00     -693.605     -113.416      -42.189      328.425      235.838      113.715   107862.771    55619.616    12931.039       33.604        8.821      702.817      127.744        0.033      349.852       30.581      861.559
07/14/2014  20:40:00     -363.983      -38.099        1.619      305.356      196.458      130.060    93242.322    38595.664    16915.486       14.132        7.438      365.972      124.902        0.116      349.820       30.525      861.557
07/14/2014  20:41:00     -594.794     -106.584      -51.511      268.952      216.245      104.507    72335.082    46762.109    10921.744       24.888        6.501      604.268      115.691        0.037      349.864       30.602      861.606
07/14/2014  20:42:00     -624.144     -148.664      -43.957      333.900      201.315      115.195   111488.885    40527.621    13269.911       28.940        8.264      641.605      155.246        0.059      349.844       30.567      861.624
07/14/2014  20:43:00     -550.004     -120.479      -10.957      256.816      174.909       99.544    65954.593    30593.315     9909.073       21.178        5.323      563.044      111.344        0.039      349.801       30.491      861.612
07/14/2014  20:44:00     -453.705     -183.020      -10.216      312.354      234.636      139.500    97565.171    55054.217    19460.112       20.573        8.604      489.228      128.905        0.069      349.799       30.488      861.612
07/14/2014  20:45:00     -659.295     -149.739      -35.411      272.480      220.647      114.500    74245.165    48685.065    13110.138       29.717        6.802      676.086      119.356        0.031      349.781       30.457      861.597
07/14/2014  20:46:00     -487.610      -81.838      -11.641      275.316      197.335      121.307    75798.964    38941.145    14715.377       18.700        6.473      494.430      140.989        0.081      349.758       30.416      861.638
07/14/2014  20:47:00     -423.275     -160.789       -2.593      239.401      205.738      111.037    57312.892    42328.190    12329.303       15.847        5.599      452.786      125.174        0.076      349.741       30.387      861.689
07/14/2014  20:48:00     -548.022     -187.101      -20.172      271.256      236.176      128.961    73579.733    55778.932    16630.889       24.084        7.299      579.081      145.830        0.063      349.774       30.445      861.674
07/14/2014  20:49:00     -460.190     -194.699      -14.911      229.893      202.274      101.768    52851.004    40914.606    10356.636       17.699        5.206      499.682       89.939        0.032      349.754       30.409      861.741
07/14/2014  20:50:00     -375.294     -135.380       -6.508      259.828      189.998      102.882    67510.591    36099.294    10584.672       13.668        5.710      398.965      116.258        0.085      349.706       30.326      861.702
07/14/2014  20:51:00     -725.192     -116.394      -35.101      244.667      200.651      116.000    59862.017    40261.013    13455.986       32.711        5.679      734.473      124.379        0.029      349.688       30.294      861.694
07/14/2014  20:52:00     -504.984     -115.888      -13.076      318.667      212.551      138.696   101548.531    45177.727    19236.601       21.725        8.298      518.111      163.754        0.100      349.689       30.296      861.669
07/14/2014  20:53:00     -374.221      -68.958      -15.516      199.186      159.673       88.606    39674.919    25495.341     7851.080       10.901        3.651      380.521       78.749        0.043      349.646       30.222      861.715
07/14/2014  20:54:00     -534.306      -82.538      -20.317      250.829      165.547       84.892    62914.976    27405.940     7206.630       19.510        4.876      540.643       95.467        0.031      349.658       30.241      861.755
07/14/2014  20:55:00     -481.803      -59.865        7.571      294.905      201.428      120.234    86968.942    40573.133    14456.124       18.886        7.100      485.508      140.077        0.083      349.646       30.223      861.764
07/14/2014  20:56:00     -690.671     -146.572       -3.047      410.053      214.944      148.170   168143.257    46200.765    21954.384       36.736       11.815      706.052      206.648        0.086      349.693       30.303      861.747
07/14/2014  20:57:00     -500.469     -112.398      -17.281      263.271      160.043       92.888    69311.677    25613.840     8628.265       18.346        5.178      512.936      101.594        0.039      349.643       30.219      861.769
07/14/2014  20:58:00     -507.769     -152.412      -23.912      186.512      174.921       91.803    34786.754    30597.373     8427.859       17.771        3.691      530.149       92.554        0.030      349.620       30.177      861.768
07/14/2014  20:59:00     -301.866      -79.352      -18.728      228.852      180.088      102.552    52373.334    32431.753    10516.919        9.653        4.766      312.121      115.077        0.136      349.502       29.974      861.741
07/14/2014  21:00:00     -710.315     -106.302      -33.338      226.556      198.701      100.887    51327.483    39481.991    10178.256       30.895        5.049      718.225      113.248        0.025      349.543       30.046      861.778
07/14/2014  21:01:00     -658.556     -108.006      -19.218      272.190      176.325      109.816    74087.439    31090.617    12059.548       28.146        5.862      667.354      122.808        0.034      349.543       30.046      861.853
07/14/2014  21:02:00     -464.828     -108.208      -18.453      235.058      184.860      103.042    55252.445    34173.277    10617.740       16.406        5.002      477.257      106.223        0.050      349.565       30.084      861.863
07/14/2014  21:03:00     -480.287     -129.165       -8.357      230.294      197.646      107.451    53035.552    39063.784    11545.796       17.552        5.182      497.352      107.701        0.047      349.566       30.084      861.897
07/14/2014  21:04:00     -533.840      -85.564      -27.045      208.447      158.362       81.978    43450.168    25078.557     6720.453       18.413        3.762      540.654       91.400        0.029      349.544       30.046      861.914
07/14/2014  21:05:00     -397.366      -47.372       -8.524      194.562      138.419       89.524    37854.513    19159.890     8014.581       11.261        3.251      400.180      102.451        0.066      349.496       29.965      861.948
07/14/2014  21:06:00     -496.689      -17.271      -35.418      236.882      160.737       78.461    56113.302    25836.343     6156.143       16.816        4.405      496.989       77.206        0.024      349.505       29.979      861.959
07/14/2014  21:07:00     -267.491     -139.929       -3.173      176.084      136.489       79.670    31005.460    18629.311     6347.353        7.355        2.799      301.880       72.501        0.058      349.499       29.969      861.937
07/14/2014  21:08:00     -231.727     -117.522       27.933      246.379      185.650      105.277    60702.802    34465.758    11083.236        8.725        5.313      259.825      111.984        0.186      349.454       29.890      861.934
07/14/2014  21:09:00     -322.600      -64.119       -3.024      227.642      144.793       92.267    51820.695    20964.973     8513.207        9.473        4.065      328.911      101.722        0.096      349.463       29.905      861.934
07/14/2014  21:10:00     -462.695     -187.920      -11.492      265.346      199.381      107.723    70408.471    39752.755    11604.204       18.562        6.088      499.401      127.711        0.065      349.480       29.935      861.913
07/14/2014  21:11:00     -369.838      -32.071       18.731      249.626      181.386       99.046    62312.979    32900.885     9810.047       12.157        5.251      371.226      123.674        0.111      349.447       29.879      861.928
07/14/2014  21:12:00     -539.166     -101.253      -37.684      276.174      192.387      105.434    76271.840    37012.946    11116.356       21.336        6.220      548.591      111.098        0.041      349.512       29.992      861.937
07/14/2014  21:13:00     -596.563     -100.193      -17.750      304.036      254.535      119.138    92438.039    64788.023    14193.784       26.880        8.571      604.919      131.667        0.047      349.502       29.974      861.922
07/14/2014  21:14:00     -802.994      -54.622      -49.733      295.869      223.537      127.757    87538.281    49968.903    16321.977       40.201        7.691      804.850      145.197        0.033      349.618       30.176      861.974
07/14/2014  21:15:00     -547.853      -25.269      -23.898      221.939      151.048      102.471    49256.738    22815.493    10500.355       19.195        4.129      548.435      101.137        0.034      349.533       30.027      862.023
07/14/2014  21:16:00     -511.058     -180.976      -11.917      243.855      218.787      109.572    59465.126    47867.839    12006.052       20.668        5.967      542.156      130.765        0.058      349.536       30.033      862.041
07/14/2014  21:17:00     -526.013      -93.654      -21.401      245.761      185.701      108.981    60398.305    34485.040    11876.799       19.632        5.338      534.285      127.117        0.057      349.518       30.001      862.081
07/14/2014  21:18:00     -573.241      -88.856      -15.817      375.247      181.667      124.716   140810.220    33002.774    15554.121       26.302        9.468      580.087      175.452        0.091      349.560       30.074      862.087
07/14/2014  21:19:00     -486.556     -157.930       -8.772      262.968      228.378      102.586    69151.968    52156.628    10523.902       19.677        6.592      511.545      119.575        0.055      349.567       30.088      862.114
07/14/2014  21:20:00     -502.516      -92.642      -19.487      199.428      195.496       91.189    39771.376    38218.759     8315.491       17.388        4.315      510.985       90.406        0.031      349.575       30.101      862.155
07/14/2014  21:21:00     -512.439     -110.753      -20.850      232.555      176.177       99.035    54081.762    31038.498     9807.881       18.509        4.746      524.271      108.997        0.043      349.600       30.142      862.179
07/14/2014  21:22:00     -214.289      -77.661        5.311      143.391      119.266       64.379    20560.936    14224.410     4144.615        4.545        1.946      227.927       52.225        0.052      349.537       30.035      862.220
07/14/2014  21:23:00     -345.984     -215.663       -2.618      275.981      177.320      110.389    76165.580    31442.544    12185.766       14.298        5.990      407.695      139.207        0.117      349.591       30.129      862.223
07/14/2014  21:24:00     -270.038      -24.551      -20.339      219.726      122.260       64.693    48279.720    14947.558     4185.196        7.066        3.371      271.152       88.674        0.107      349.543       30.047      862.253
07/14/2014  21:25:00     -304.251     -212.832       10.580      253.702      207.067      110.857    64364.881    42876.691    12289.218       12.873        5.977      371.303      117.168        0.100      349.592       30.130      862.198
07/14/2014  21:26:00     -303.983     -106.994       -6.312      202.505      145.329       94.745    41008.200    21120.623     8976.633        8.749        3.555      322.263       99.130        0.095      349.599       30.142      862.225
07/14/2014  21:27:00     -310.320       64.617       -6.027      197.412      126.531       81.441    38971.376    16010.073     6632.637        8.105        3.081      316.976       83.990        0.070      349.550       30.058      862.269
07/14/2014  21:28:00     -473.356     -146.028      -16.460      185.481      152.684       75.514    34403.093    23312.294     5702.337       15.453        3.171      495.369       70.718        0.020      349.599       30.142      862.291
07/14/2014  21:29:00     -448.562       -4.092      -16.567      208.530      141.054       81.500    43484.713    19896.298     6642.288       13.575        3.501      448.580      101.336        0.051      349.593       30.131      862.326
07/14/2014  21:30:00     -371.074       -7.711      -46.920      141.069      107.512       65.139    19900.356    11558.754     4243.113        8.782        1.785      371.154       64.207        0.030      349.550       30.056      862.390
07/14/2014  21:31:00     -335.480      -47.899      -42.987      263.639      134.789       75.391    69505.332    18168.063     5683.751       10.500        4.668      338.883      104.519        0.095      349.519       30.004      862.444
07/14/2014  21:32:00     -533.907      -80.477      -25.682      216.533      158.522       91.232    46886.346    25129.330     8323.299       18.625        4.017      539.938       96.212        0.032      349.568       30.086      862.475
07/14/2014  21:33:00     -326.569      -74.196      -14.552      162.848      118.239       65.538    26519.340    13980.516     4295.166        7.857        2.240      334.891       70.483        0.044      349.473       29.923      862.554
07/14/2014  21:34:00     -354.783      -34.699      -32.670      192.420      114.924       68.808    37025.421    13207.578     4734.528        9.154        2.748      356.476       89.447        0.063      349.464       29.909      862.615
07/14/2014  21:35:00     -291.354     -133.708       -2.880      143.923      146.681       71.578    20713.829    21515.270     5123.391        7.505        2.368      320.570       74.064        0.053      349.587       30.121      862.623
07/14/2014  21:36:00     -284.129      -12.185       -9.785      172.071      138.434       67.754    29608.421    19163.991     4590.596        6.716        2.668      284.391       70.504        0.061      349.497       29.967      862.661
07/14/2014  21:37:00      -55.822       -6.892       -6.364      116.084       75.323       48.022    13475.512     5673.629     2306.136        1.233        1.073       56.245       40.150        0.510      349.403       29.803      862.681
07/14/2014  21:38:00     -113.142     -112.418        0.316       74.247      142.872       44.233     5512.639    20412.470     1956.582        2.665        1.394      159.496       34.130        0.046      349.482       29.942      862.704
07/14/2014  21:39:00     -124.512       11.051        4.812       74.572       79.643       34.664     5560.987     6342.986     1201.626        1.437        0.655      125.001       36.559        0.086      349.378       29.763      862.773
07/14/2014  21:40:00     -163.321       71.538      -12.229       68.569       42.672       33.831     4701.706     1820.904     1144.548        1.980        0.383      178.301       23.261        0.017      349.381       29.766      862.828
07/14/2014  21:41:00     -154.824      175.177      -21.006       89.504       92.430       51.139     8010.985     8543.359     2615.198        3.713        0.958      233.789       41.817        0.032      349.312       29.643      862.851
07/14/2014  21:42:00     -113.822       68.277      -25.597       79.890      136.337       48.829     6382.364    18587.834     2384.268        2.281        1.368      132.729       38.943        0.086      349.326       29.669      862.853
07/14/2014  21:43:00        8.035      101.884       -3.372       41.404       52.799       35.668     1714.261     2787.755     1272.179        0.811        0.289      102.200       28.562        0.078      349.215       29.481      862.871
07/14/2014  21:44:00     -208.193      206.872      -47.965      167.608      111.845       49.533    28092.371    12509.264     2453.506        6.574        2.153      293.497       52.383        0.032      349.226       29.495      862.865
07/14/2014  21:45:00     -209.941       77.086      -23.209      166.587       91.393       47.868    27751.314     8352.770     2291.323        4.447        1.920      223.646       53.484        0.057      349.296       29.617      862.877
07/14/2014  21:46:00     -283.626      -51.290      -25.729      103.974      100.099       51.007    10810.609    10019.894     2601.765        5.358        1.172      288.226       51.065        0.031      349.387       29.773      862.859
07/14/2014  21:47:00     -139.280       14.784       -3.156      108.425       56.610       33.542    11755.909     3204.669     1125.083        1.785        0.804      140.062       45.072        0.104      349.284       29.599      862.861
07/14/2014  21:48:00      -98.422        1.655        6.878       72.004       71.249       44.081     5184.521     5076.354     1943.164        1.097        0.610       98.436       42.224        0.184      349.182       29.422      862.879
07/14/2014  21:49:00      -57.696       46.594       11.225       43.589       33.634       24.856     1900.022     1131.224      617.818        0.464        0.182       74.161       15.290        0.043      349.073       29.233      862.875
07/14/2014  21:50:00     -106.214       42.424      -10.027       79.634       66.266       46.139     6341.552     4391.240     2128.832        1.302        0.643      114.373       35.879        0.098      349.187       29.429      862.875
07/14/2014  21:51:00     -101.898       49.786      -17.222       42.579       70.146       28.750     1813.010     4920.506      826.553        1.036        0.378      113.410       13.006        0.013      349.098       29.275      862.913
07/14/2014  21:52:00     -189.006      176.006      -41.386       44.965       76.962       31.002     2021.848     5923.102      961.112        3.866        0.445      258.266       25.303        0.010      349.084       29.248      862.922
07/14/2014  21:53:00     -120.504       53.281      -12.052       49.382       61.652       39.992     2438.610     3800.912     1599.373        1.267        0.392      131.758       24.898        0.036      349.004       29.113      862.933
07/14/2014  21:54:00     -206.804       -0.017      -27.333       98.393      112.367       48.986     9681.164    12626.390     2399.677        3.411        1.235      206.804       45.456        0.048      349.015       29.129      862.906
07/14/2014  21:55:00     -293.293      -73.793      -33.539      129.887      102.231       59.779    16870.625    10451.275     3573.474        6.174        1.545      302.434       30.381        0.010      349.131       29.329      862.906
07/14/2014  21:56:00     -123.656       49.639      -17.622       58.229       61.585       51.202     3390.568     3792.700     2621.623        1.393        0.490      133.247       33.716        0.064      349.065       29.219      862.966
07/14/2014  21:57:00     -197.160       57.844      -21.924       92.016      104.138       49.797     8466.969    10844.810     2479.789        3.224        1.090      205.470       54.180        0.070      349.122       29.315      862.965
07/14/2014  21:58:00     -126.577      170.831      -27.078       70.756       81.500       39.780     5006.399     6642.209     1582.470        2.958        0.662      212.615       44.258        0.043      349.196       29.445      862.929
07/14/2014  21:59:00      -71.645      164.824      -22.475       56.113      126.175       41.376     3148.699    15920.172     1711.959        2.679        1.039      179.722       48.208        0.072      349.151       29.368      862.893
07/14/2014  22:00:00     -174.518        4.313      -24.036       64.712       76.522       33.859     4187.623     5855.572     1146.404        2.112        0.559      174.572       21.817        0.016      349.116       29.304      862.928
07/14/2014  22:01:00     -135.402      210.706      -31.320       78.607      103.594       56.122     6179.074    10731.639     3149.717        4.188        1.003      250.461       64.759        0.067      349.222       29.489      862.903
07/14/2014  22:02:00     -179.736      275.928      -48.113       69.731       93.417       43.263     4862.421     8726.680     1871.698        6.311        0.773      329.304       40.152        0.015      349.221       29.485      862.931
07/14/2014  22:03:00     -161.066      152.071      -18.475       64.989       84.514       49.576     4223.621     7142.661     2457.819        3.161        0.691      221.513       44.799        0.041      349.113       29.300      862.957
07/14/2014  22:04:00     -138.612      104.085      -20.655       87.585       81.467       47.676     7671.128     6636.793     2273.008        2.352        0.829      173.341       47.236        0.074      349.051       29.192      862.961
07/14/2014  22:05:00     -154.322       18.423      -26.661       59.909       57.682       35.763     3589.030     3327.193     1278.956        1.653        0.410      155.418       22.096        0.020      349.047       29.187      862.984
07/14/2014  22:06:00     -170.663      -22.252      -12.389       78.121       53.597       38.508     6102.960     2872.605     1482.879        2.011        0.523      172.107       33.596        0.038      349.017       29.135      863.005
07/14/2014  22:07:00     -102.080       13.559       -3.044       55.736       66.623       33.879     3106.491     4438.632     1147.781        0.965        0.435      102.977       31.148        0.091      348.949       29.019      862.991
07/14/2014  22:08:00     -160.102       61.576      -17.256       71.733       85.680       47.142     5145.592     7340.985     2222.338        2.221        0.735      171.535       35.125        0.042      348.942       29.004      863.002
07/14/2014  22:09:00     -166.105       45.669      -21.545       59.718       75.943       31.475     3566.282     5767.331      990.652        2.023        0.516      172.269       20.131        0.014      348.916       28.959      863.027
07/14/2014  22:10:00     -148.971      113.287      -16.017       86.546       76.168       40.056     7490.217     5801.570     1604.478        2.509        0.745      187.153       46.919        0.063      348.934       28.990      863.057
07/14/2014  22:11:00     -197.120      150.785      -28.003       81.899      110.065       57.289     6707.367    12114.232     3282.054        4.224        1.105      248.178       51.767        0.044      349.039       29.172      863.060
07/14/2014  22:12:00     -196.391      192.843      -31.697      101.573       97.855       52.462    10317.050     9575.693     2752.294        4.970        1.132      275.241       53.640        0.038      349.111       29.296      863.064
07/14/2014  22:13:00     -225.702      255.727      -53.080       91.096       81.102       53.319     8298.540     6577.497     2842.927        6.843        0.886      341.083       46.676        0.019      349.088       29.255      863.057
07/14/2014  22:14:00     -179.442      234.038      -38.020       68.894       79.694       49.013     4746.345     6351.084     2402.255        5.096        0.675      294.912       46.617        0.025      349.012       29.122      863.067
07/14/2014  22:15:00     -212.015      302.932      -47.584      100.177      112.019       58.695    10035.445    12548.229     3445.110        8.250        1.301      369.754       64.721        0.031      349.049       29.188      863.096
07/14/2014  22:16:00     -156.676      230.102      -38.969       83.353       81.498       53.840     6947.662     6641.848     2898.749        4.775        0.824      278.378       41.679        0.022      348.984       29.074      863.081
07/14/2014  22:17:00      -83.526      255.576      -35.387       61.888       69.753       43.679     3830.124     4865.520     1907.819        4.207        0.530      268.878       41.133        0.023      349.027       29.150      863.035
07/14/2014  22:18:00     -114.807      187.183      -31.631       61.888       70.829       40.664     3830.090     5016.721     1653.565        2.986        0.525      219.586       27.760        0.016      349.033       29.161      863.039
07/14/2014  22:19:00     -228.713      -40.587      -24.801      105.369       85.431       40.567    11102.725     7298.435     1645.658        3.731        1.002      232.286       31.954        0.019      349.003       29.108      863.076
07/14/2014  22:20:00     -338.647      -46.256      -25.982      108.766       80.952       50.234    11830.067     6553.254     2523.409        6.920        1.045      341.792       48.410        0.020      348.945       29.009      863.093
07/14/2014  22:21:00     -196.493       22.966      -13.069       64.368       93.494       52.591     4143.268     8741.139     2765.787        2.748        0.783      197.830       54.226        0.075      348.966       29.045      863.111
07/14/2014  22:22:00     -144.517      135.514      -12.159       85.167       93.102       54.708     7253.383     8667.960     2992.992        2.915        0.946      198.114       47.057        0.056      348.829       28.807      863.116
07/14/2014  22:23:00     -107.443      199.808       -7.878       62.580       96.235       55.964     3916.209     9261.137     3132.023        3.392        0.815      226.864       43.112        0.036      348.829       28.809      863.124
07/14/2014  22:24:00     -116.516      253.992      -38.729       72.402       98.880       42.513     5242.000     9777.339     1807.361        4.820        0.841      279.442       44.192        0.025      348.921       28.965      863.099
07/14/2014  22:25:00      -87.701      142.151      -10.492       92.563       57.065       34.341     8567.882     3256.458     1179.336        2.050        0.650      167.028       28.338        0.029      348.819       28.791      863.083
07/14/2014  22:26:00     -102.456      100.770      -19.606       50.961       60.208       35.744     2597.002     3625.024     1277.648        1.427        0.375      143.707       25.830        0.032      348.802       28.764      863.128
07/14/2014  22:27:00     -170.538       76.477      -22.925       92.809       66.424       34.782     8613.552     4412.171     1209.787        2.484        0.712      186.901       30.813        0.027      348.958       29.031      863.141
07/14/2014  22:28:00     -237.589      -40.245      -22.168      100.338       92.741       46.155    10067.761     8600.830     2130.242        3.968        1.040      240.974       39.015        0.026      348.911       28.951      863.157
07/14/2014  22:29:00     -204.217       22.376      -18.964      106.415      106.943       64.064    11324.059    11436.766     4104.217        3.471        1.343      205.439       61.636        0.090      348.899       28.929      863.205
07/14/2014  22:30:00     -130.043      263.218      -34.246       78.341      126.455       58.198     6137.361    15990.902     3386.950        5.644        1.276      293.589       58.369        0.040      348.906       28.940      863.189
07/14/2014  22:31:00      -99.583      125.527       -6.273       68.615       85.962       53.062     4707.958     7389.436     2815.554        2.031        0.746      160.230       46.259        0.083      348.961       29.037      863.189
07/14/2014  22:32:00       -4.418       61.606       11.619       53.664       49.860       34.681     2879.873     2486.003     1202.789        0.526        0.328       61.764       24.313        0.155      348.902       28.938      863.165
07/14/2014  22:33:00      -97.374      -12.579        7.208       65.932       67.903       32.574     4347.025     4610.835     1061.097        0.985        0.501       98.183       30.027        0.094      348.812       28.781      863.166
07/14/2014  22:34:00     -188.155       29.296       -8.846       82.843       82.960       39.562     6863.036     6882.373     1565.185        2.582        0.766      190.422       30.910        0.026      348.799       28.756      863.193
07/14/2014  22:35:00     -148.081       78.743      -13.300       91.240       67.666       54.292     8324.761     4578.714     2947.569        2.208        0.793      167.716       59.214        0.125      348.748       28.669      863.203
07/14/2014  22:36:00     -263.776      -79.087      -26.343       76.646       95.899       40.881     5874.598     9196.674     1671.257        4.663        0.837      275.377       25.585        0.009      348.680       28.549      863.181
07/14/2014  22:37:00     -219.113      -43.236      -15.409       96.330       74.600       45.571     9279.462     5565.173     2076.725        3.352        0.846      223.338       40.536        0.033      348.508       28.252      863.224
07/14/2014  22:38:00     -131.014       26.326      -16.070       70.788       76.841       36.388     5010.923     5904.482     1324.104        1.518        0.612      133.633       35.502        0.071      348.467       28.185      863.205
07/14/2014  22:39:00     -325.064       -4.974      -31.402       76.302       73.482       50.896     5822.052     5399.607     2590.435        6.024        0.691      325.102       29.973        0.008      348.486       28.213      863.241
07/14/2014  22:40:00     -155.786      -32.037       -4.602      112.847       61.501       46.607    12734.542     3782.314     2172.203        2.200        0.934      159.046       57.318        0.130      348.392       28.055      863.244
07/14/2014  22:41:00     -163.713       69.551      -24.252       77.177       75.417       52.076     5956.222     5687.667     2711.947        2.329        0.718      177.875       35.948        0.041      348.406       28.077      863.217
07/14/2014  22:42:00     -127.591       64.588      -16.880       61.397       75.766       41.644     3769.644     5740.496     1734.222        1.599        0.562      143.007       36.078        0.064      348.390       28.051      863.220
07/14/2014  22:43:00     -115.796      100.984      -10.852       77.587       82.036       49.714     6019.771     6729.910     2471.469        1.947        0.761      153.644       36.179        0.055      348.424       28.108      863.197
07/14/2014  22:44:00      -95.642       41.493      -12.937       62.557       98.620       35.044     3913.428     9725.985     1228.081        1.295        0.743      104.254       22.986        0.049      348.486       28.217      863.198
07/14/2014  22:45:00      -93.133      102.903       -5.554       54.623       62.457       33.600     2983.710     3900.853     1128.933        1.365        0.401      138.790       20.393        0.022      348.503       28.247      863.215
07/14/2014  22:46:00      -96.647      108.841      -23.395       52.476       92.363       37.762     2753.712     8530.905     1425.993        1.722        0.636      145.558       22.912        0.025      348.526       28.286      863.242
07/14/2014  22:47:00      -88.472      123.796      -13.301       69.077       72.266       46.729     4771.659     5222.407     2183.605        1.775        0.609      152.160       40.414        0.071      348.449       28.151      863.234
07/14/2014  22:48:00     -117.393       51.833        1.930       97.141       63.248       52.805     9436.310     4000.279     2788.416        1.635        0.811      128.327       54.027        0.177      348.450       28.154      863.241
07/14/2014  22:49:00     -123.947      106.441      -16.718       70.054       76.724       39.811     4907.517     5886.604     1584.946        1.967        0.619      163.378       36.612        0.050      348.444       28.142      863.255
07/14/2014  22:50:00     -151.643      241.315      -41.560       90.239       98.230       55.026     8143.136     9649.229     3027.822        5.188        1.041      285.006       60.671        0.045      348.436       28.127      863.242
07/14/2014  22:51:00     -203.204      270.239      -39.844      124.639      162.248       78.927    15534.908    26324.386     6229.452        8.199        2.404      338.114       87.685        0.067      348.418       28.096      863.248
07/14/2014  22:52:00     -170.763      207.803      -35.650       97.202      107.499       56.727     9448.315    11556.033     3217.954        4.891        1.211      268.965       62.509        0.054      348.396       28.058      863.254
07/14/2014  22:53:00     -187.836      153.763      -22.406       94.683      110.848       57.561     8964.863    12287.190     3313.312        4.199        1.228      242.745       69.763        0.083      348.374       28.020      863.250
07/14/2014  22:54:00     -196.693       24.523      -20.807       99.628      119.144       55.917     9925.704    14195.376     3126.679        3.348        1.362      198.216       56.202        0.080      348.379       28.030      863.277
07/14/2014  22:55:00     -232.003       69.712      -17.415      137.374      107.360       57.521    18871.741    11526.211     3308.612        4.634        1.685      242.250       49.637        0.042      348.396       28.058      863.290
07/14/2014  22:56:00     -110.251       50.961       -5.116       66.676       72.819       58.378     4445.673     5302.601     3407.959        1.396        0.658      121.459       40.120        0.109      348.355       27.990      863.273
07/14/2014  22:57:00      -73.215       80.837      -21.023       88.598       69.349       37.893     7849.623     4809.293     1435.889        1.321        0.705      109.065       17.645        0.026      348.302       27.898      863.256
07/14/2014  22:58:00     -131.452      192.895       -7.900      128.384      159.303       68.977    16482.485    25377.536     4757.829        5.057        2.331      233.427       74.180        0.101      348.368       28.010      863.261
07/14/2014  22:59:00     -178.865      115.118      -19.810       91.150      122.244       50.252     8308.311    14943.590     2525.311        3.570        1.289      212.708       37.421        0.031      348.415       28.090      863.262
07/14/2014  23:00:00     -198.074      -52.176      -10.626      185.811      132.053       63.983    34525.911    17438.087     4093.810        4.905        2.803      204.831       83.406        0.166      348.444       28.143      863.254
07/14/2014  23:01:00     -112.245       80.797      -10.124       79.020      126.603       53.973     6244.127    16028.216     2913.138        2.220        1.259      138.301       65.736        0.226      348.380       28.034      863.288
07/14/2014  23:02:00     -231.271       18.845      -26.182      116.584       85.762       49.223    13591.754     7355.104     2422.880        3.894        1.168      232.037       42.705        0.034      348.418       28.098      863.292
07/14/2014  23:03:00     -135.068       20.894       -6.305      117.454      104.493       42.269    13795.533    10918.825     1786.627        2.261        1.325      136.675       43.812        0.103      348.417       28.096      863.324
07/14/2014  23:04:00      -93.726       76.374      -10.849       79.818      106.914       55.087     6370.937    11430.515     3034.570        1.778        1.042      120.903       45.442        0.141      348.408       28.081      863.342
07/14/2014  23:05:00     -173.074       48.702      -40.524       82.137      137.636       49.163     6746.458    18943.675     2416.961        3.103        1.405      179.796       54.848        0.093      348.407       28.076      863.362
07/14/2014  23:06:00      -52.755       30.657       -0.549       71.562       90.114       43.745     5121.112     8120.475     1913.642        0.944        0.758       61.016       36.807        0.364      348.370       28.016      863.383
07/14/2014  23:07:00     -155.187       73.954      -31.126      127.583       77.710       45.972    16277.476     6038.777     2113.440        2.747        1.221      171.907       54.393        0.100      348.365       28.005      863.415
07/14/2014  23:08:00      -80.474       76.472      -12.763      115.426       81.448       53.194    13323.207     6633.816     2829.584        1.763        1.139      111.013       58.031        0.273      348.356       27.991      863.439
07/14/2014  23:09:00     -114.069       71.928      -11.160      103.214       86.661       54.256    10653.197     7510.078     2943.760        1.970        1.055      134.854       46.984        0.121      348.310       27.912      863.446
07/14/2014  23:10:00     -192.569      128.584      -41.113      108.693       63.913       45.994    11814.139     4084.822     2115.458        3.666        0.901      231.553       55.932        0.058      348.329       27.941      863.445
07/14/2014  23:11:00     -141.247       25.005        1.263      108.204       60.635       41.281    11708.190     3676.568     1704.128        1.883        0.854      143.443       48.973        0.117      348.289       27.874      863.456
07/14/2014  23:12:00      -89.297      -48.046       -9.028       72.577       57.840       45.703     5267.410     3345.456     2088.793        1.053        0.535      101.402       33.369        0.108      348.285       27.866      863.482
07/14/2014  23:13:00      -79.429       47.608       -2.557       74.747      116.199       48.578     5587.052    13502.234     2359.835        1.501        1.072       92.604       52.104        0.317      348.280       27.859      863.495
07/14/2014  23:14:00      -24.773       36.806        8.304       85.661       62.653       44.476     7337.732     3925.375     1978.145        0.764        0.662       44.366       30.576        0.475      348.243       27.795      863.503
07/14/2014  23:15:00     -115.042       36.448      -39.591       67.981       50.726       43.976     4621.384     2573.121     1933.903        1.263        0.456      120.678       37.660        0.097      348.313       27.917      863.536
07/14/2014  23:16:00      -12.307      -51.978       14.843       28.167       29.401       23.275      793.391      864.442      541.702        0.264        0.110       53.415       16.895        0.100      348.269       27.841      863.540
07/14/2014  23:17:00     -145.787       87.866      -35.300       98.947       87.334       43.828     9790.588     7627.237     1920.913        2.478        0.967      170.219       52.308        0.094      348.295       27.885      863.582
07/14/2014  23:18:00      -69.147      110.864       -6.402       65.895       74.192       39.025     4342.095     5504.474     1522.966        1.424        0.568      130.660       38.172        0.085      348.222       27.760      863.633
07/14/2014  23:19:00      -58.648      -71.127        8.914       52.965       67.810       28.889     2805.254     4598.245      834.598        0.841        0.412       92.188       29.888        0.105      348.190       27.704      863.683
07/14/2014  23:20:00      -43.638     -105.949        5.295       66.857       49.217       31.085     4469.797     2422.273      966.286        1.051        0.393      114.584       35.406        0.095      348.171       27.672      863.699
07/14/2014  23:21:00      -28.636     -112.400        2.057       42.231       41.598       27.447     1783.452     1730.362      753.348        0.886        0.213      115.991       17.207        0.022      348.097       27.544      863.730
07/14/2014  23:22:00      -30.487     -163.450        8.111       52.815       75.159       33.970     2789.466     5648.927     1153.967        1.865        0.480      166.269       22.251        0.018      348.152       27.638      863.756
07/14/2014  23:23:00      -38.231      -76.644        3.262       62.527       66.760       31.312     3909.668     4456.834      980.441        0.834        0.467       85.650       33.389        0.152      348.182       27.691      863.760
07/14/2014  23:24:00      -61.301      -23.454       -0.592       37.126       18.318       21.285     1378.357      335.548      453.064        0.324        0.108       65.635       17.062        0.068      348.165       27.662      863.787
07/14/2014  23:25:00      -40.392      -83.491       -1.128       45.880       44.147       26.910     2105.008     1948.975      724.174        0.669        0.239       92.748       22.636        0.060      348.138       27.615      863.828
07/14/2014  23:26:00      -38.794      -63.944        0.037       47.118       48.691       34.908     2220.134     2370.828     1218.591        0.570        0.290       74.792       35.690        0.228      348.099       27.548      863.858
07/14/2014  23:27:00       -7.161      -43.605       21.027       39.843       38.630       23.545     1587.500     1492.315      554.346        0.301        0.182       44.189       22.654        0.263      348.066       27.492      863.889
07/14/2014  23:28:00      -42.445      -27.508        4.126       65.462       33.674       25.555     4285.335     1133.922      653.037        0.432        0.304       50.579       26.439        0.273      348.059       27.478      863.926
07/14/2014  23:29:00      -74.948      -88.571       -1.071       36.360       34.938       25.571     1322.072     1220.635      653.857        0.833        0.160      116.026       20.265        0.031      348.086       27.525      863.965
07/14/2014  23:30:00      -77.352      -29.354        3.081       41.792       30.958       23.137     1746.589      958.405      535.335        0.505        0.162       82.734       21.022        0.065      348.054       27.471      863.997
07/14/2014  23:31:00      -68.573       -9.138        2.453       25.586       22.844       17.268      654.636      521.826      298.177        0.313        0.074       69.179       17.261        0.062      348.014       27.401      864.001
07/14/2014  23:32:00      -23.380       21.435       -0.175       17.107       24.323       12.776      292.659      591.598      163.232        0.103        0.052       31.719       13.157        0.172      348.148       27.633      864.000
07/14/2014  23:33:00      -55.296       39.818       -1.688       38.150       26.278       21.578     1455.407      690.544      465.602        0.363        0.131       68.140       21.084        0.096      348.054       27.471      864.003
07/14/2014  23:34:00        8.370       66.000        1.125       25.775       22.552       24.415      664.350      508.583      596.104        0.310        0.088       66.529       11.797        0.031      347.957       27.302      863.999
07/14/2014  23:35:00      -41.967      122.553      -13.708       40.802       44.728       22.638     1664.837     2000.562      512.458        1.057        0.209      129.539       22.863        0.031      348.016       27.403      864.002
07/14/2014  23:36:00      -52.519       70.494       -8.977       30.337       29.393       15.905      920.330      863.961      252.967        0.492        0.102       87.907       15.548        0.031      347.969       27.323      864.006
07/14/2014  23:37:00     -115.466       84.181      -23.428       32.031       39.444       20.345     1025.964     1555.802      413.919        1.198        0.150      142.895       20.382        0.020      347.977       27.337      863.991
07/14/2014  23:38:00      -85.194       79.598      -18.999       40.204       36.358       21.972     1616.375     1321.919      482.774        0.869        0.171      116.593       23.325        0.040      347.977       27.337      863.977
07/14/2014  23:39:00     -111.515       57.490      -19.455       62.691       31.130       22.715     3930.130      969.075      515.992        1.077        0.271      125.462       20.559        0.027      348.037       27.441      863.953
07/14/2014  23:40:00     -163.121       75.757      -27.893       43.793       36.314       25.764     1917.821     1318.715      663.766        1.851        0.195      179.854       20.849        0.013      348.020       27.412      863.934
07/14/2014  23:41:00     -136.605       54.169      -13.859       48.281       47.351       25.938     2331.035     2242.131      672.768        1.352        0.262      146.953       23.083        0.025      348.009       27.392      863.908
07/14/2014  23:42:00     -141.925       71.365      -10.736       66.945       38.711       33.158     4481.690     1498.551     1099.486        1.621        0.354      158.858       28.401        0.032      348.036       27.438      863.887
07/14/2014  23:43:00     -124.358      108.329      -22.470       54.739       53.229       34.366     2996.352     2833.291     1181.008        1.736        0.351      164.924       23.906        0.021      348.167       27.663      863.876
07/14/2014  23:44:00      -85.006       99.040       -9.892       34.075       79.718       31.704     1161.128     6354.961     1005.144        1.283        0.426      130.518       32.048        0.060      348.175       27.679      863.849
07/14/2014  23:45:00     -126.002      111.110      -34.157       35.625       56.648       32.219     1269.139     3209.030     1038.079        1.745        0.276      167.994       19.707        0.014      348.221       27.757      863.838
07/14/2014  23:46:00      -83.940       62.087      -15.049       44.414       59.595       30.351     1972.581     3551.583      921.165        0.878        0.322      104.406       21.454        0.042      348.177       27.682      863.828
07/14/2014  23:47:00     -100.860       39.617       -8.777       36.639       38.801       25.865     1342.401     1505.532      669.024        0.767        0.176      108.361       18.111        0.028      348.186       27.699      863.815
07/14/2014  23:48:00      -60.692       21.036        2.119       42.418       33.478       23.078     1799.267     1120.786      532.594        0.379        0.173       64.234       21.071        0.108      348.121       27.588      863.810
07/14/2014  23:49:00      -90.103       40.913       -9.585       38.062       34.800       21.505     1448.753     1211.062      462.472        0.650        0.156       98.957       16.347        0.027      348.167       27.665      863.805
07/14/2014  23:50:00      -60.160       49.337       -6.156       35.281       29.383       20.629     1244.760      863.369      425.552        0.431        0.127       77.803       18.371        0.056      348.119       27.582      863.798
07/14/2014  23:51:00      -91.033       66.432       -8.158       45.791       35.063       25.857     2096.810     1229.444      668.573        0.838        0.200      112.695       18.912        0.028      348.136       27.611      863.797
07/14/2014  23:52:00      -96.021      154.441      -17.677       38.196       48.278       25.276     1458.910     2330.767      638.881        1.891        0.221      181.858       17.105        0.009      348.195       27.713      863.797
07/14/2014  23:53:00      -82.488       89.502       -4.374       43.340       68.086       28.886     1878.333     4635.730      834.424        1.109        0.367      121.716       31.509        0.067      348.146       27.627      863.805
07/14/2014  23:54:00      -83.994       56.626      -12.475       31.033       24.567       22.053      963.069      603.560      486.326        0.623        0.103      101.299       21.649        0.046      348.144       27.626      863.809
07/14/2014  23:55:00      -65.285       26.868       -9.670       41.134       21.849       15.257     1692.030      477.362      232.788        0.374        0.120       70.597       16.886        0.057      348.106       27.559      863.818
07/14/2014  23:56:00      -33.059      -21.333       -9.121       38.441       26.545       22.830     1477.688      704.624      521.190        0.217        0.135       39.345        7.322        0.035      348.087       27.527      863.816
07/14/2014  23:57:00      -46.085       29.761       -6.400       44.832       48.876       22.474     2009.895     2388.829      505.088        0.398        0.245       54.859       24.707        0.203      348.077       27.510      863.816
07/14/2014  23:58:00      -51.733       15.680      -13.771       35.364       34.521       23.438     1250.643     1191.671      549.354        0.305        0.150       54.057       24.046        0.198      348.134       27.611      863.813
07/14/2014  23:59:00      -49.062      -31.651       -3.998       24.789       12.698       12.590      614.499      161.235      158.509        0.218        0.047       58.385       12.287        0.044      348.101       27.551      863.809
